[[{"header":{"parameterUnit":"m.s-1","parameterCategory":1,"la1":30.6,"la2":28.766,"lo1":-90.7593,"lo2":-88.6598,"dy":0.0162,"dx":0.0183,"nx":116,"ny":114,"refTime":"2023-10-06T12:00:00:Z","depth":0,"parameterNumber":2,"parameterNumberName":"U-component_of_WINDS"},"data":[0.0,0.0,0.0,0.0,0.0,0.0,0.0,0.0,0.0,0.0,0.0,0.0,0.0,0.0,0.0,0.0,0.0,0.0,0.0,0.0,0.0,0.0,0.0,0.0,0.0,0.0,0.0,0.0,0.0,0.0,0.0,0.0,0.0,0.0,0.0,0.0,0.0,0.0,0.0,0.0,0.0,0.0,0.0,0.0,0.0,0.0,0.0,0.0,0.0,0.0,0.0,0.0,0.0,0.0,0.0,0.0,0.0,0.0,0.0,0.0,0.0,0.0,0.0,0.0,0.0,0.0,0.0,0.0,0.0,0.0,0.0,0.0,0.0,0.0,0.0,0.0,0.0,0.0,0.0,0.0,0.0,0.0,0.0,0.0,0.0,0.0,0.0,0.0,0.0,0.0,0.0,0.0,0.0,0.0,0.0,0.0,0.0,0.0,0.0,0.0,0.0,0.0,0.0,0.0,0.0,0.0,0.0,0.0,0.0,0.0,0.0,0.0,0.0,0.0,0.0,0.0,0.0,0.0,0.0,0.0,0.0,0.0,0.0,0.0,0.0,0.0,0.0,0.0,0.0,0.0,0.0,0.0,0.0,0.0,0.0,0.0,0.0,0.0,0.0,0.0,0.0,0.0,0.0,0.0,0.0,0.0,0.0,0.0,0.0,0.0,0.0,0.0,0.0,0.0,0.0,0.0,0.0,0.0,0.0,0.0,0.0,0.0,0.0,0.0,0.0,0.0,0.0,0.0,0.0,0.0,0.0,0.0,0.0,0.0,0.0,0.0,0.0,0.0,0.0,0.0,0.0,0.0,0.0,0.0,0.0,0.0,0.0,0.0,0.0,0.0,0.0,0.0,0.0,0.0,0.0,0.0,0.0,0.0,0.0,0.0,0.0,0.0,0.0,0.0,0.0,0.0,0.0,0.0,0.0,0.0,0.0,0.0,0.0,0.0,0.0,0.0,0.0,0.0,0.0,0.0,0.0,0.0,0.0,0.0,0.0,0.0,0.0,0.0,0.0,0.0,0.0,0.0,0.0,0.0,0.0,0.0,0.0,0.0,0.0,0.0,0.0,0.0,0.0,0.0,0.0,0.0,0.0,0.0,0.0,0.0,0.0,0.0,0.0,0.0,0.0,0.0,0.0,0.0,0.0,0.0,0.0,0.0,0.0,0.0,0.0,0.0,0.0,0.0,0.0,0.0,0.0,0.0,0.0,0.0,0.0,0.0,0.0,0.0,0.0,0.0,0.0,0.0,0.0,0.0,0.0,0.0,0.0,0.0,0.0,0.0,0.0,0.0,0.0,0.0,0.0,0.0,0.0,0.0,0.0,0.0,0.0,0.0,0.0,0.0,0.0,0.0,0.0,0.0,0.0,0.0,0.0,0.0,0.0,0.0,0.0,0.0,0.0,0.0,0.0,0.0,0.0,0.0,0.0,0.0,0.0,0.0,0.0,0.0,0.0,0.0,0.0,0.0,0.0,0.0,0.0,0.0,0.0,0.0,0.0,0.0,0.0,0.0,0.0,0.0,0.0,0.0,0.0,0.0,0.0,0.0,0.0,0.0,0.0,0.0,0.0,0.0,0.0,0.0,0.0,0.0,0.0,0.0,0.0,0.0,0.0,0.0,0.0,0.0,0.0,0.0,0.0,0.0,0.0,0.0,0.0,0.0,0.0,0.0,0.0,0.0,0.0,0.0,0.0,0.0,0.0,0.0,0.0,0.0,0.0,0.0,0.0,0.0,0.0,0.0,0.0,0.0,0.0,0.0,0.0,0.0,0.0,0.0,0.0,0.0,0.0,0.0,0.0,0.0,0.0,0.0,0.0,0.0,0.0,0.0,0.0,0.0,0.0,0.0,0.0,0.0,0.0,0.0,0.0,0.0,0.0,0.0,0.0,0.0,0.0,0.0,0.0,0.0,0.0,0.0,0.0,0.0,0.0,0.0,0.0,0.0,0.0,0.0,0.0,0.0,0.0,0.0,0.0,0.0,0.0,0.0,0.0,0.0,0.0,0.0,0.0,0.0,0.0,0.0,0.0,0.0,0.0,0.0,0.0,0.0,0.0,0.0,0.0,0.0,0.0,0.0,0.0,0.0,0.0,0.0,0.0,0.0,0.0,0.0,0.0,0.0,0.0,0.0,0.0,0.0,0.0,0.0,0.0,0.0,0.0,0.0,0.0,0.0,0.0,0.0,0.0,0.0,0.0,0.0,0.0,0.0,0.0,0.0,0.0,0.0,0.0,0.0,0.0,0.0,0.0,0.0,0.0,0.0,0.0,0.0,0.0,0.0,0.0,0.0,0.0,0.0,0.0,0.0,0.0,0.0,0.0,0.0,0.0,0.0,0.0,0.0,0.0,0.0,0.0,0.0,0.0,0.0,0.0,0.0,0.0,0.0,0.0,0.0,0.0,0.0,0.0,0.0,0.0,0.0,0.0,0.0,0.0,0.0,0.0,0.0,0.0,0.0,0.0,0.0,0.0,0.0,0.0,0.0,0.0,0.0,0.0,0.0,0.0,0.0,0.0,0.0,0.0,0.0,0.0,0.0,0.0,0.0,0.0,0.0,0.0,0.0,0.0,0.0,0.0,0.0,0.0,0.0,0.0,0.0,0.0,0.0,0.0,0.0,0.0,0.0,0.0,0.0,0.0,0.0,0.0,0.0,0.0,0.0,0.0,0.0,0.0,0.0,0.0,0.0,0.0,0.0,0.0,0.0,0.0,0.0,0.0,0.0,0.0,0.0,0.0,0.0,0.0,0.0,0.0,0.0,0.0,0.0,0.0,0.0,0.0,0.0,0.0,0.0,0.0,0.0,0.0,0.0,0.0,0.0,0.0,0.0,0.0,0.0,0.0,0.0,0.0,0.0,0.0,0.0,0.0,0.0,0.0,0.0,0.0,0.0,0.0,0.0,0.0,0.0,0.0,0.0,0.0,0.0,0.0,0.0,0.0,0.0,0.0,0.0,0.0,0.0,0.0,0.0,0.0,0.0,0.0,0.0,0.0,0.0,0.0,0.0,0.0,0.0,0.0,0.0,0.0,0.0,0.0,0.0,0.0,0.0,0.0,0.0,0.0,0.0,0.0,0.0,0.0,0.0,0.0,0.0,0.0,0.0,0.0,0.0,0.0,0.0,0.0,0.0,0.0,0.0,0.0,0.0,0.0,0.0,0.0,0.0,0.0,0.0,0.0,0.0,0.0,0.0,0.0,0.0,0.0,0.0,0.0,0.0,0.0,0.0,0.0,0.0,0.0,0.0,0.0,0.0,0.0,0.0,0.0,0.0,0.0,0.0,0.0,0.0,0.0,0.0,0.0,0.0,0.0,0.0,0.0,0.0,0.0,0.0,0.0,0.0,0.0,0.0,0.0,0.0,0.0,0.0,0.0,0.0,0.0,0.0,0.0,0.0,0.0,0.0,0.0,0.0,0.0,0.0,0.0,0.0,0.0,0.0,0.0,0.0,0.0,0.0,0.0,0.0,0.0,0.0,0.0,0.0,0.0,0.0,0.0,0.0,0.0,0.0,0.0,0.0,0.0,0.0,0.0,0.0,0.0,0.0,0.0,0.0,0.0,0.0,0.0,0.0,0.0,0.0,0.0,0.0,0.0,0.0,0.0,0.0,0.0,0.0,0.0,0.0,0.0,0.0,0.0,0.0,0.0,0.0,0.0,0.0,0.0,0.0,0.0,0.0,0.0,0.0,0.0,0.0,0.0,0.0,0.0,0.0,0.0,0.0,0.0,0.0,0.0,0.0,0.0,0.0,0.0,0.0,0.0,0.0,0.0,0.0,0.0,0.0,0.0,0.0,0.0,0.0,0.0,0.0,0.0,0.0,0.0,0.0,0.0,0.0,0.0,0.0,0.0,0.0,0.0,0.0,0.0,0.0,0.0,0.0,0.0,0.0,0.0,0.0,0.0,0.0,0.0,0.0,0.0,0.0,0.0,0.0,0.0,0.0,0.0,0.0,0.0,0.0,0.0,0.0,0.0,0.0,0.0,0.0,0.0,0.0,0.0,0.0,0.0,0.0,0.0,0.0,0.0,0.0,0.0,0.0,0.0,0.0,0.0,0.0,0.0,0.0,0.0,0.0,0.0,0.0,0.0,0.0,0.0,0.0,0.0,0.0,0.0,0.0,0.0,0.0,0.0,0.0,0.0,0.0,0.0,0.0,0.0,0.0,0.0,0.0,0.0,0.0,0.0,0.0,0.0,0.0,0.0,0.0,0.0,0.0,0.0,0.0,0.0,0.0,0.0,0.0,0.0,0.0,0.0,0.0,0.0,0.0,0.0,0.0,0.0,0.0,0.0,0.0,0.0,0.0,0.0,0.0,0.0,0.0,0.0,0.0,0.0,0.0,0.0,0.0,0.0,0.0,0.0,0.0,0.0,0.0,0.0,0.0,0.0,0.0,0.0,0.0,0.0,0.0,0.0,0.0,0.0,0.0,0.0,0.0,0.0,0.0,0.0,0.0,0.0,0.0,0.0,0.0,0.0,0.0,0.0,0.0,0.0,0.0,0.0,0.0,0.0,0.0,0.0,0.0,0.0,0.0,0.0,0.0,0.0,0.0,0.0,0.0,0.0,0.0,0.0,0.0,0.0,0.0,0.0,0.0,0.0,0.0,0.0,0.0,0.0,0.0,0.0,0.0,0.0,0.0,0.0,0.0,0.0,0.0,0.0,0.0,0.0,0.0,0.0,0.0,0.0,0.0,0.0,0.0,0.0,0.0,0.0,0.0,0.0,0.0,0.0,0.0,0.0,0.0,0.0,0.0,0.0,0.0,0.0,0.0,0.0,0.0,0.0,0.0,0.0,0.0,0.0,0.0,0.0,0.0,0.0,0.0,0.0,0.0,0.0,0.0,0.0,0.0,0.0,0.0,0.0,0.0,0.0,0.0,0.0,0.0,0.0,0.0,0.0,0.0,0.0,0.0,0.0,0.0,0.0,0.0,0.0,0.0,0.0,0.0,0.0,0.0,0.0,0.0,0.0,0.0,0.0,0.0,0.0,0.0,0.0,0.0,0.0,0.0,0.0,0.0,0.0,0.0,0.0,0.0,0.0,0.0,0.0,0.0,0.0,0.0,0.0,0.0,0.0,0.0,0.0,0.0,0.0,0.0,0.0,0.0,0.0,0.0,0.0,0.0,0.0,0.0,0.0,0.0,0.0,0.0,0.0,0.0,0.0,0.0,0.0,0.0,0.0,0.0,0.0,0.0,0.0,0.0,0.0,0.0,0.0,0.0,0.0,0.0,0.0,0.0,0.0,0.0,0.0,0.0,0.0,0.0,0.0,0.0,0.0,0.0,0.0,0.0,0.0,0.0,0.0,0.0,0.0,0.0,0.0,0.0,0.0,0.0,0.0,0.0,0.0,0.0,0.0,0.0,0.0,0.0,0.0,0.0,0.0,0.0,0.0,0.0,0.0,0.0,0.0,0.0,0.0,0.0,0.0,0.0,0.0,0.0,0.0,0.0,0.0,0.0,0.0,0.0,0.0,0.0,0.0,0.0,0.0,0.0,0.0,0.0,0.0,0.0,0.0,0.0,0.0,0.0,0.0,0.0,0.0,0.0,0.0,0.0,0.0,0.0,0.0,0.0,0.0,0.0,0.0,0.0,0.0,0.0,0.0,0.0,0.0,0.0,0.0,0.0,0.0,0.0,0.0,0.0,0.0,0.0,0.0,0.0,0.0,0.0,0.0,0.0,0.0,0.0,0.0,0.0,0.0,0.0,0.0,0.0,0.0,0.0,0.0,0.0,0.0,0.0,0.0,0.0,0.0,0.0,0.0,0.0,0.0,0.0,0.0,0.0,0.0,0.0,0.0,0.0,0.0,0.0,0.0,0.0,0.0,0.0,0.0,0.0,0.0,0.0,0.0,0.0,0.0,0.0,0.0,0.0,0.0,0.0,0.0,0.0,0.0,0.0,0.0,0.0,0.0,0.0,0.0,0.0,0.0,0.0,0.0,0.0,0.0,0.0,0.0,0.0,0.0,0.0,0.0,0.0,0.0,0.0,0.0,0.0,0.0,0.0,0.0,0.0,0.0,0.0,0.0,0.0,0.0,0.0,0.0,0.0,0.0,0.0,0.0,0.0,0.0,0.0,0.0,0.0,0.0,0.0,1.9911,0.0,0.0,0.0,0.0,0.0,0.0,0.0,0.0,0.0,0.0,0.0,0.0,0.0,0.0,0.0,0.0,0.0,0.0,0.0,0.0,0.0,0.0,0.0,0.0,0.0,0.0,0.0,0.0,0.0,0.0,0.0,0.0,0.0,0.0,0.0,0.0,0.0,0.0,0.0,1.5772,1.6437,1.753,1.7121,1.7401,1.8178,0.0,0.0,0.0,0.0,0.0,0.0,0.0,0.0,0.0,0.0,0.0,0.0,0.0,0.0,0.0,0.0,0.0,0.0,0.0,0.0,0.0,0.0,0.0,0.0,0.0,0.0,0.0,0.0,0.0,0.0,0.0,0.0,0.0,0.0,0.0,0.0,0.0,0.0,0.0,0.0,0.0,0.0,0.0,0.0,0.0,0.0,0.0,0.0,0.0,0.0,0.0,0.0,0.0,0.0,0.0,0.0,0.0,0.0,0.0,0.0,0.0,0.0,0.0,0.0,0.0,0.0,0.0,0.0,0.0,0.0,0.0,1.9738,0.0,0.0,0.0,0.0,0.0,0.0,0.0,0.0,0.0,0.0,0.0,0.0,0.0,0.0,0.0,0.0,0.0,0.0,0.0,0.0,0.0,0.0,0.0,1.0664,1.0867,1.1616,1.1394,1.142,0.0,0.0,0.0,0.0,0.0,0.0,0.0,1.4686,1.5058,1.5134,1.5649,1.6559,1.7756,1.6471,1.6565,1.7825,1.7911,0.0,0.0,0.0,0.0,0.0,0.0,0.0,0.0,0.0,0.0,0.0,0.0,0.0,0.0,0.0,0.0,0.0,0.0,0.0,0.0,0.0,0.0,0.0,0.0,0.0,0.0,0.0,0.0,0.0,0.0,0.0,0.0,0.0,0.0,0.0,0.0,0.0,0.0,0.0,0.0,0.0,0.0,0.0,0.0,0.0,0.0,0.0,0.0,0.0,0.0,0.0,0.0,0.0,0.0,0.0,0.0,0.0,0.0,0.0,0.0,0.0,0.0,0.0,2.6002,2.6722,2.5813,2.6784,2.6589,2.5389,2.2838,2.125,2.0439,2.0318,0.0,0.0,0.0,0.0,0.0,0.0,0.0,0.0,0.0,0.0,0.0,0.0,0.0,0.0,0.0,0.0,0.0,0.0,0.0,0.0,0.0,0.96,1.0225,1.0725,1.0802,1.0829,1.0905,0.0,0.0,0.0,0.0,0.0,1.3934,1.413,1.4195,1.4084,1.4972,1.5681,1.6205,1.6499,1.6831,1.7116,1.6394,1.6101,1.6154,0.0,0.0,0.0,0.0,0.0,0.0,0.0,0.0,0.0,0.0,0.0,0.0,0.0,0.0,0.0,0.0,0.0,0.0,0.0,0.0,0.0,0.0,0.0,0.0,0.0,0.0,0.0,0.0,0.0,0.0,0.0,0.0,0.0,0.0,0.0,0.0,0.0,0.0,0.0,0.0,0.0,1.5256,1.7216,0.0,0.0,0.0,0.0,0.0,0.0,0.0,0.0,0.0,0.0,0.0,0.0,0.0,2.4484,2.5352,2.6479,2.738,2.8128,2.9205,2.9995,3.047,2.9314,2.9533,3.0776,3.0371,0.0,2.3644,2.0849,0.0,0.0,0.0,0.0,0.0,0.0,0.0,0.0,0.0,0.0,0.0,0.0,0.0,0.0,0.0,0.0,0.0,0.0,0.0,0.0,0.0,0.9108,0.9509,0.9825,0.999,1.0095,1.0079,1.0724,0.0,0.0,0.0,1.2881,1.3263,1.3327,1.3513,1.3811,1.4104,1.4981,1.6348,1.6102,1.6323,1.6923,1.6341,1.6057,1.5963,1.6157,0.0,0.0,0.0,0.0,0.0,0.0,0.0,0.0,0.0,0.0,0.0,0.0,0.0,0.0,0.0,0.0,0.0,0.0,0.0,0.0,0.0,0.0,0.0,0.0,0.0,0.0,0.0,0.0,0.0,0.0,0.0,0.0,0.0,0.0,0.0,0.0,0.0,0.0,0.0,1.6253,1.7242,1.5317,1.6723,1.8145,0.0,0.0,0.0,0.0,0.0,0.0,0.0,0.0,0.0,2.4684,2.6633,2.7675,2.7644,2.9136,3.0178,3.0797,3.1311,3.2302,3.3642,3.2428,3.2305,3.3067,3.2651,3.1169,2.8812,2.5643,2.4162,2.3877,0.0,0.0,0.0,0.0,2.5283,2.6101,0.0,0.0,0.0,0.0,0.0,0.0,0.0,0.0,0.0,0.0,0.0,0.0,0.8265,0.8528,0.8794,0.9106,0.9256,0.9341,0.9497,0.9885,1.0416,0.0,1.1667,1.2139,1.2508,1.2638,1.3053,1.374,1.3691,1.4602,1.6362,1.5736,1.5953,1.6924,1.6471,1.611,1.5915,1.6186,1.6198,1.6068,0.0,0.0,0.0,0.0,0.0,0.0,0.0,0.0,0.0,0.0,0.0,0.0,0.0,0.0,0.0,0.0,0.0,0.0,0.0,0.0,0.0,0.0,0.0,0.0,0.0,0.0,0.0,0.0,0.0,0.0,0.0,0.0,0.0,0.0,0.0,0.0,0.0,1.8275,1.8364,1.5101,1.6812,1.8646,0.0,0.0,0.0,0.0,0.0,0.0,2.4582,2.5841,2.6802,2.7515,2.9849,3.0944,3.0534,3.196,3.2878,3.3264,3.3713,3.454,3.5745,3.5209,3.4899,3.4729,3.4191,3.3584,3.2771,2.9643,2.7259,2.5495,2.4745,2.4369,2.43,2.4915,2.6348,2.7915,0.0,0.0,0.0,0.0,0.0,0.0,0.0,0.0,0.0,0.0,0.0,0.6686,0.7033,0.7486,0.8013,0.8667,0.8573,0.8707,0.9255,0.95,0.9883,1.0418,1.1008,1.1457,1.1653,1.2211,1.2957,1.3907,1.407,1.4635,1.5499,1.5685,1.6189,1.6936,1.6171,1.5758,1.5636,1.5972,1.5865,1.5554,1.6728,0.0,0.0,0.0,0.0,0.0,0.0,0.0,0.0,0.0,0.0,0.0,0.0,0.0,0.0,0.0,0.0,0.0,0.0,0.0,0.0,0.0,0.0,0.0,0.0,0.0,0.0,0.0,0.0,0.0,0.0,0.0,0.0,0.0,0.0,0.0,0.0,0.0,0.0,1.947,2.0009,0.0,0.0,0.0,0.0,2.7081,2.7366,2.7747,2.8404,2.9755,3.0772,3.1392,3.2857,3.3972,3.4679,3.5662,3.6159,3.6214,3.7026,3.71,3.6473,3.7248,3.7192,3.6496,3.6493,3.559,3.3863,3.0652,2.8783,2.7811,2.6692,2.5798,2.5393,2.7504,2.8357,2.8578,0.0,0.0,0.0,0.0,0.0,0.0,0.0,0.0,0.5065,0.5658,0.6174,0.6654,0.7012,0.7535,0.7924,0.8121,0.8138,0.8104,0.8062,0.8357,0.8913,0.9762,1.0184,1.0795,1.1585,1.2051,1.258,1.3209,1.3883,1.4687,1.5468,1.5919,1.6507,1.7094,1.6968,1.6728,1.645,1.6173,1.5684,1.5087,1.6059,1.6635,0.0,0.0,0.0,0.0,0.0,0.0,0.0,0.0,0.0,0.0,0.0,0.0,0.0,0.0,0.0,0.0,0.0,0.0,0.0,0.0,0.0,0.0,0.0,0.0,0.0,0.0,0.0,0.0,0.0,0.0,0.0,0.0,0.0,0.0,0.0,0.0,0.0,2.2601,2.3406,0.0,2.4149,2.4798,2.5663,2.6702,2.6742,2.7691,2.9867,3.1408,3.2755,3.3901,3.5884,3.6835,3.6615,3.7452,3.7886,3.7945,3.8251,3.829,3.8061,3.8423,3.8433,3.8118,3.7681,3.6835,3.5665,3.3993,3.193,2.9795,2.9438,2.9164,2.9099,2.9931,3.1241,3.259,0.0,0.0,0.0,0.0,0.0,0.0,0.0,0.0,0.4817,0.5433,0.6002,0.6377,0.6433,0.6984,0.7371,0.7447,0.7458,0.746,0.7443,0.7645,0.8126,0.898,0.9579,1.0415,1.1417,1.2112,1.2627,1.2994,1.4019,1.4916,1.5605,1.5937,1.6383,1.6896,1.7045,1.6943,1.6664,1.6481,1.5902,1.5224,1.5825,1.6367,1.6772,0.0,0.0,0.0,0.0,0.0,0.0,0.0,0.0,0.0,0.0,0.0,0.0,0.0,0.0,0.0,0.0,0.0,0.0,0.0,0.0,0.0,0.0,0.0,0.0,0.0,0.0,0.0,0.0,0.0,0.0,0.0,0.0,0.0,0.0,0.0,2.4747,2.501,2.6742,2.7317,2.5859,2.6759,2.7753,2.8496,2.8935,3.0231,3.2661,3.3897,3.5034,3.6125,3.7822,3.8432,3.79,3.8493,3.8792,3.8851,3.8862,3.8921,3.8979,3.9007,3.9036,3.8998,3.8516,3.7838,3.7058,3.657,3.5016,3.2887,3.2367,3.226,3.2429,3.2862,3.4055,3.5382,0.0,0.0,0.0,0.0,0.0,0.0,0.0,0.4148,0.4454,0.4885,0.5525,0.5743,0.5229,0.5839,0.6415,0.673,0.6587,0.6742,0.7412,0.7418,0.7595,0.7972,0.9298,1.0381,1.1124,1.2287,1.3042,1.3302,1.4554,1.5309,1.5671,1.568,1.5901,1.6289,1.6219,1.6228,1.6281,1.6708,1.6466,1.591,1.6112,1.6279,1.6507,0.0,0.0,0.0,0.0,0.0,0.0,0.0,0.0,0.0,0.0,0.0,0.0,0.0,0.0,0.0,0.0,0.0,0.0,0.0,0.0,0.0,0.0,0.0,0.0,0.0,0.0,0.0,0.0,0.0,0.0,0.0,0.0,0.0,2.3524,2.6472,2.8129,2.6806,2.9822,3.0706,2.7504,3.0509,3.2684,3.2823,3.4278,3.5659,3.679,3.7248,3.7667,3.8101,3.8483,3.8707,3.8707,3.8822,3.891,3.8892,3.9017,3.9101,3.9101,3.9101,3.9101,3.9101,3.9101,3.8637,3.792,3.8033,3.7716,3.6953,3.5364,3.4848,3.5154,3.6234,3.6632,3.6652,0.0,0.0,0.0,0.0,0.0,0.0,0.0,0.3386,0.3663,0.4132,0.4574,0.4837,0.4923,0.5157,0.5609,0.6356,0.5769,0.5731,0.6658,0.6141,0.6488,0.7933,0.9406,1.0692,1.1736,1.2537,1.326,1.3882,1.4896,1.539,1.535,1.5194,1.53,1.5576,1.4982,1.4895,1.5273,1.5692,1.5867,1.5889,1.593,1.5803,1.5533,0.0,0.0,0.0,0.0,0.0,0.0,0.0,0.0,0.0,0.0,0.0,0.0,0.0,0.0,0.0,0.0,0.0,0.0,0.0,0.0,0.0,0.0,0.0,0.0,0.0,0.0,0.0,0.0,0.0,0.0,0.0,0.0,2.667,2.5589,2.6423,2.7843,2.9782,3.0787,3.1456,3.1832,3.2894,3.3591,3.3727,3.4145,3.4896,3.6039,3.6486,3.7146,3.8083,3.8483,3.8707,3.8707,3.8792,3.8833,3.891,3.8979,3.9045,3.9101,3.9101,3.9101,3.9101,3.9101,3.8637,3.792,3.8033,3.7716,3.7009,3.6029,3.6455,3.7618,3.7296,3.758,3.8131,0.0,0.0,0.0,0.0,0.0,0.0,0.0,0.2536,0.2838,0.2991,0.3809,0.4282,0.3866,0.4323,0.4834,0.5258,0.4792,0.4748,0.552,0.5476,0.6206,0.7888,0.9117,1.0322,1.1495,1.2553,1.3467,1.4152,1.5299,1.5843,1.5703,1.5332,1.5314,1.5431,1.4736,1.4673,1.5143,1.5479,1.6129,1.6749,1.6474,1.6347,1.6297,1.5699,1.5244,1.4971,1.6309,1.6892,1.7251,1.8352,0.0,0.0,0.0,0.0,0.0,0.0,0.0,0.0,0.0,0.0,0.0,0.0,0.0,0.0,0.0,0.0,0.0,0.0,0.0,0.0,0.0,0.0,0.0,0.0,2.8559,2.9823,2.9313,2.971,3.0774,3.2889,3.3719,3.4169,3.4292,3.4905,3.5091,3.4594,3.4835,3.5461,3.6443,3.6719,3.7307,3.8318,3.8907,3.9038,3.8707,3.9123,3.9195,3.891,3.9007,3.9045,3.9101,3.9101,3.9101,3.9101,3.9101,3.9082,3.9051,3.9182,3.9233,0.0,0.0,0.0,0.0,0.0,3.8471,3.9153,0.0,0.0,0.0,0.0,0.0,0.0,0.0,0.1615,0.1935,0.1723,0.3036,0.3578,0.2492,0.3335,0.3984,0.3847,0.3741,0.3844,0.4261,0.5184,0.6246,0.7546,0.8477,0.9484,1.0581,1.2233,1.3514,1.4236,1.5435,1.6142,1.6275,1.5591,1.5312,1.5397,1.4823,1.4832,1.5259,1.5573,1.642,1.7573,1.732,1.7821,1.8601,1.6821,1.5239,1.4139,1.5533,1.6516,1.7269,1.8011,0.0,0.0,0.0,0.0,0.0,0.0,0.0,0.0,0.0,0.0,0.0,0.0,0.0,0.0,0.0,0.0,0.0,0.0,0.0,0.0,0.0,0.0,0.0,0.0,3.1096,3.2835,3.3829,3.4578,3.5215,3.5696,3.7172,3.7421,3.5633,3.6672,3.6939,3.568,3.618,3.6899,3.7662,0.0,0.0,0.0,0.0,3.9588,3.8982,3.9614,3.9649,3.9039,3.9073,3.9157,3.925,3.925,3.925,3.925,3.937,3.9862,4.0622,4.0847,4.1412,4.1793,3.889,3.7705,3.7769,3.8567,3.9307,3.9816,0.0,0.0,0.0,0.0,0.0,0.0,0.0,0.0747,0.0856,0.0884,0.1304,0.1633,0.1781,0.1985,0.2509,0.3488,0.3052,0.2994,0.3547,0.4459,0.527,0.5873,0.7452,0.879,0.9538,1.1233,1.2806,1.4266,1.4164,1.4668,1.5715,1.4229,1.3822,1.422,1.3439,1.341,1.3887,1.3945,1.4388,1.5282,1.7788,2.0559,2.3006,2.2592,2.1608,2.018,1.827,1.9097,2.0832,1.9143,1.9378,2.021,1.921,1.9272,0.0,0.0,0.0,0.0,0.0,0.0,0.0,0.0,0.0,0.0,0.0,0.0,0.0,0.0,0.0,0.0,0.0,0.0,0.0,3.1015,3.227,3.3902,3.6303,3.6819,3.6798,3.6329,3.6649,3.7143,3.7727,3.8109,3.8249,3.7956,3.806,3.833,3.886,3.9221,3.9623,4.0055,3.9959,4.0139,4.0634,3.9632,3.9372,3.9852,0.0,0.0,4.0141,4.0141,4.0141,4.0207,4.0952,4.1016,4.0678,4.155,4.1723,4.1325,4.0681,4.0022,3.9437,3.9716,3.9846,3.9873,0.0,0.0,0.0,0.0,0.0,0.0,0.0,0.0039,0.0124,-0.0043,0.0504,0.0904,0.0857,0.1216,0.1768,0.2416,0.2497,0.2682,0.3182,0.4023,0.4726,0.5274,0.6576,0.7865,0.9093,1.0384,1.1816,1.3471,1.3627,1.4093,1.4806,1.377,1.3432,1.3761,1.2892,1.2839,1.3516,1.322,1.3568,1.4543,1.7447,1.9861,2.1766,2.1743,2.0852,1.9507,1.9187,1.9624,2.0234,1.9247,1.9258,1.9468,1.8779,1.8762,1.8955,0.0,0.0,0.0,0.0,0.0,0.0,0.0,0.0,0.0,0.0,0.0,0.0,0.0,0.0,2.747,0.0,0.0,3.1757,3.3342,3.4807,3.6424,3.8236,3.8774,3.8736,3.8086,3.8441,3.879,3.8946,3.8756,3.8594,3.8594,3.8249,3.84,3.9175,3.9235,3.9621,4.0384,4.0072,4.0115,4.057,4.0253,3.9937,3.956,3.9694,3.9974,4.0401,4.0401,4.044,4.0533,4.1427,4.1424,4.0879,4.1887,4.2147,4.1863,4.1464,4.0532,3.941,3.9471,3.9451,3.939,0.0,0.0,0.0,0.0,0.0,0.0,0.0,-0.0545,-0.041,-0.0748,-0.0,0.046,0.0138,0.0714,0.1176,0.1297,0.1902,0.2447,0.2872,0.3544,0.424,0.4857,0.5697,0.6871,0.8558,0.9445,1.0772,1.2583,1.3126,1.3574,1.4001,1.3419,1.3374,1.3514,1.2796,1.2877,1.3502,1.3162,1.371,1.506,1.7343,1.864,1.9188,1.9164,1.8246,1.7097,1.8843,1.891,1.8294,1.8661,1.8454,1.8018,1.7867,1.7913,1.8051,1.8177,1.8319,0.0,0.0,0.0,0.0,0.0,0.0,0.0,0.0,0.0,2.5761,2.6149,2.7875,2.9521,3.0383,3.2074,3.3825,3.5348,3.7069,3.8569,3.9441,3.9968,4.005,3.9615,4.0317,4.0582,3.9851,3.9342,3.9043,3.9043,3.8491,3.8564,3.9485,3.9244,3.9511,4.0492,4.0112,4.006,4.0467,4.0874,4.0529,3.9507,4.0113,4.0401,4.0401,4.0401,4.0468,4.0624,4.1341,4.1499,4.1326,4.1958,4.2281,4.2293,4.1514,4.0291,3.8975,3.9145,3.9202,3.9166,0.0,0.0,0.0,0.0,0.0,0.0,0.0,0.0,-0.0867,-0.0827,-0.0679,-0.0442,0.004,0.008,0.0314,0.0977,0.133,0.1813,0.2441,0.2868,0.33,0.3766,0.4843,0.6044,0.7415,0.8389,1.011,1.2694,1.1911,1.2337,1.3758,1.2861,1.2794,1.3153,1.3164,1.342,1.3782,1.3992,1.5197,1.7072,1.8523,1.9022,1.8718,1.8635,1.7863,1.6925,1.7015,1.7181,1.7323,1.7297,1.7326,1.746,1.7198,1.7127,1.706,1.663,0.0,1.6464,1.7849,1.8306,0.0,2.1277,2.1528,2.1946,0.0,0.0,2.8139,2.8836,3.0438,3.1844,3.2335,3.402,3.5568,3.6178,3.7286,3.8396,3.9285,3.9396,3.9367,3.9399,4.0189,4.071,4.075,4.0664,4.0629,4.0629,4.0543,4.059,4.0706,4.0704,4.0788,4.0917,4.0249,4.0643,4.2124,4.0874,4.0566,4.1211,4.0669,4.0401,4.0401,4.0401,4.0468,4.0632,4.0942,4.1534,4.22,4.1713,4.1529,4.1474,4.085,3.9964,3.9191,3.9996,4.0249,4.0166,0.0,0.0,0.0,0.0,0.0,0.0,0.0,0.0,0.0,-0.1235,-0.1156,-0.0902,-0.0471,-0.0236,0.0117,0.0611,0.0824,0.1057,0.1386,0.1622,0.1884,0.2104,0.3231,0.4407,0.5629,0.6655,0.8388,1.0872,1.046,1.0969,1.2256,1.1925,1.1943,1.2365,1.2481,1.2966,1.3625,1.4064,1.524,1.6776,1.7548,1.777,1.7603,1.7301,1.6342,1.5233,1.6786,1.6622,0.0,1.65,1.6693,1.6566,1.6459,1.6254,1.6095,1.5913,1.6256,0.0,1.7693,0.0,0.0,0.0,2.2243,2.3899,2.6495,2.849,3.0097,3.0982,3.2702,3.4203,3.4525,3.5697,3.6915,0.0,3.8405,3.9104,3.98,3.9154,3.8508,3.822,3.8094,3.8397,3.9336,3.8687,3.8767,4.0095,3.9388,3.9593,4.1185,4.0695,4.0888,4.2055,4.1152,4.1259,4.2447,4.1434,4.0656,4.0084,3.9807,3.964,3.964,3.9704,4.0408,4.148,4.0698,4.087,4.1635,4.0848,4.0614,4.0728,4.0468,4.0188,3.99,3.9746,3.964,3.9593,0.0,0.0,0.0,0.0,0.0,0.0,0.0,0.0,0.0,0.0,-0.1542,-0.1398,-0.1114,-0.0779,-0.0392,0.0078,0.0207,0.0351,0.0699,0.0832,0.0991,0.1111,0.1883,0.2989,0.4591,0.5359,0.6905,0.9285,0.9285,0.9733,1.0649,1.084,1.1134,1.1531,1.2226,1.2904,1.3573,1.3826,1.4846,1.6361,1.6264,1.6468,1.68,1.6167,1.4848,1.3729,1.5968,1.5666,1.4387,1.5542,1.5676,1.5393,1.5557,1.5463,1.5355,1.5696,1.6701,1.7677,1.7852,0.0,0.0,2.1827,2.3782,2.6071,2.8464,3.0433,3.2065,3.3023,3.4488,3.5701,3.5982,3.6627,3.7512,3.8444,3.8997,3.9429,3.9932,3.8738,3.7632,3.7048,3.59,3.5694,3.7102,3.6672,3.7077,3.8939,3.8284,3.8799,4.1069,4.0565,4.0912,4.2502,4.169,4.1401,4.1846,4.1354,4.0444,3.9101,3.9101,3.9101,3.9101,3.9272,4.0265,4.1806,4.0469,4.0293,4.0848,4.0245,4.0158,4.0367,4.0419,4.0466,4.0419,3.9746,3.9487,3.9471,0.0,0.0,0.0,0.0,0.0,0.0,0.0,0.0,0.0,0.0,0.0,0.0,0.0,-0.1829,-0.1488,-0.0625,-0.0637,-0.0268,0.0627,0.0803,0.1005,0.1169,0.1208,0.2421,0.4823,0.4941,0.6126,0.8536,0.8536,0.8714,0.898,0.9642,1.0194,1.074,1.2565,1.3543,1.3761,1.3151,1.4381,1.6698,1.5335,1.5638,1.674,1.5438,1.4032,1.2883,1.3922,1.3803,1.3267,1.4029,1.4038,1.3876,1.4532,1.4732,0.0,1.6061,1.7366,1.843,0.0,0.0,2.1649,2.4913,2.6362,2.7861,3.1158,3.2919,3.4196,3.5186,3.5654,3.5982,3.6243,3.6474,3.6957,3.7961,3.8623,3.9071,3.9185,3.7895,3.6746,3.6182,3.4168,3.3179,0.0,3.549,3.6646,3.7491,3.818,3.9111,4.035,4.0778,4.116,4.1632,4.1327,4.0867,4.0184,4.0207,3.9851,3.9101,3.9101,3.9101,3.9101,3.9357,4.0064,4.0995,4.0223,3.9996,4.0139,4.025,4.0367,4.0511,4.07,4.0668,4.0511,4.0472,4.0457,4.0487,0.0,0.0,0.0,0.0,0.0,0.0,0.0,0.0,0.0,0.0,0.0,0.0,0.0,0.0,0.0,0.0,-0.1179,-0.0967,-0.079,-0.0446,-0.0213,-0.0173,0.031,0.1075,0.2124,0.2634,0.3977,0.604,0.6125,0.6692,0.7923,0.8388,0.8824,0.9321,1.0968,1.226,1.2988,1.2246,1.2899,1.4405,1.4016,1.4194,1.4569,1.3802,1.2833,1.1955,0.0,1.2068,1.1998,1.2666,1.3071,1.3357,1.3793,1.395,1.4443,1.6586,1.773,1.8607,2.0051,0.0,2.4056,2.6041,2.8184,3.0517,3.2815,3.394,3.4375,3.4173,3.3706,3.315,3.2561,3.3275,3.4454,3.6002,3.7441,3.8574,3.9132,3.8474,3.7079,3.4905,3.4472,0.0,0.0,0.0,0.0,3.6559,3.7241,3.852,4.0765,4.1274,4.1651,4.2044,4.2059,4.1686,4.0905,4.0507,3.9908,3.9082,3.8652,3.8495,3.8609,3.9908,4.041,4.0299,4.0628,4.0509,4.0101,4.006,4.0232,4.0511,4.0466,4.0481,4.0511,4.0654,4.0621,4.0511,0.0,0.0,0.0,0.0,0.0,0.0,0.0,0.0,0.0,0.0,0.0,0.0,0.0,0.0,0.0,0.0,0.0,-0.1418,-0.1408,-0.1009,-0.0814,-0.0863,-0.0403,0.0124,0.0734,0.1443,0.2632,0.4372,0.44,0.4985,0.6218,0.6525,0.6991,0.763,0.895,1.0119,1.1049,1.0713,1.123,1.2267,1.2336,1.2519,1.2721,1.2227,1.1789,0.0,1.1092,1.1271,1.1653,1.2102,1.265,1.3166,1.3528,1.4092,1.4984,1.6975,1.8287,1.9621,2.1852,2.4178,2.6299,2.7973,3.0055,3.2003,3.3642,3.3764,3.3441,3.2793,3.1789,3.0926,3.0378,3.0806,3.1909,3.4021,3.5118,3.6253,3.7865,3.7096,3.6079,3.528,3.4967,3.4249,0.0,0.0,0.0,3.5647,3.7009,3.8713,4.0789,4.1666,4.2323,4.276,4.2875,4.229,4.0917,4.0566,3.9807,3.8674,3.8574,3.874,3.9207,4.0137,4.048,4.0385,4.0677,4.0534,4.0101,4.006,4.0213,4.0415,4.0383,4.0415,4.0526,4.0733,4.0713,4.0607,0.0,0.0,0.0,0.0,0.0,0.0,0.0,0.0,0.0,0.0,0.0,0.0,0.0,0.0,0.0,0.0,0.0,0.0,-0.13,-0.1002,-0.0823,-0.0851,-0.0859,-0.0401,0.067,0.1254,0.2197,0.3469,0.3353,0.3535,0.4028,0.4288,0.4839,0.5755,0.6718,0.7522,0.8161,0.8747,0.9526,1.0319,1.0334,1.0743,1.1314,1.0915,1.085,1.0962,1.0762,1.1282,1.2077,1.2329,1.2782,1.3318,1.3791,1.5018,1.6479,1.7365,1.9186,2.1379,2.3576,2.5887,2.8278,3.0732,3.1839,3.2543,3.3568,3.263,3.1464,3.1236,3.0099,2.9251,0.0,0.0,2.955,3.2088,3.2003,3.273,3.5814,3.4425,3.4191,0.0,0.0,0.0,0.0,0.0,0.0,3.4881,0.0,3.9665,4.0528,4.2068,4.3124,4.3526,4.3627,4.2562,4.02,4.0298,3.9528,3.7968,3.8891,3.9813,4.071,4.0099,4.0291,4.1105,4.0478,4.0157,4.0101,4.023,4.03,4.0334,4.0431,4.0511,4.0526,4.0733,4.079,4.079,0.0,0.0,0.0,0.0,0.0,0.0,0.0,0.0,0.0,0.0,0.0,0.0,0.0,0.0,0.0,0.0,0.0,0.0,-0.2259,-0.1635,-0.1236,-0.1248,-0.0972,-0.0713,-0.0372,-0.0275,0.0398,0.1763,0.1758,0.2339,0.3454,0.3766,0.4051,0.4246,0.5521,0.6538,0.7326,0.7847,0.8623,0.9486,0.9556,0.9926,1.0483,1.0356,1.0395,1.0561,1.0616,1.0878,0.0,0.0,0.0,0.0,0.0,1.5874,1.7756,1.9117,2.0857,2.2913,2.5792,2.7985,2.983,3.1514,3.2715,3.3284,3.257,3.1537,3.0237,2.8467,2.7033,2.5793,0.0,0.0,0.0,3.0685,3.3237,0.0,3.7528,3.8401,0.0,3.7594,0.0,3.7749,3.6422,3.7663,0.0,0.0,3.8291,3.9656,4.1325,4.2631,4.3169,4.2732,4.2207,4.1397,4.02,3.9676,3.9212,3.8804,3.9257,3.9571,3.9883,4.1137,4.1154,4.029,4.1358,4.1159,4.0101,4.002,4.0177,4.0431,4.0383,4.0515,4.0733,4.079,4.079,4.079,0.0,0.0,0.0,0.0,0.0,0.0,0.0,0.0,0.0,0.0,0.0,0.0,0.0,0.0,0.0,0.0,0.0,0.0,0.0,-0.1804,-0.1307,-0.1307,-0.0955,-0.0753,-0.0768,-0.0441,-0.01,0.0307,0.143,0.2318,0.3079,0.2897,0.3025,0.3377,0.4262,0.5067,0.5779,0.6178,0.691,0.0,0.0,0.9249,0.9739,0.988,1.0168,1.0516,1.0817,0.0,0.0,0.0,0.0,1.5808,1.6408,1.7685,1.9273,2.0652,0.0,2.4398,2.6408,2.8672,3.0645,3.1523,3.2348,3.2617,3.1087,2.9788,2.8326,2.6218,2.4886,0.0,0.0,0.0,0.0,0.0,0.0,0.0,3.6586,3.7809,3.8543,0.0,3.9112,0.0,3.7887,3.8646,3.917,0.0,3.964,4.0488,4.1615,4.2686,4.3006,4.2451,4.2105,4.1403,4.0306,3.95,3.9101,3.9101,3.9376,3.9502,3.9564,4.1142,4.1162,4.0006,4.1721,4.1537,4.0058,4.0479,4.052,4.0334,4.0367,4.0496,4.0668,4.0778,4.079,4.079,0.0,0.0,0.0,0.0,0.0,0.0,0.0,0.0,0.0,0.0,0.0,0.0,0.0,0.0,0.0,0.0,0.0,0.0,0.0,0.0,0.0,-0.1395,-0.0924,-0.0719,-0.0719,-0.0,-0.0,-0.0674,0.1443,0.256,0.2751,0.2062,0.2198,0.3055,0.3315,0.3705,0.4228,0.4626,0.5358,0.6411,0.7816,0.8708,0.9218,0.0,1.0059,0.0,0.0,0.0,0.0,0.0,1.53,1.6299,1.8328,1.9796,2.1108,2.2233,2.4054,2.5852,2.6614,2.8799,3.0974,3.1128,3.1462,3.1234,2.933,2.7682,2.6091,2.4356,0.0,2.2921,2.311,2.3602,2.4758,2.7057,0.0,3.0368,3.4731,3.5508,3.6904,4.0319,3.9629,3.9146,3.9802,3.9181,3.9215,4.0297,4.0902,4.1321,4.1595,4.2541,4.2864,4.24,4.2403,4.1716,4.0234,3.9472,3.9157,3.9296,3.9432,3.9583,3.9739,4.0726,4.0726,3.9987,4.1675,4.1464,3.9989,4.0979,4.0902,4.0158,4.0399,4.0511,4.0559,4.0746,4.079,4.079,0.0,0.0,0.0,0.0,0.0,0.0,0.0,0.0,0.0,0.0,-0.5683,-0.5246,0.0,0.0,0.0,0.0,0.0,0.0,0.0,0.0,0.0,0.0,-0.1295,-0.0719,-0.0719,-0.0584,-0.0494,-0.0448,-0.0045,0.0814,0.208,0.2499,0.2836,0.317,0.3424,0.4042,0.4858,0.5161,0.6208,0.7681,0.807,0.8799,0.96,0.967,0.0,0.0,0.0,0.0,0.0,0.0,1.6417,1.7998,1.8841,2.1031,2.3382,2.4331,2.5599,2.7013,2.8672,3.0024,3.0987,3.1155,3.1059,3.0353,2.7992,2.5834,0.0,0.0,2.2279,2.1858,2.264,2.4021,0.0,2.7866,0.0,0.0,0.0,0.0,3.8474,0.0,0.0,0.0,0.0,0.0,0.0,0.0,3.9859,4.0187,4.1523,4.2829,4.2953,4.1718,4.1104,4.0327,3.9342,3.9175,3.9537,4.0344,3.9764,3.9951,4.0745,4.1056,4.0726,3.9946,4.0994,0.0,3.9911,4.0233,4.031,4.0283,4.0431,4.0607,4.0746,4.079,4.079,4.079,0.0,0.0,0.0,0.0,0.0,0.0,0.0,-0.6642,-0.6698,-0.6938,-0.6666,-0.6372,-0.6101,-0.5582,-0.5176,0.0,0.0,0.0,0.0,0.0,0.0,0.0,0.0,0.0,0.0,-0.0807,-0.0493,-0.0403,0.0,0.0448,0.1655,0.2518,0.2955,0.3084,0.3289,0.3972,0.4924,0.5375,0.644,0.7931,0.8675,0.9266,0.0,0.0,0.0,0.0,0.0,0.0,0.0,0.0,1.5372,1.6306,1.8606,2.1263,2.3943,2.5734,2.6614,2.7378,2.9326,3.0367,3.0829,3.0568,3.0128,2.9119,2.6662,0.0,0.0,0.0,2.2186,2.2177,2.2616,0.0,0.0,0.0,0.0,0.0,0.0,0.0,0.0,0.0,0.0,0.0,0.0,0.0,0.0,0.0,4.0583,4.113,4.1071,4.1152,4.1102,4.0937,3.9751,3.9101,3.9101,3.9101,3.9388,3.9922,3.9639,3.9782,4.0335,4.0923,4.0726,3.9984,4.1749,4.1522,4.0006,4.1551,4.1723,4.1006,4.1215,4.1351,4.1371,4.0945,4.079,4.079,0.0,0.0,0.0,0.0,0.0,0.0,0.0,-0.7343,-0.7432,-0.7472,-0.747,-0.7414,-0.719,-0.6231,-0.5592,0.0,0.0,0.0,0.0,0.0,0.0,0.0,0.0,0.0,0.0,0.0,0.0,-0.0313,-0.009,0.0,0.0,0.0,0.0,0.0,0.317,0.3781,0.4778,0.5432,0.6459,0.0,0.0,0.9475,0.0,0.0,0.0,0.0,0.0,0.0,0.0,0.0,1.4093,1.4255,1.7668,2.07,2.3432,2.5865,2.6735,2.7421,2.929,3.04,3.0791,2.9898,2.9047,2.783,2.5574,2.3919,0.0,0.0,2.2153,2.2306,2.2634,0.0,0.0,0.0,0.0,0.0,0.0,0.0,0.0,0.0,0.0,0.0,0.0,0.0,0.0,0.0,4.0919,4.1758,4.1028,3.9583,3.9165,4.0085,3.8674,3.8191,3.8841,3.9008,3.9276,3.9612,3.9527,3.9768,4.0287,4.0719,4.0745,4.0536,4.2185,4.1958,4.0596,4.2718,4.2889,4.1888,4.1967,4.2009,4.1893,4.11,4.079,4.079,0.0,0.0,0.0,0.0,0.0,0.0,0.0,-0.7161,-0.7412,-0.7413,-0.7413,-0.7538,-0.7948,-0.6841,-0.5883,0.0,0.0,0.0,0.0,0.0,0.0,0.0,0.0,0.0,0.0,0.0,0.0,-0.0045,-0.0,0.0,0.0,0.0,0.0,0.0,0.0,0.3693,0.4565,0.5346,0.0,0.0,0.0,0.0,0.0,0.0,0.0,0.0,0.0,0.0,0.0,0.0,0.0,1.3887,1.592,1.8879,2.1909,2.3399,0.0,0.0,2.8649,3.0038,3.0839,2.9347,2.8096,2.6798,2.496,0.0,0.0,2.213,2.143,2.1032,2.2427,2.2977,2.3703,2.5226,2.6156,2.7561,0.0,0.0,0.0,0.0,0.0,0.0,0.0,0.0,0.0,0.0,3.9028,4.0179,4.2226,3.9512,3.8313,3.9194,3.8358,3.7931,3.8005,3.8729,3.9637,4.0647,3.9858,4.0438,4.2105,4.0666,4.0821,4.2109,4.0821,4.0991,0.0,4.1915,4.2216,4.2733,4.2198,4.2009,4.1893,4.11,4.079,4.079,0.0,0.0,0.0,0.0,0.0,0.0,-0.7409,-0.7461,-0.7646,-0.802,-0.7945,-0.7925,-0.8093,-0.7315,-0.6408,-0.5599,0.0,0.0,0.0,0.0,0.0,0.0,0.0,0.0,0.0,0.0,0.0,-0.085,-0.0269,0.0,0.0,0.0,0.0,0.0,0.0,0.3697,0.457,0.5351,0.0,0.0,0.0,0.0,0.0,0.0,0.0,0.0,0.0,0.0,0.0,0.0,0.0,0.0,1.4754,1.6337,0.0,0.0,2.3866,2.6141,2.8098,2.9584,3.0282,2.8686,2.7364,2.6031,2.4155,0.0,2.0915,2.2169,2.173,2.1453,2.2522,2.3074,2.3679,2.4592,2.4902,0.0,0.0,0.0,0.0,0.0,0.0,0.0,0.0,0.0,0.0,3.9331,3.8634,3.8818,4.0277,3.8303,3.7514,3.8339,3.7596,3.7411,3.7894,3.8692,3.9413,4.0015,3.9652,4.0005,4.0877,4.0192,4.0555,4.1654,4.0972,4.1351,0.0,4.291,4.3309,4.3615,4.3588,4.3247,4.2744,4.2415,4.1661,4.0868,0.0,0.0,0.0,0.0,0.0,-0.7545,-0.7557,-0.7584,-0.7718,-0.8012,-0.8029,-0.7975,-0.784,-0.7343,-0.6706,-0.5881,-0.5339,0.0,0.0,0.0,0.0,0.0,0.0,0.0,0.0,0.0,0.0,-0.1835,-0.0627,-0.0,0.0,0.0,0.2821,0.3306,0.0,0.0,0.0,0.0,0.0,0.0,0.0,0.0,0.0,0.0,0.0,0.0,0.0,0.0,0.0,0.0,0.0,0.0,0.0,0.0,0.0,0.0,2.2009,2.4226,2.6485,2.7917,2.8408,2.7093,2.5761,2.4417,0.0,0.0,2.0377,2.1572,2.1327,2.1253,2.2279,2.2905,2.3472,2.41,2.4295,2.5056,2.7163,0.0,0.0,0.0,0.0,0.0,0.0,0.0,0.0,3.8985,3.8,3.7627,3.821,3.7042,3.6816,3.7856,3.7113,3.7076,3.7894,3.8747,3.9272,3.9502,3.9551,3.9802,4.0268,4.0003,4.065,4.1901,4.1143,4.1711,0.0,4.3579,4.4038,4.4479,4.4573,4.4233,4.3653,4.3401,4.2396,4.1274,0.0,0.0,0.0,0.0,0.0,0.0,-0.7056,-0.7333,-0.7448,-0.7079,-0.7351,-0.7512,-0.7251,-0.6846,-0.6513,-0.6307,-0.5692,0.0,0.0,0.0,0.0,0.0,0.0,0.0,0.0,0.0,0.0,-0.2868,-0.0941,-0.0,-0.0,0.0045,0.1298,0.3581,0.0,0.0,0.0,0.0,0.0,0.0,0.0,0.0,0.0,0.0,0.0,0.0,0.0,0.0,0.0,0.0,0.0,0.0,0.0,0.0,0.0,0.0,1.998,2.1915,2.3674,2.4583,2.4883,2.4272,2.286,2.1622,0.0,0.0,1.905,2.0185,1.9843,1.9848,2.1598,2.218,2.2749,2.3828,2.4593,2.5394,2.6279,0.0,0.0,0.0,0.0,0.0,0.0,0.0,0.0,3.6976,3.6775,0.0,3.6723,3.5943,3.624,3.7838,3.7113,3.7076,3.7894,3.8827,3.9376,3.9483,3.9628,4.0216,4.1162,4.0309,4.1294,4.3531,4.101,4.1806,0.0,4.3445,4.3885,4.5342,4.4808,4.4601,4.4485,4.3614,4.2744,4.2106,0.0,0.0,0.0,0.0,0.0,0.0,0.0,-0.702,-0.7024,-0.7005,-0.6941,-0.6976,-0.7184,-0.7077,-0.7198,-0.7701,-0.6435,0.0,0.0,0.0,0.0,0.0,0.0,0.0,0.0,0.0,-0.2919,-0.2908,-0.2264,-0.1299,0.0045,0.17,0.2862,0.3581,0.3581,0.0,0.0,0.0,0.0,0.0,0.0,0.0,0.0,0.0,0.0,0.0,0.0,0.0,0.0,0.0,0.0,0.0,0.0,0.0,0.0,1.692,0.0,0.0,2.2047,2.3047,2.3536,2.2282,2.1751,2.1311,2.0388,1.951,1.9178,2.0192,1.9809,1.9675,2.0858,2.1277,2.2001,2.3719,2.4215,2.4775,0.0,0.0,0.0,0.0,0.0,0.0,0.0,0.0,3.6668,3.6604,3.6611,3.6599,3.6634,3.5899,3.598,3.7039,3.6816,3.7076,3.7894,3.8835,3.9376,3.9483,3.9647,3.9913,4.0309,4.0022,4.0688,4.192,4.0517,4.1162,4.3137,4.2336,4.3003,4.4517,4.4592,4.4601,4.4581,4.4291,4.3266,4.2048,0.0,0.0,0.0,0.0,0.0,0.0,0.0,-0.6768,-0.6842,-0.6915,-0.6725,-0.6717,-0.7166,-0.7077,-0.7132,-0.7581,-0.6632,0.0,0.0,0.0,0.0,0.0,0.0,0.0,0.0,-0.2797,-0.2693,-0.2891,-0.2182,-0.1075,0.0315,0.1791,0.2907,0.3581,0.3581,0.0,0.0,0.0,0.0,0.0,0.0,0.0,0.9503,0.0,0.0,0.0,0.0,0.0,0.0,0.0,0.0,0.0,0.0,0.0,0.0,0.0,1.779,1.9397,0.0,2.0669,2.1021,2.0238,2.0073,0.0,0.0,1.8908,1.8779,1.9441,1.9189,1.9174,2.0145,2.0689,2.1542,2.3202,2.401,2.4717,0.0,0.0,0.0,0.0,0.0,0.0,0.0,3.6336,3.6751,3.6463,3.6545,3.6626,3.6634,3.6196,3.6315,3.7132,3.7151,3.7549,3.842,3.9063,3.9433,3.9575,3.9717,3.9826,3.9889,3.9889,4.0385,4.1162,4.0268,4.1051,0.0,4.2317,4.3079,4.4613,4.4939,4.4989,4.4913,4.4959,4.3858,4.2386,0.0,0.0,0.0,0.0,0.0,0.0,0.0,-0.6533,-0.6781,-0.6781,-0.6621,-0.6673,-0.7107,-0.6807,-0.6504,-0.6315,0.0,0.0,0.0,0.0,0.0,0.0,0.0,0.0,0.0,-0.2646,-0.2312,-0.2779,-0.0897,0.027,0.0719,0.0854,0.1882,0.3626,0.3755,0.0,0.0,0.0,0.0,0.0,0.0,0.0,0.0,0.0,0.0,0.0,0.0,0.0,0.0,0.0,0.0,0.0,0.0,0.0,0.0,0.0,0.0,0.0,0.0,1.7821,0.0,0.0,0.0,0.0,0.0,1.8262,0.0,1.8151,1.8211,1.852,1.9577,2.0392,2.1301,2.2556,2.407,0.0,0.0,0.0,0.0,0.0,0.0,0.0,0.0,3.5659,3.6657,3.6602,3.6663,3.6686,3.6686,3.6686,3.7058,3.7856,3.7949,3.842,3.9279,3.9433,3.9575,3.9693,3.9826,3.9889,3.9889,3.9889,4.0347,0.0,4.0252,4.1366,4.3668,4.3063,4.3808,4.5342,4.5522,4.5514,4.54,4.5411,4.4338,4.3003,0.0,0.0,0.0,0.0,0.0,0.0,0.0,0.0,0.0,0.0,-0.6582,-0.6665,-0.6863,-0.6582,-0.6337,0.0,0.0,0.0,0.0,0.0,0.0,0.0,0.0,0.0,0.0,-0.2646,-0.1974,-0.1746,-0.0224,0.0584,0.0719,0.2239,0.3176,0.3667,0.5106,0.0,0.0,0.0,0.0,0.0,0.0,0.0,0.0,0.0,0.0,0.0,1.1183,1.2125,0.0,0.0,0.0,0.0,0.0,0.0,0.0,0.0,1.6596,1.6937,1.7221,0.0,1.7327,1.7539,1.7584,1.7705,0.0,1.8102,1.813,1.819,0.0,0.0,2.0197,2.0213,2.0965,2.388,2.4613,0.0,0.0,0.0,0.0,0.0,0.0,0.0,0.0,3.7071,3.8108,3.7526,3.7005,3.6686,3.6686,3.6686,3.7058,3.7856,3.8596,3.9085,3.9298,3.9532,3.967,3.9693,3.9826,3.9889,3.9889,3.9889,4.0003,4.0173,3.9984,4.0701,4.197,4.1932,4.2887,4.4364,4.392,4.441,4.5247,4.4017,4.3269,4.2844,0.0,0.0,0.0,0.0,0.0,0.0,0.0,0.0,0.0,0.0,0.0,-0.6604,-0.6945,-0.6582,0.0,0.0,0.0,0.0,0.0,0.0,0.0,0.0,0.0,0.0,-0.2977,-0.2176,-0.167,-0.1389,0.0894,0.1569,0.072,0.1836,0.3346,0.5221,0.6221,0.0,0.0,0.0,0.0,0.0,0.8207,0.0,0.0,0.0,0.0,0.0,1.0927,1.1865,0.0,1.3511,1.398,1.4465,0.0,0.0,0.0,0.0,1.6543,1.6841,1.7034,1.7134,1.7232,1.7408,1.7595,1.7794,1.7988,0.0,0.0,0.0,0.0,0.0,0.0,0.0,0.0,0.0,2.4608,0.0,0.0,0.0,0.0,0.0,0.0,0.0,0.0,3.793,3.8635,3.785,3.745,3.7076,3.6705,3.6686,3.711,3.7962,3.8539,3.9027,3.9401,3.9599,3.9717,3.9804,3.9935,3.9956,3.9911,3.9956,3.9956,3.9889,3.9889,4.0515,4.1532,4.1989,4.2945,4.4077,4.3859,4.4359,4.5025,4.3924,4.3426,4.3216,0.0,0.0,0.0,0.0,0.0,0.0,0.0,0.0,0.0,0.0,0.0,0.0,0.0,0.0,0.0,0.0,0.0,0.0,0.0,0.0,0.0,0.0,0.0,-0.3156,-0.2011,-0.162,-0.1299,-0.1075,0.1784,0.2506,0.1259,0.1284,0.3345,0.7011,0.6914,0.7041,0.0,0.0,0.0,0.0,0.7698,0.0,0.0,0.0,0.0,0.0,0.0,0.0,0.0,1.337,1.4017,1.4578,1.5133,0.0,0.0,0.0,0.0,0.0,1.7002,1.7158,1.7368,1.7572,1.7749,1.7922,1.8151,0.0,0.0,0.0,0.0,0.0,0.0,0.0,0.0,0.0,0.0,0.0,0.0,0.0,0.0,0.0,0.0,0.0,3.6946,3.8083,3.8507,3.7692,3.77,3.7355,3.6556,3.6519,3.6894,3.7692,3.8102,3.8643,3.9339,3.9595,3.9804,3.9914,4.006,4.004,3.9935,4.006,4.002,3.9889,3.9889,0.0,4.166,4.2389,4.3271,4.4132,4.4172,4.4496,4.4881,4.4211,4.3923,4.3729,0.0,0.0,0.0,0.0,0.0,0.0,0.0,0.0,0.0,0.0,0.0,0.0,0.0,0.0,0.0,0.0,0.0,0.0,0.0,0.0,0.0,0.0,-0.4079,-0.3018,-0.1545,-0.1458,-0.0807,0.0359,0.0898,0.2057,0.3741,0.3345,0.4577,0.707,0.6535,0.6777,0.7588,0.8378,0.8397,0.7951,0.8513,0.0,0.0,0.0,0.0,0.0,0.0,0.0,0.0,1.3245,1.3977,1.4825,1.5314,0.0,0.0,0.0,0.0,0.0,1.6815,1.7076,1.7392,1.7755,1.7749,1.7726,1.8108,0.0,0.0,0.0,0.0,0.0,0.0,0.0,0.0,0.0,0.0,0.0,0.0,0.0,0.0,0.0,0.0,3.62,3.4483,3.6537,3.7655,3.692,3.6872,3.6519,3.572,3.5665,3.5795,3.5992,3.7502,3.8409,3.8652,3.9463,3.9935,4.0061,4.0081,4.0081,4.0061,4.0081,4.002,3.9889,0.0,4.0537,4.1602,4.1737,4.2768,4.4138,4.2761,4.3494,4.513,4.3522,4.3426,4.3962,0.0,0.0,0.0,0.0,0.0,0.0,0.0,0.0,0.0,0.0,0.0,0.0,0.0,0.0,0.0,0.0,0.0,0.0,0.0,0.0,0.0,-0.4971,-0.3382,-0.208,-0.1241,-0.0598,0.0045,0.0719,0.1878,0.2946,0.3972,0.5465,0.6531,0.7241,0.7556,0.7902,0.823,0.8765,0.8821,0.8527,0.0,0.0,0.0,0.0,0.0,0.0,0.0,0.0,0.0,0.0,1.3827,1.4584,1.5286,0.0,0.0,0.0,0.0,0.0,1.6901,1.7068,1.7281,1.7658,1.7658,1.7681,1.7966,0.0,0.0,0.0,0.0,0.0,0.0,0.0,0.0,0.0,0.0,0.0,0.0,0.0,0.0,0.0,0.0,3.5292,3.496,3.6316,3.6883,3.611,3.6036,3.5665,3.4829,3.4791,3.5075,3.5675,3.6512,3.7269,3.7894,3.8809,3.954,4.0101,4.0157,4.0212,4.0212,4.0283,4.0194,4.0038,0.0,4.1131,4.1641,4.2187,4.3159,4.419,4.3038,4.3782,4.5359,4.4568,4.4226,4.417,0.0,0.0,0.0,0.0,0.0,0.0,0.0,0.0,0.0,0.0,0.0,0.0,0.0,0.0,0.0,0.0,0.0,0.0,0.0,0.0,-0.4762,-0.4184,-0.2366,-0.1179,-0.0691,0.021,0.0944,0.1391,0.3558,0.4657,0.4739,0.6952,0.7968,0.7903,0.8907,0.9199,0.8967,0.9188,0.9217,0.9096,0.0,0.0,0.0,0.0,0.0,0.0,0.0,0.0,0.0,0.0,0.0,0.0,0.0,0.0,0.0,1.6022,1.6255,1.6453,1.6903,1.7059,1.7166,1.7472,0.0,1.7646,1.8059,0.0,0.0,0.0,0.0,0.0,0.0,0.0,0.0,0.0,0.0,0.0,0.0,0.0,3.1953,3.3087,3.3872,3.4666,3.5514,3.6102,3.6073,3.5256,3.5367,3.5132,3.4282,3.4245,3.4643,3.5528,3.5757,3.6257,3.7106,3.8,3.8917,3.9871,4.0363,4.0509,4.0351,4.0658,4.0658,4.0444,4.1244,4.1717,4.1948,4.256,4.3416,4.4276,4.3361,4.3931,4.5305,4.5553,4.5198,4.4636,0.0,0.0,0.0,0.0,0.0,0.0,0.0,0.0,0.0,0.0,0.0,0.0,0.0,0.0,0.0,0.0,0.0,0.0,0.0,0.0,-0.4005,-0.1744,-0.1478,-0.0802,0.053,0.067,0.1569,0.3401,0.5647,0.7182,0.7931,0.7377,0.7961,0.9556,1.0133,1.0136,0.974,0.9998,0.9745,0.9219,0.9622,0.0,0.0,0.0,0.0,0.0,0.0,0.0,0.0,0.0,0.0,0.0,0.0,0.0,1.4147,1.517,1.5575,1.5851,1.6614,1.6949,1.7141,1.7272,1.732,0.0,1.8687,1.9488,0.0,2.1231,0.0,0.0,0.0,0.0,0.0,0.0,0.0,0.0,0.0,0.0,3.3973,3.3364,3.4549,3.5101,3.4414,3.5107,3.5219,3.4364,3.5033,3.5157,3.4419,3.4404,3.4555,3.4843,3.56,3.6096,3.6272,3.7205,3.8172,3.9188,4.0758,4.1135,4.0515,4.1339,4.156,4.1321,4.1512,4.2063,4.2753,4.2159,4.2941,4.4413,4.2744,4.3098,4.4684,4.549,4.5718,4.5619,0.0,0.0,0.0,0.0,0.0,0.0,0.0,0.0,0.0,0.0,0.0,0.0,0.0,0.0,0.0,0.0,0.0,0.0,0.0,0.0,-0.3917,-0.1523,-0.0583,0.0135,0.0674,0.0719,0.1658,0.3581,0.5862,0.6888,0.6706,0.8569,0.9208,0.8902,1.0424,1.1015,1.0873,1.0887,1.0614,1.0159,0.9848,0.9863,0.0,0.0,0.0,0.0,0.0,0.0,0.0,0.0,1.2717,1.3193,1.3595,1.389,1.4307,1.5407,1.5439,1.5452,1.6767,1.684,1.6628,1.7061,1.724,0.0,0.0,1.9631,2.0465,2.1428,2.2556,0.0,0.0,0.0,0.0,0.0,0.0,0.0,3.122,3.1954,3.252,3.271,3.3018,3.3064,3.273,3.3454,3.3807,3.3473,3.3841,3.4172,3.4386,3.3967,3.4038,3.4769,3.509,3.5302,3.5382,3.6368,3.7082,3.7555,3.877,3.9548,3.9889,4.0217,4.0834,4.1694,4.236,4.3108,4.3814,4.3616,4.4249,4.5278,4.4673,4.4511,4.4737,4.5653,4.5929,4.5822,0.0,0.0,0.0,0.0,0.0,0.0,0.0,0.0,0.0,0.0,0.0,0.0,0.0,0.0,0.0,0.0,0.0,0.0,0.0,-0.4319,-0.3558,-0.0851,0.018,0.0988,0.1614,0.1744,0.2502,0.3843,0.5947,0.6846,0.6579,0.8947,0.9737,0.9182,1.0781,1.17,1.197,1.1678,1.1443,1.1216,1.0579,1.0504,0.0,0.0,0.0,0.0,0.0,0.0,0.0,0.0,1.2501,1.284,1.3198,1.3544,1.4069,1.5334,1.5174,1.4984,1.6811,1.6739,1.6308,0.0,0.0,0.0,1.9505,2.0372,2.1216,2.2444,2.3542,0.0,0.0,0.0,0.0,0.0,2.8847,3.014,3.0777,3.1064,3.1443,3.2044,3.1948,3.1782,3.1782,3.2284,3.2641,3.2687,3.2773,3.3082,3.3711,3.3269,3.3314,3.4017,3.4055,3.4055,3.4112,3.488,3.5449,3.581,3.6529,3.7655,3.9088,3.9359,4.0043,4.1031,4.2052,4.3076,4.3994,4.4134,4.4678,4.5446,4.5764,4.5568,4.5196,4.5852,4.6027,4.5902,0.0,0.0,0.0,0.0,0.0,0.0,0.0,0.0,0.0,0.0,0.0,0.0,0.0,0.0,0.0,0.0,0.0,0.0,0.0,-0.383,-0.2752,0.0539,0.0719,0.1614,0.3578,0.41,0.436,0.4316,0.6118,0.7482,0.8357,0.8357,0.9262,1.0954,1.1367,1.209,1.2998,1.2395,1.2201,1.2303,1.2043,1.1633,1.1256,0.0,0.0,0.0,0.0,0.0,0.0,0.0,1.2003,1.2479,1.2352,1.2537,1.3132,1.4804,1.4624,1.439,1.668,1.6668,1.6254,0.0,0.0,0.0,2.1189,2.2013,2.2901,2.4649,0.0,2.5409,2.5419,0.0,0.0,2.6845,2.8177,2.9218,2.9629,3.0539,3.1258,3.1434,3.1631,3.1764,3.1786,3.1764,3.1868,3.1974,3.1995,3.2079,3.2298,3.2279,3.2317,3.2406,3.2406,3.2406,3.2406,3.2669,3.3226,3.4103,3.4311,3.5723,3.8218,3.9069,3.9374,3.9264,4.0333,4.1652,4.3111,4.325,4.3827,4.4678,4.5551,4.5953,4.6007,4.6075,4.6066,4.588,0.0,0.0,0.0,0.0,0.0,0.0,0.0,0.0,0.0,0.0,0.0,0.0,0.0,0.0,0.0,0.0,0.0,0.0,0.0,-0.0816,-0.043,0.0671,0.2016,0.3173,0.4056,0.6723,0.7487,0.6209,0.8005,0.9767,1.1387,1.1746,1.2424,1.336,1.3175,1.3591,1.4383,1.3906,1.3656,1.3558,1.3532,1.3287,1.2957,0.0,0.0,0.0,0.0,0.0,0.0,0.0,0.0,0.0,1.263,1.2815,1.3231,1.4329,1.415,1.4049,1.6324,1.6349,0.0,0.0,0.0,0.0,0.0,2.239,0.0,0.0,0.0,2.5495,2.6249,0.0,0.0,2.6934,2.7843,2.853,2.8756,2.8717,2.8712,2.8874,2.9077,2.9223,2.9341,3.0367,3.108,3.1219,3.126,3.16,3.226,3.1806,3.1784,3.2387,3.2406,3.2441,3.2542,3.2699,3.2947,3.3276,3.4025,3.5414,3.729,3.7541,3.8322,3.9438,3.9753,4.0817,4.2419,4.3697,4.4369,4.4678,4.5551,4.5572,4.5161,4.5803,4.6017,4.588,0.0,0.0,0.0,0.0,0.0,0.0,0.0,0.0,0.0,0.0,0.0,0.0,0.0,0.0,0.0,0.0,0.0,0.0,0.0,0.0,0.1423,0.1485,0.2847,0.4144,0.5351,0.8842,1.0454,1.0095,1.0166,1.1105,1.2908,1.3207,1.3828,1.4727,1.3785,1.4063,1.5181,1.4473,1.4252,1.4407,1.4567,1.4397,1.4017,0.0,0.0,0.0,0.0,0.0,0.0,0.0,0.0,0.0,1.2946,1.3139,1.3463,1.4313,1.3973,1.3802,1.6082,1.6055,0.0,0.0,0.0,0.0,0.0,0.0,0.0,0.0,0.0,2.596,2.6657,2.657,0.0,2.6942,2.7209,2.7528,2.8001,2.7583,2.727,2.7421,2.7563,2.768,2.7774,2.9008,2.9851,2.9983,3.032,3.0751,3.1316,3.0932,3.0909,3.1402,3.1421,3.1471,3.16,3.1752,3.2013,3.2428,3.3051,3.4079,3.5433,3.6439,3.7464,3.8528,3.9572,4.0771,4.2106,4.3518,4.4291,4.4639,4.5207,4.5343,4.5278,4.5852,4.6017,4.588,0.0,0.0,0.0,0.0,0.0,0.0,0.0,0.0,0.0,0.0,0.0,0.0,0.0,0.0,0.0,0.0,0.0,0.0,0.0,0.0,0.258,0.2746,0.3494,0.5038,0.7419,1.0331,1.2833,1.4856,1.246,1.197,1.3323,1.3357,1.4065,1.5239,1.3684,1.3962,1.5594,1.4486,1.4368,1.4989,1.5294,1.5173,1.4763,1.4207,0.0,0.0,0.0,0.0,0.0,0.0,0.0,0.0,1.3312,1.3479,1.3764,1.4519,1.4076,1.3816,1.5896,0.0,0.0,0.0,0.0,0.0,0.0,0.0,0.0,2.6173,0.0,2.6546,2.6694,2.6223,2.605,2.6764,2.6451,2.641,2.7273,2.6863,2.6554,2.6674,2.6804,2.6896,2.6933,2.7752,2.8366,2.8487,2.9166,2.9652,2.9775,2.9734,2.9753,2.9905,2.9845,2.9908,3.0138,3.0253,3.0739,3.1603,3.1737,3.2212,3.3063,3.5549,3.6767,3.7038,3.9572,4.1139,4.1951,4.2821,4.3711,4.4498,4.4652,4.5181,4.5899,4.6036,4.6056,4.5869,0.0,0.0,0.0,0.0,0.0,0.0,0.0,0.0,0.0,0.0,0.0,0.0,0.0,0.0,0.0,0.0,0.0,0.0,0.0,0.0,0.1607,0.3043,0.5141,0.7773,1.0918,1.0186,1.1602,1.5359,1.441,1.4071,1.431,1.4686,1.5027,1.5285,1.5242,1.5532,1.6067,1.5788,1.5878,1.6202,1.6281,1.6384,1.6346,1.514,1.4675,0.0,0.0,0.0,0.0,0.0,0.0,0.0,1.3756,1.3803,1.3826,1.415,1.443,1.4846,1.5886,1.6396,0.0,0.0,0.0,0.0,0.0,0.0,0.0,2.4857,2.5314,2.5853,2.5992,2.59,2.5854,2.6032,2.6074,2.6013,2.5739,2.5733,2.5579,2.5145,2.5714,2.6174,2.6293,2.7062,2.7601,2.7733,2.79,2.8278,2.8922,2.8407,2.8698,3.0026,2.9503,2.9558,3.034,3.0352,3.0524,3.0839,3.1497,3.1913,3.2145,3.406,3.5665,3.7019,3.8934,4.0268,4.1119,4.1932,4.2783,4.3647,4.442,4.4799,4.5056,4.5763,4.5986,4.5801,0.0,0.0,0.0,0.0,0.0,0.0,0.0,0.0,0.0,0.0,0.0,0.0,0.0,0.0,0.0,0.0,0.0,0.0,0.0,0.0,0.0,0.5899,0.7282,0.9287,1.2084,1.2374,1.3318,1.4959,1.5155,0.0,0.0,0.0,0.0,1.5374,0.0,1.5664,1.6313,1.604,1.6245,1.6709,1.5775,1.5489,1.5517,1.4652,1.4095,1.3745,1.3562,0.0,0.0,0.0,0.0,0.0,0.0,0.0,1.3966,1.4068,1.4267,1.4677,0.0,0.0,0.0,0.0,0.0,0.0,0.0,0.0,0.0,2.3968,2.4799,2.5533,2.5312,2.5338,2.5368,2.5368,2.5253,2.5236,2.5283,2.5171,2.4945,2.4636,2.5067,2.5408,2.5473,2.6254,2.6824,2.6925,2.7319,2.7733,2.8193,2.7866,2.8045,2.8905,2.8575,2.8641,2.9203,2.9589,2.9843,2.9998,3.083,3.1429,3.1874,3.404,3.5936,3.7599,3.8914,3.9978,4.0829,4.1255,4.1912,4.2738,4.3294,4.3984,4.4773,4.5218,4.5595,4.5828,0.0,0.0,0.0,0.0,0.0,0.0,0.0,0.0,0.0,0.0,0.0,0.0,0.0,0.0,0.0,0.0,0.0,0.0,0.0,0.0,0.0,0.0,0.9434,1.0654,1.2845,1.4937,1.558,1.4704,0.0,0.0,0.0,0.0,0.0,1.5681,0.0,1.5595,1.656,1.6076,1.6136,1.6353,1.4788,1.4181,1.4174,1.3834,1.3546,1.3504,1.4697,1.4704,1.4168,1.4177,0.0,0.0,0.0,0.0,1.4374,1.4392,1.4409,1.4648,0.0,0.0,0.0,0.0,0.0,0.0,0.0,0.0,0.0,2.332,2.4373,2.5113,2.4658,2.4671,2.4743,2.4743,2.4438,2.445,2.5112,2.4871,2.4629,2.4629,2.4753,2.4842,2.4842,2.5537,2.6005,2.6079,2.6759,2.7256,2.7489,2.7359,2.7416,2.7723,2.7612,2.7657,2.7913,2.8588,2.8965,2.9089,2.9959,3.0714,3.1449,3.3905,3.6033,3.7831,3.8837,3.9765,4.0578,4.0732,4.1177,4.1828,4.208,4.3012,4.4245,4.443,4.4971,4.5648,0.0,0.0,0.0,0.0,0.0,0.0,0.0,0.0,0.0,0.0,0.0,0.0,0.0,0.0,0.0,0.0,0.0,0.0,0.8673,0.0,0.0,0.9081,1.0828,1.2984,1.561,1.5344,1.5415,1.5955,0.0,0.0,0.0,0.0,0.0,1.6448,0.0,0.0,1.6952,1.7035,1.6077,1.4483,1.44,1.4501,1.4623,1.3963,1.498,1.6623,1.563,1.525,1.5121,1.4623,1.4362,0.0,0.0,0.0,1.5502,1.5564,1.601,1.652,0.0,0.0,0.0,0.0,0.0,0.0,0.0,0.0,0.0,0.0,2.3379,2.3981,2.4076,2.4119,2.4119,2.4119,2.4209,2.432,2.4431,2.4631,2.4764,2.4764,2.4889,2.4964,2.4964,2.5091,2.5202,2.5253,2.5367,2.5798,2.6619,2.6004,2.6314,2.7834,2.72,2.7207,2.7978,2.8094,2.8152,2.8189,2.905,2.9534,2.9689,3.1507,3.3673,3.611,3.7696,3.8876,3.9739,4.0481,4.0848,4.1035,4.1803,4.2199,4.246,4.3257,4.4078,4.4672,0.0,0.0,0.0,0.0,0.0,0.0,0.0,0.0,0.0,0.0,0.0,0.0,0.0,0.0,0.0,0.9616,0.9216,0.9517,1.0908,1.0766,1.0753,1.1045,1.2234,1.3597,1.5152,1.5356,1.5658,0.0,0.0,0.0,0.0,1.6926,1.6926,0.0,0.0,0.0,0.0,0.0,1.7117,1.6411,1.5263,1.4893,0.0,0.0,0.0,1.5806,1.6588,1.63,1.5608,1.577,1.5221,1.466,1.6078,0.0,0.0,0.0,1.6581,0.0,1.6158,0.0,0.0,0.0,0.0,0.0,0.0,0.0,2.1948,2.2117,2.241,2.2902,2.3832,2.4075,2.4115,2.4115,2.4302,2.4459,2.4459,2.4279,2.4299,2.4756,2.4501,2.4473,2.5,2.507,2.5094,2.5203,2.5203,2.5437,2.5909,2.5608,2.576,2.6524,2.621,2.6207,2.6594,2.7058,2.7522,2.8014,2.8876,2.9302,2.934,3.0578,3.2532,3.5027,3.6265,3.7854,3.9572,3.9925,4.0374,4.0895,4.1244,4.1648,4.211,4.2521,4.3182,4.3827,0.0,0.0,0.0,0.0,0.0,0.0,0.0,0.0,0.0,0.0,0.0,0.0,0.0,0.0,0.0,0.0,1.161,1.2,1.2607,1.2332,1.24,1.3003,1.3328,1.3802,1.444,1.53,0.0,0.0,0.0,0.0,1.7207,1.7585,1.7608,0.0,1.7304,0.0,0.0,0.0,0.0,1.7451,1.5857,0.0,0.0,0.0,0.0,0.0,0.0,0.0,0.0,0.0,1.6189,1.5496,1.7053,1.7138,0.0,0.0,0.0,0.0,0.0,0.0,0.0,0.0,0.0,0.0,0.0,0.0,2.1314,0.0,2.167,2.2185,2.329,2.3566,2.3657,2.3656,2.4014,2.4329,2.4345,2.411,2.4176,2.478,2.416,2.3974,2.4688,2.4586,2.4514,2.4648,2.4869,2.5059,2.5155,2.5376,2.5511,2.5511,2.5511,2.5511,2.5511,2.6102,2.6729,2.7368,2.8238,2.876,2.8992,2.9863,3.1545,3.3789,3.4891,3.6723,3.8924,3.9116,3.9719,4.0538,4.0488,4.099,4.1773,4.1773,4.2279,4.2937,0.0,0.0,0.0,0.0,0.0,0.0,0.0,0.0,0.0,0.0,0.0,0.0,0.0,1.1889,1.2186,1.2221,1.2653,1.2965,1.3066,1.3048,1.3395,1.4185,1.3927,0.0,1.4567,1.5196,0.0,0.0,0.0,0.0,1.7771,1.8238,1.8336,1.8146,1.8146,1.8149,1.8194,0.0,0.0,0.0,0.0,0.0,0.0,0.0,0.0,0.0,0.0,0.0,0.0,0.0,0.0,0.0,0.0,0.0,0.0,0.0,0.0,0.0,0.0,0.0,0.0,0.0,0.0,0.0,0.0,0.0,0.0,2.0657,2.138,2.1999,2.2092,2.211,2.2142,2.22,2.2978,2.3573,2.3644,2.4388,2.494,2.4977,2.4219,2.3746,2.3857,2.3183,2.2783,2.2917,2.3704,2.4201,2.4273,2.5047,2.5511,2.5511,2.5511,2.5511,2.5511,2.555,2.5588,2.5646,2.645,2.7271,2.8111,2.8973,3.0308,3.2029,3.3731,3.5452,3.7108,3.7994,3.8836,3.9576,3.9564,4.0095,4.088,4.088,4.1371,4.1951,0.0,0.0,0.0,0.0,0.0,0.0,0.0,0.0,0.0,0.0,0.0,0.0,0.0,1.3296,1.333,1.3207,1.3461,1.3606,1.3487,1.3611,1.3789,1.402,1.4042,1.4299,1.4848,1.554,0.0,0.0,0.0,1.7186,1.5332,1.7447,1.8492,1.8587,1.8491,1.8491,1.8587,1.8734,0.0,0.0,0.0,0.0,0.0,0.0,0.0,0.0,0.0,0.0,0.0,0.0,0.0,0.0,0.0,0.0,0.0,0.0,0.0,0.0,0.0,0.0,0.0,0.0,0.0,0.0,0.0,1.9193,1.9952,1.9952,2.0222,2.0455,2.0455,2.1336,2.207,2.21,2.2459,2.2744,2.2771,2.3139,2.3405,2.3405,2.3151,2.3031,2.308,2.2863,2.2765,2.2856,2.3674,2.4173,2.4196,2.5027,2.5511,2.5511,2.5511,2.5511,2.5511,2.5511,2.5511,2.5511,2.6315,2.7155,2.8034,2.8896,3.0211,3.1874,3.3054,3.4545,3.6193,3.7094,3.8297,3.9558,3.9508,4.004,4.0792,4.0796,4.0984,4.1177,0.0,0.0,0.0,0.0,0.0,0.0,0.0,0.0,0.0,0.0,0.0,0.0,0.0,0.0,1.4111,1.4028,1.4161,1.4186,1.4041,1.4217,1.4294,1.421,1.463,1.4958,1.5163,1.6005,0.0,0.0,0.0,0.0,0.0,1.6965,1.7984,1.8806,1.7983,1.8125,0.0,0.0,0.0,1.9277,0.0,0.0,1.9582,0.0,0.0,0.0,0.0,0.0,0.0,0.0,0.0,0.0,0.0,0.0,0.0,0.0,0.0,0.0,0.0,0.0,0.0,0.0,0.0,0.0,0.0,0.0,1.9647,1.9597,1.9602,1.9615,1.9625,2.0569,2.134,2.134,2.1655,2.1916,2.1928,2.2262,2.259,2.2874,2.2471,2.2293,2.2671,2.2256,2.2003,2.2061,2.2861,2.348,2.3751,2.4583,2.5201,2.5492,2.5511,2.5511,2.5511,2.5511,2.5511,2.5511,2.6044,2.6904,2.8014,2.8623,2.9803,3.1449,3.2329,3.3684,3.5321,3.6203,3.7405,3.8685,3.8674,3.9187,3.9921,3.9932,4.0113,4.0346,0.0,0.0,0.0,0.0,0.0,0.0,0.0,0.0,0.0,0.0,0.0,0.0,0.0,0.0,0.0,1.4688,1.4717,1.4717,1.4717,1.4895,1.4949,1.4841,1.5707,1.5981,1.5564,1.6651,1.7162,0.0,0.0,0.0,0.0,0.0,1.6963,1.8733,1.6716,1.7128,1.9319,0.0,1.9409,1.9438,0.0,1.9713,1.972,0.0,0.0,0.0,2.0158,2.0237,0.0,2.0316,0.0,0.0,0.0,0.0,0.0,0.0,0.0,0.0,0.0,0.0,0.0,0.0,0.0,0.0,1.7394,0.0,1.9744,1.962,1.9597,1.9625,1.9686,1.9751,1.9807,1.9807,2.0521,2.1091,2.1157,2.1907,2.2741,2.3499,2.2243,2.1663,2.2585,2.1227,2.0345,2.0437,2.1217,2.2056,2.2861,2.3751,2.4621,2.5472,2.5511,2.5511,2.5511,2.5511,2.5511,2.5511,2.5492,2.6362,2.7976,2.8036,2.8985,3.0626,3.1546,3.2857,3.4399,3.5282,3.6144,3.6864,3.6957,3.7489,3.8199,3.8199,3.874,3.9507,0.0,0.0,0.0,0.0,0.0,0.0,1.4598,1.4607,0.0,0.0,0.0,0.0,0.0,0.0,1.4876,1.4976,1.4944,1.4911,1.4911,1.4968,1.5218,1.5706,1.5997,1.633,1.6716,1.7609,1.5428,0.0,0.0,0.0,0.0,0.0,0.0,0.0,1.8074,1.8951,1.9577,1.9513,0.0,0.0,1.9781,1.9877,0.0,0.0,0.0,0.0,0.0,2.0422,2.0519,0.0,2.0522,2.0525,0.0,0.0,0.0,0.0,0.0,0.0,1.8575,0.0,0.0,0.0,0.0,0.0,0.0,0.0,0.0,1.97,1.9862,1.9885,1.9855,1.9939,2.0029,2.0029,2.0186,2.0312,2.0334,2.1036,2.1438,2.1124,2.1253,2.1483,2.1803,2.0942,2.0637,0.0,2.1553,2.2056,2.2861,2.4312,2.526,2.5492,2.5511,2.5511,2.5511,2.5511,2.5511,2.5511,2.5503,2.6079,2.7125,2.7161,2.8099,2.978,3.0676,3.1643,3.2705,3.4204,3.5321,3.6102,3.6744,3.7489,3.8199,3.8199,3.874,3.9507,0.0,0.0,0.0,0.0,0.0,1.5138,1.5913,1.5431,1.5177,0.0,0.0,0.0,0.0,0.0,0.0,1.6476,1.567,1.5247,1.5521,1.5571,1.5754,1.6165,1.6791,1.7338,1.7767,1.8595,1.687,1.2512,1.752,1.9991,2.0041,1.8945,0.0,0.0,0.0,0.0,0.0,0.0,0.0,0.0,1.9952,0.0,0.0,2.0195,2.0299,0.0,0.0,0.0,2.0605,2.0607,2.0591,0.0,0.0,0.0,0.0,0.0,0.0,0.0,0.0,0.0,0.0,0.0,0.0,0.0,1.7477,1.7543,1.7858,0.0,1.752,1.7444,1.9602,1.9173,1.8866,1.9972,2.0117,2.0078,2.0078,2.0497,2.0746,2.0642,2.0821,2.1084,2.1471,2.0829,2.0753,2.163,2.1707,2.221,2.3383,2.4757,2.5511,2.5511,2.5511,2.5511,2.5511,2.5511,2.5499,2.5495,2.5505,2.5964,2.6812,2.7219,2.8119,2.9447,3.0315,3.0948,3.1482,3.3234,3.442,3.525,3.6123,3.6742,3.7154,3.7154,3.7928,3.8965,0.0,0.0,1.5662,1.6559,1.5926,1.5905,1.7631,1.6546,1.595,0.0,0.0,0.0,0.0,0.0,0.0,0.0,1.6681,1.5824,1.643,1.6512,1.6558,1.6613,1.7918,1.8697,1.8792,1.9551,1.9941,1.9941,2.0115,2.0142,2.0003,1.785,1.7949,1.9848,0.0,0.0,0.0,0.0,0.0,1.9696,2.0063,2.0219,0.0,0.0,2.0366,2.0437,2.0487,2.0531,2.0591,2.0597,2.0599,0.0,0.0,0.0,0.0,0.0,1.9445,0.0,0.0,0.0,0.0,0.0,0.0,0.0,1.6234,1.6221,1.6699,0.0,1.4801,1.4627,1.9266,1.8291,1.7516,1.9841,2.0214,2.0233,2.0197,2.0197,2.0466,2.1194,2.0708,2.0612,2.144,2.0836,2.0811,2.1765,2.192,2.2636,2.4118,2.5027,2.5511,2.5511,2.5511,2.5511,2.5511,2.5492,2.5495,2.5499,2.5506,2.5926,2.6708,2.7546,2.8421,2.9305,3.0094,3.0497,3.0754,3.2383,3.3529,3.435,3.5317,3.5695,3.5695,3.5695,3.6701,3.8086,0.0,0.0,1.5662,1.6559,1.5977,1.5971,1.7702,1.7633,0.0,0.0,0.0,0.0,0.0,0.0,0.0,0.0,1.7553,1.7363,1.7503,1.7526,1.7821,1.8519,1.8847,1.931,1.9953,2.0123,2.0212,2.0222,2.026,2.0283,2.0302,1.9782,1.9779,2.0192,0.0,0.0,0.0,0.0,0.0,1.832,1.9728,0.0,2.0361,2.0441,2.049,2.0558,2.0584,2.0558,2.0527,2.0523,2.0516,2.0515,0.0,0.0,0.0,0.0,0.0,0.0,0.0,0.0,0.0,0.0,0.0,0.0,1.9352,1.9007,1.8818,0.0,1.9142,1.911,2.0075,1.9908,1.976,2.0276,2.0353,2.0325,2.0225,2.0197,2.0291,2.0493,2.0392,2.0653,2.1564,2.0901,2.1024,2.2552,2.3325,2.3848,2.4176,2.5027,2.5511,2.5511,2.5511,2.5511,2.5511,2.5503,2.5505,2.5499,2.5549,2.5673,2.5834,2.6072,2.7015,2.8447,2.8608,2.9483,3.084,3.1831,3.2682,3.3518,3.5085,3.5697,3.5689,3.5689,3.6396,3.7326,0.0,0.0,1.5903,1.7462,1.716,1.7271,1.8994,1.9218,0.0,0.0,0.0,0.0,0.0,0.0,0.0,0.0,0.0,0.0,0.0,1.8445,1.8649,1.9074,1.9486,1.9893,2.0286,2.0332,2.0346,2.0344,2.0357,2.0366,2.0409,2.0841,2.0803,2.0369,0.0,0.0,0.0,0.0,1.9876,1.9219,2.0041,0.0,1.9269,2.0188,2.0577,2.0591,2.0562,2.0527,2.0498,2.0458,2.0472,0.0,0.0,2.0472,2.0515,0.0,2.0539,2.0508,0.0,0.0,0.0,2.0566,0.0,0.0,0.0,1.8248,1.8052,1.842,1.7491,1.7385,1.989,1.9335,1.8916,2.0186,2.0399,2.0386,2.0311,2.0304,2.0311,2.0339,2.0346,2.0527,2.1004,2.0656,2.1101,2.2765,2.4118,2.4853,2.4853,2.526,2.5511,2.5511,2.5511,2.5499,2.5503,2.5505,2.5512,2.5549,2.5576,2.5615,2.5667,2.6139,2.7027,2.8216,2.8668,2.9597,3.0852,3.167,3.246,3.3335,3.4598,3.5108,3.5152,3.558,3.6313,3.7105,1.6636,0.0,1.6524,1.8531,1.8479,1.8685,2.0252,2.0503,0.0,0.0,0.0,0.0,0.0,0.0,0.0,0.0,0.0,0.0,0.0,0.0,1.937,1.9367,2.0143,2.0614,2.0682,2.0667,2.0677,2.0686,2.0511,2.0437,2.0465,2.1218,2.1165,0.0,0.0,0.0,0.0,0.0,0.0,2.0038,0.0,1.9617,1.8587,2.0039,2.0576,2.0561,2.0506,2.0471,2.0464,2.0414,2.0437,2.0464,2.0418,2.0437,0.0,0.0,0.0,0.0,0.0,0.0,0.0,0.0,0.0,1.998,0.0,0.0,0.0,1.7429,1.5757,0.0,0.0,0.0,0.0,0.0,0.0,0.0,0.0,2.0313,0.0,2.0405,2.0399,2.0399,2.0399,2.054,2.1282,2.2784,2.4358,2.5325,2.5492,2.5511,2.5511,2.5511,2.5511,2.5495,2.5492,2.5499,2.5556,2.561,2.5615,2.5643,2.5718,2.6429,2.7279,2.8237,2.8964,2.9847,3.0845,3.1496,3.2277,3.3161,3.4121,3.4608,3.4858,3.5561,3.6263,3.6891,1.6988,1.7402,0.0,1.8979,1.8902,1.9105,2.0315,2.0497,0.0,0.0,0.0,0.0,0.0,0.0,0.0,0.0,0.0,0.0,2.0338,0.0,0.0,2.0335,2.1174,2.1767,2.2079,2.1789,2.1675,2.1737,2.0896,2.0528,2.0588,2.0687,2.0685,0.0,2.0685,0.0,0.0,0.0,1.969,0.0,1.9899,2.0405,0.0,2.0467,2.0508,2.0507,2.0431,2.0414,2.0413,0.0,2.0416,2.0421,0.0,2.0404,2.0418,2.0482,0.0,0.0,0.0,0.0,0.0,0.0,2.0544,0.0,0.0,0.0,2.0077,2.0062,0.0,0.0,0.0,0.0,0.0,0.0,0.0,0.0,1.9433,1.9994,2.0478,2.0411,2.0399,2.0399,2.0399,2.1107,2.1926,2.2829,2.3798,2.467,2.5453,2.5511,2.5511,2.5511,2.5511,2.5495,2.5492,2.5564,2.5593,2.561,2.5667,2.5695,2.5699,2.5807,2.6713,2.8218,2.8369,2.9333,3.08,3.0898,3.1445,3.2397,3.3902,3.5014,3.5754,3.5854,3.5999,3.6124,1.7586,1.8076,0.0,0.0,1.9882,1.9941,2.043,2.0495,0.0,0.0,0.0,0.0,0.0,0.0,0.0,0.0,0.0,2.0508,0.0,0.0,0.0,2.0505,2.1336,2.1862,2.2007,2.1917,2.2106,2.2603,2.1737,2.1561,2.2057,2.2566,2.2371,2.1551,2.0856,0.0,2.1421,0.0,1.9237,0.0,0.0,0.0,0.0,2.0501,2.0472,2.0447,2.0414,2.0391,2.0408,0.0,2.0405,0.0,0.0,0.0,0.0,0.0,0.0,0.0,0.0,0.0,0.0,0.0,0.0,0.0,2.0565,0.0,2.0566,0.0,0.0,0.0,0.0,0.0,0.0,0.0,2.0247,0.0,0.0,0.0,2.0494,0.0,0.0,0.0,2.0395,2.1194,2.183,2.2172,2.3437,2.4367,2.4737,2.524,2.5499,2.551,2.551,2.5518,2.5554,2.5585,2.5625,2.5667,2.5694,2.5704,2.5707,2.5694,2.6638,2.826,2.8281,2.9254,3.0795,3.0795,3.1317,3.2209,3.3398,3.4414,3.5253,3.5761,3.5975,3.5993,0.0,0.0,0.0,0.0,2.0525,2.0501,2.0508,2.0778,2.0935,2.0873,2.0953,0.0,2.0937,2.0719,0.0,0.0,2.0495,2.0494,0.0,0.0,2.0507,0.0,0.0,0.0,2.1912,2.2129,2.2516,2.31,2.2515,2.2533,2.3111,2.3758,2.3506,2.2473,0.0,2.1374,2.1951,0.0,1.9661,2.0516,2.0731,2.0692,2.0476,2.0464,2.0445,2.041,2.0405,2.0388,2.0437,2.0676,2.0747,0.0,2.0669,0.0,0.0,0.0,0.0,0.0,2.066,0.0,0.0,0.0,0.0,0.0,0.0,0.0,0.0,0.0,0.0,0.0,0.0,0.0,0.0,0.0,0.0,2.042,0.0,2.0381,0.0,0.0,0.0,0.0,0.0,2.1001,2.1459,2.1687,2.3042,2.3967,2.4191,2.5023,2.551,2.5525,2.5531,2.5556,2.561,2.561,2.5639,2.5699,2.5707,2.5698,2.5701,2.5702,2.6659,2.8299,2.8309,2.9259,3.0801,3.0801,3.1446,3.2519,3.3144,3.4081,3.5135,3.5779,3.5991,3.5991,1.9166,1.9856,0.0,0.0,0.0,0.0,2.0506,2.1445,2.2043,2.1794,2.1998,0.0,0.0,0.0,0.0,0.0,0.0,2.0506,2.0506,0.0,2.0492,0.0,0.0,2.192,0.0,2.2752,2.3075,2.3105,2.3061,2.3066,2.3091,2.3138,2.3121,2.3044,2.2413,2.2021,2.1815,2.1928,2.1409,2.0575,2.1356,2.1153,2.0402,0.0,2.04,2.041,2.0392,0.0,0.0,2.1378,2.161,2.157,0.0,0.0,0.0,0.0,0.0,0.0,0.0,0.0,0.0,2.0314,0.0,0.0,0.0,0.0,2.0599,0.0,0.0,0.0,0.0,0.0,0.0,0.0,0.0,0.0,0.0,0.0,2.0565,0.0,0.0,0.0,0.0,2.0527,2.0867,2.1638,2.2522,2.3383,2.4154,2.5027,2.5531,2.5595,2.5601,2.5599,2.561,2.561,2.5639,2.5699,2.5707,2.5698,2.5701,2.5702,2.6659,2.8299,2.8309,2.9259,3.0801,3.0801,3.1816,3.3358,3.3398,3.4452,3.5952,3.5991,3.5991,3.5991,0.0,0.0,0.0,0.0,0.0,0.0,0.0,2.1693,0.0,0.0,0.0,0.0,0.0,2.0639,2.0445,0.0,0.0,2.0443,2.05,2.051,0.0,0.0,0.0,2.2959,0.0,0.0,2.3608,2.4749,2.3593,2.362,2.4744,2.4742,2.4757,2.4664,0.0,2.2463,0.0,0.0,0.0,0.0,0.0,2.0667,2.0392,0.0,2.0758,2.1269,2.1262,2.1597,2.2105,2.2383,2.2477,2.2454,2.2408,2.2427,2.2447,2.2403,2.2191,2.2026,2.231,0.0,2.2006,2.2074,0.0,0.0,0.0,0.0,0.0,0.0,0.0,0.0,0.0,0.0,0.0,0.0,0.0,0.0,0.0,0.0,0.0,0.0,0.0,0.0,0.0,0.0,2.0609,2.0885,2.1189,2.1949,2.3337,2.4224,2.498,2.5576,2.5595,2.5625,2.5667,2.5671,2.5684,2.5707,2.5696,2.5702,2.5722,2.6305,2.7198,2.833,2.891,2.9786,3.0801,3.0801,3.1485,3.2597,3.3163,3.412,3.5213,3.5798,3.5991,3.5991,2.0492,0.0,0.0,0.0,0.0,0.0,0.0,0.0,0.0,0.0,2.2624,0.0,2.1846,0.0,2.0837,0.0,2.056,2.0388,2.0468,2.0692,0.0,2.1617,2.2503,0.0,0.0,0.0,0.0,2.5145,2.4291,2.4471,2.5598,2.5598,2.56,2.5507,0.0,2.3243,2.4191,0.0,2.1894,0.0,0.0,2.1288,0.0,0.0,2.0946,2.1746,0.0,2.246,2.2929,2.323,2.3323,2.3317,2.3279,2.3289,2.3328,2.3263,2.3041,2.2876,2.3186,2.3052,2.275,2.2527,2.2061,0.0,2.1795,0.0,2.1338,0.0,0.0,0.0,0.0,0.0,0.0,0.0,0.0,0.0,0.0,2.0593,0.0,0.0,0.0,0.0,0.0,2.0173,2.0279,1.962,2.0432,2.157,2.296,2.3844,2.4715,2.56,2.5639,2.5667,2.5699,2.5707,2.5698,2.5701,2.5702,2.5858,2.6171,2.6749,2.7639,2.8791,2.9357,3.006,3.0821,3.1133,3.1777,3.2656,3.3515,3.4393,3.5232,3.5798,3.5991,3.5991,0.0,0.0,0.0,0.0,2.1318,0.0,0.0,0.0,2.4265,0.0,2.4135,2.4075,2.4036,2.2612,2.1668,2.1656,2.0904,2.045,2.052,2.1128,0.0,0.0,2.2435,2.289,2.2929,0.0,0.0,0.0,2.5089,2.5492,2.5608,2.5608,2.5608,2.5569,2.4725,0.0,2.4365,2.43,2.3751,2.2958,2.2919,2.2905,2.2724,2.1088,2.1024,2.1913,2.2596,2.291,2.3141,2.3909,2.4154,2.4167,2.4156,2.4167,2.4168,2.4168,2.3571,2.3101,2.3937,2.3552,2.2735,2.1897,2.1712,2.1731,0.0,0.0,2.0885,0.0,0.0,0.0,0.0,0.0,0.0,0.0,0.0,0.0,0.0,0.0,0.0,0.0,0.0,0.0,0.0,1.9523,1.9765,1.8157,2.0389,2.2193,0.0,2.3874,2.4724,2.566,2.5703,2.5703,2.5703,2.569,2.5703,2.5703,2.5703,2.6151,2.7009,2.7041,2.7993,2.9593,2.963,3.0118,3.0938,3.1758,3.2636,3.3554,3.4374,3.5232,3.5991,3.5991,3.603,3.6049,2.1264,2.1581,2.1896,0.0,2.2581,2.2988,0.0,0.0,0.0,0.0,2.4094,2.3799,2.3191,2.2705,2.2455,2.2562,2.2235,0.0,0.0,0.0,0.0,2.3487,2.3719,2.413,2.4799,2.4409,0.0,2.5197,0.0,2.4873,2.553,2.553,2.553,2.553,0.0,0.0,2.5182,2.5163,2.4652,2.3806,2.3165,2.2894,2.2774,0.0,2.2233,2.3427,2.2371,2.3199,2.4799,2.5001,2.5032,2.4986,2.4995,2.4986,2.4986,2.4986,2.4832,2.4716,2.4928,2.4832,2.462,2.4439,2.3929,2.3327,2.2793,2.2965,0.0,0.0,0.0,0.0,0.0,0.0,0.0,0.0,0.0,0.0,0.0,0.0,0.0,2.1647,0.0,0.0,0.0,1.8769,1.8513,1.9738,2.1297,2.2437,2.3065,2.3901,2.4771,2.5671,2.569,2.5698,2.5691,2.5701,2.5703,2.5703,2.5699,2.6161,2.702,2.7661,2.8557,2.963,3.0235,3.0977,3.1777,3.2012,3.3007,3.4393,3.4608,3.5232,3.5991,3.5991,3.6404,3.697,2.2028,0.0,0.0,2.3348,0.0,0.0,2.4239,2.4521,0.0,2.4689,2.4589,0.0,2.3909,2.3426,2.3165,2.3237,2.28,0.0,2.2763,0.0,0.0,2.3957,2.4322,2.4735,2.5224,2.4793,0.0,2.5415,0.0,0.0,2.5511,2.5464,2.5456,2.5456,0.0,2.5468,2.5468,2.5468,2.517,2.467,2.418,2.3987,0.0,2.2624,2.3215,2.4471,2.2825,2.3601,2.5398,2.5379,2.5332,2.5303,2.5303,2.5303,2.5303,2.5303,2.5303,2.5303,2.5303,2.5303,2.5226,2.4904,2.4469,2.3906,2.3121,2.3308,2.3224,2.1782,2.2264,2.2696,2.1831,0.0,0.0,0.0,0.0,0.0,0.0,0.0,0.0,0.0,2.2211,0.0,2.071,1.8729,1.8027,1.9314,2.0387,2.1612,0.0,2.3931,2.4793,2.5672,2.6433,2.6475,2.572,2.6465,2.6444,2.5702,2.6085,2.6722,2.76,2.8479,2.9338,3.0157,3.0606,3.1289,3.2129,3.2519,3.3476,3.4783,3.5545,3.615,3.6618,3.7009,3.7204,3.734,0.0,0.0,0.0,0.0,0.0,0.0,0.0,2.491,0.0,2.5274,0.0,2.5153,2.5164,2.4385,2.3865,2.3878,0.0,2.2741,2.2848,2.3417,2.3793,2.3885,2.4549,2.491,2.491,2.4981,2.5088,0.0,0.0,2.5293,2.5484,2.5429,2.5393,2.5393,0.0,0.0,0.0,2.5406,2.5406,2.5406,2.5385,2.5387,2.5225,2.3523,2.3904,2.5111,2.3463,2.3953,2.5389,2.5322,2.5313,2.5303,2.5303,2.5303,2.5303,2.5303,2.5303,2.5303,2.5303,2.5303,2.5139,2.4428,2.4264,2.4051,2.3245,2.3137,2.3149,2.2931,2.2985,2.2811,2.2007,0.0,0.0,0.0,0.0,0.0,0.0,0.0,0.0,0.0,0.0,0.0,2.0905,1.9388,1.8455,1.8359,1.9258,0.0,0.0,0.0,2.492,2.5681,2.7166,2.7342,2.6054,2.7421,2.7478,2.6229,2.6866,2.762,2.8498,2.924,3.004,3.0801,3.0801,3.1368,3.2324,3.3085,3.3983,3.5037,3.6657,3.7301,3.7419,3.8394,3.8277,3.7731,0.0,0.0,0.0,0.0,0.0,2.5255,2.5111,2.5045,2.503,2.5041,2.4955,2.4893,2.4942,2.4801,2.4707,2.4772,2.4534,0.0,0.0,0.0,0.0,2.4839,2.4941,2.4986,2.4986,2.4981,2.5072,0.0,0.0,0.0,2.5429,2.5404,2.5395,0.0,0.0,0.0,2.5406,2.5388,0.0,2.5398,2.5341,2.5361,2.5206,2.3473,2.3897,2.5158,2.3426,2.3898,2.5322,2.5361,2.5351,2.5303,2.5303,2.5303,2.5303,2.5303,2.5303,2.5303,2.5303,2.5303,2.5264,2.5139,2.5101,2.487,2.407,2.4398,2.4485,2.3088,2.3394,2.3854,2.374,2.3909,0.0,0.0,0.0,0.0,0.0,0.0,0.0,0.0,0.0,2.194,0.0,0.0,0.0,0.0,0.0,0.0,0.0,0.0,2.5547,2.5703,2.5996,2.6698,2.7822,2.743,2.7801,2.8912,2.8344,2.8537,2.9377,2.9533,3.004,3.0801,3.0801,3.1699,3.3183,3.3339,3.4334,3.5876,3.6891,3.7301,3.7497,3.9019,3.9488,3.937,0.0,0.0,0.0,0.0,0.0,0.0,0.0,2.4923,2.4799,2.4842,2.4842,2.4869,2.491,2.4847,2.4823,2.4832,2.4779,2.4794,2.4888,2.4823,2.4827,2.4893,2.4832,2.4799,2.4799,2.4756,2.4855,2.5096,0.0,0.0,2.5404,2.5406,2.5397,2.5388,0.0,2.5234,0.0,0.0,2.5233,2.5243,2.5313,2.5351,2.5255,2.4455,2.4591,2.5137,2.4291,2.4479,2.5115,2.5293,2.5283,2.5212,2.5212,2.5149,2.5091,2.5091,2.5091,2.5103,2.5171,2.5212,2.5203,2.5274,2.5303,2.5101,2.4283,2.4716,2.4947,2.3716,2.4139,2.4744,2.4819,2.4515,2.4264,0.0,0.0,0.0,0.0,0.0,0.0,0.0,0.0,0.0,0.0,0.0,0.0,0.0,0.0,0.0,0.0,0.0,2.5697,2.5697,2.6576,2.7237,2.762,2.811,2.8537,2.8928,2.8967,2.9181,2.9613,3.0021,3.0431,3.0801,3.0801,3.1797,3.3476,3.4374,3.5506,3.6755,3.7633,3.8238,3.8746,4.0015,4.0464,4.0464,0.0,2.5415,0.0,0.0,2.5056,2.4955,2.4943,2.4785,2.4692,2.4707,2.4785,2.485,2.485,2.476,2.4707,2.4707,2.4692,2.4692,2.4692,2.4698,2.4666,2.4666,2.4615,2.458,2.458,2.453,2.4639,0.0,0.0,0.0,2.5331,2.537,2.5389,0.0,0.0,0.0,0.0,2.5096,2.5072,2.5061,2.5241,2.5262,2.5222,2.5273,2.519,2.5068,2.5068,2.4987,2.4942,2.5138,2.5149,2.5068,2.5068,2.4994,2.4902,2.4902,2.4902,2.4929,2.5024,2.5091,2.5126,2.5233,2.5274,2.5139,2.4505,2.4851,2.512,2.4485,2.487,2.5313,2.5365,2.4571,2.3983,2.4219,0.0,0.0,0.0,0.0,0.0,0.0,0.0,0.0,1.9922,0.0,0.0,0.0,0.0,0.0,2.2387,0.0,2.5707,2.5707,2.721,2.7874,2.7563,2.891,2.9435,2.9103,2.9611,2.9865,2.9884,3.0509,3.0899,3.1075,3.1075,3.207,3.3807,3.5369,3.6501,3.7399,3.8258,3.9097,3.9917,4.0776,4.1108,4.1108,0.0,0.0,0.0,0.0,0.0,2.4888,2.5049,2.4799,2.4626,2.4692,2.4704,2.4719,2.4719,2.4707,2.4707,2.4707,2.4695,2.4698,2.4698,2.4631,2.4615,2.4615,2.4547,2.4512,2.4512,2.4515,2.458,0.0,0.0,2.4987,2.5133,2.5244,2.5313,2.5313,2.5303,2.5203,2.5096,2.5096,2.5024,2.4929,2.4942,2.4942,2.4942,2.4942,2.4942,2.4929,2.4929,2.4915,2.4902,2.4929,2.4929,2.4929,2.4929,2.4915,2.4902,2.4902,2.4902,2.4902,2.4915,2.5019,2.5096,2.5126,2.5222,2.5284,2.5187,2.5245,2.5284,2.5187,2.5245,2.5313,2.5322,2.4014,2.3195,2.3983,0.0,0.0,0.0,0.0,2.3475,2.1804,0.0,0.0,2.1498,2.1809,0.0,0.0,2.3115,0.0,0.0,2.5141,2.5707,2.5707,2.6624,2.7837,2.934,2.9515,3.0313,3.1738,3.1036,3.0684,3.0684,3.0762,3.1231,3.1973,3.1973,3.2968,3.4647,3.5603,3.6501,3.7399,3.8258,3.9097,3.9917,4.0776,4.1108,4.1108,0.0,0.0,0.0,0.0,0.0,0.0,0.0,2.4719,2.4645,2.465,2.4647,2.4626,2.4626,2.4645,2.4629,2.4629,2.4647,2.4647,2.4631,2.4617,2.4584,2.4547,2.4513,2.4498,2.4498,2.45,2.4566,0.0,0.0,0.0,2.4987,2.5024,2.5068,2.5056,2.4981,2.4915,2.4861,2.4861,2.4818,2.4794,2.4861,2.4902,2.4902,2.4902,2.4847,2.4779,2.4779,2.4719,2.466,2.466,2.4704,2.4779,2.4779,2.4719,2.466,2.466,2.466,2.4689,2.4861,2.4942,2.5031,2.5171,2.5253,2.5303,2.5303,2.5303,2.5303,2.5303,2.5303,2.5303,2.5303,2.4755,2.4255,2.4129,0.0,0.0,0.0,0.0,0.0,2.1687,0.0,2.217,0.0,2.2664,0.0,0.0,0.0,0.0,0.0,2.4946,2.5707,2.5707,2.6546,2.7583,2.881,2.9338,3.0177,3.1328,3.1504,3.1582,3.1602,3.2129,3.2558,3.291,3.3437,3.4061,3.4764,3.5642,3.6813,3.8102,3.8456,3.9396,4.056,4.0911,4.0986,4.0915,2.4723,0.0,2.4582,2.4804,2.4804,2.4734,2.4599,2.4615,2.4631,2.4569,2.4566,2.458,2.4596,2.4596,2.4599,2.4599,2.458,2.458,2.4601,2.4586,2.4551,2.4497,2.4498,0.0,2.45,2.45,2.4551,2.4629,2.4676,0.0,2.4832,2.4888,2.4902,2.4902,2.4808,2.4734,2.4707,2.4707,2.4676,2.4645,2.4749,2.4775,2.4775,2.4775,2.4719,2.4629,2.4629,2.4582,2.45,2.45,2.4566,2.4629,2.4629,2.4582,2.45,2.45,2.45,2.4532,2.4734,2.4804,2.4888,2.508,2.5171,2.5243,2.5243,2.5264,2.5226,2.5005,2.4947,2.487,2.462,2.4562,2.4466,2.4149,2.411,0.0,0.0,2.3543,0.0,2.237,2.2819,2.2959,2.2393,2.3515,0.0,0.0,0.0,0.0,0.0,2.4926,2.5551,2.6078,2.6685,2.7542,2.8674,2.9533,3.0372,3.1192,3.1816,3.2226,3.2519,3.3378,3.3763,3.3793,3.4671,3.517,3.5412,3.6036,3.7303,3.8887,3.9156,3.9947,4.0979,4.1232,4.1096,4.081,2.45,2.45,2.45,2.45,2.45,2.45,2.45,2.45,2.45,2.45,2.45,2.4534,2.4599,2.4599,2.4599,2.4599,2.4547,2.453,2.4605,2.4552,2.45,0.0,0.0,2.45,2.45,2.45,2.45,2.45,0.0,0.0,2.4707,2.4832,2.4902,2.4902,2.4902,2.4818,2.4707,2.4707,2.4613,2.45,2.45,2.45,2.45,2.45,2.45,2.45,2.45,2.45,2.45,2.45,2.45,2.45,2.45,2.45,2.45,2.45,2.45,2.45,2.45,2.4599,2.4707,2.4707,2.4915,2.5096,2.5096,2.5192,2.5082,2.4283,2.411,2.386,2.2985,2.2831,2.3101,2.3956,2.411,0.0,0.0,2.5264,0.0,2.4168,2.4075,2.4072,2.4061,2.414,0.0,0.0,0.0,0.0,0.0,2.5336,2.5199,2.6939,2.6997,2.7837,2.9574,3.0372,3.1211,3.207,3.209,3.2558,3.3417,3.4295,3.4647,3.4637,3.5519,3.6301,3.6975,3.6975,3.7985,3.9567,4.0451,4.0781,4.0907,4.1781,4.1548,4.081,2.45,2.45,2.45,2.45,2.45,2.45,2.45,2.45,2.45,2.45,2.45,2.4517,2.4534,2.4515,2.4515,0.0,2.4515,2.4498,0.0,2.45,2.45,2.45,2.45,2.45,2.45,2.45,2.45,2.45,2.4532,2.4566,2.4566,2.4596,2.4629,2.4629,2.4629,2.4596,2.4566,2.4566,2.4551,2.45,2.45,2.45,2.45,2.45,2.45,2.45,2.45,2.45,2.45,2.45,2.45,2.45,2.45,2.45,2.45,2.45,2.4465,2.4446,2.4528,2.461,2.4639,2.4749,2.4874,2.4949,2.4915,2.5006,2.505,2.4937,2.4447,2.3967,2.3735,2.3206,2.2889,2.3167,2.3706,2.3783,2.2851,0.0,2.4793,2.337,2.3743,2.4098,2.4091,2.4154,0.0,0.0,0.0,0.0,2.6068,2.6127,2.6429,2.6978,2.8149,2.9047,2.9593,3.0392,3.1231,3.2109,3.2695,3.3737,3.5134,3.5968,3.5975,3.5403,3.6277,3.6456,3.6101,3.6101,3.7441,3.9519,3.981,4.0586,4.1587,4.1858,4.1757,4.1407,2.45,2.45,2.45,2.45,2.45,2.45,2.45,2.45,2.45,2.45,2.45,2.45,2.45,2.45,2.45,2.45,2.45,2.45,2.45,2.45,2.45,2.45,2.45,2.45,2.45,2.45,2.45,2.45,2.45,2.45,2.45,2.45,2.45,2.45,2.45,2.45,2.45,2.45,2.45,2.45,2.45,2.45,2.45,2.45,2.45,2.45,2.45,2.45,2.45,2.45,2.4482,2.4465,2.4465,2.4447,2.4429,2.4465,2.4411,2.4375,2.4461,2.4495,2.4512,2.4591,2.4456,2.4318,2.4346,2.4674,2.4924,2.4779,2.4291,2.3765,2.3226,2.2947,2.2697,2.235,2.3043,2.3225,2.2139,2.337,2.3966,0.0,0.0,2.361,2.361,2.3662,2.391,0.0,0.0,0.0,2.5546,2.6447,2.7254,2.7878,2.8658,2.9386,3.004,3.088,3.1738,3.2597,3.3773,3.4857,3.5833,3.6352,3.6239,3.5708,3.6571,3.6803,3.6588,3.6917,3.8175,3.9909,4.0246,4.0778,4.1407,4.1735,4.1836,4.1681,2.45,2.45,2.45,2.45,2.45,2.45,2.45,2.45,2.45,2.45,2.45,2.45,2.45,2.45,2.45,2.45,2.45,2.45,2.45,2.45,2.45,2.45,2.45,2.45,2.45,2.45,2.45,2.45,2.45,2.45,2.45,2.45,2.45,2.45,2.45,2.45,2.45,2.45,2.45,2.45,2.45,2.45,2.45,2.45,2.45,2.45,2.45,2.45,2.45,2.45,2.4447,2.4394,2.4394,2.4339,2.4321,2.4358,2.4339,2.4284,2.4284,2.4284,2.4284,2.4284,2.3834,2.3431,2.3615,2.4306,2.4701,2.4038,2.3861,2.3378,2.1949,2.2293,2.2524,2.1716,2.2312,2.287,2.2812,2.2889,2.2947,2.2889,2.2928,2.2966,2.2966,2.3024,2.3071,2.308,0.0,0.0,2.5658,2.6681,2.7902,2.9353,2.8725,2.9176,3.0852,3.1675,3.2553,3.3487,3.5105,3.5846,3.5782,3.584,3.5834,3.5828,3.6698,3.7418,3.8065,3.8873,3.9719,4.0566,4.1393,4.1258,4.0681,4.1508,4.1854,4.1758,2.45,2.45,2.45,2.45,2.45,2.45,2.45,2.45,2.45,2.45,2.45,2.45,2.45,2.45,2.45,2.45,2.45,2.45,2.45,2.45,2.45,2.45,2.45,2.45,2.45,2.45,2.45,2.45,2.45,2.45,2.45,2.45,2.45,2.45,2.45,2.45,2.45,2.45,2.45,2.45,2.45,2.45,2.45,2.45,2.45,2.45,2.45,2.4465,2.443,2.443,2.4375,2.4321,2.4321,2.4284,2.4247,2.4303,2.4284,2.4229,2.4284,2.4284,2.4284,2.4284,2.4137,2.4041,2.4308,2.4565,2.4757,2.4801,2.4326,2.3851,2.3543,2.3109,2.2735,2.2524,2.3225,2.3571,2.2889,2.3908,2.4485,2.3879,2.4332,2.4716,2.4716,2.5313,2.5726,2.576,0.0,2.8296,2.8307,2.9793,3.0238,2.9344,2.9778,3.0542,3.1631,3.1845,3.2681,3.4172,3.5247,3.6054,3.6626,3.7246,3.7506,3.7486,3.8353,3.844,3.8027,3.8219,3.9161,4.0508,4.0719,4.1085,4.1527,4.172,4.222,4.2566,2.4358,2.4358,2.4358,2.4358,2.4447,2.45,2.45,2.45,2.45,2.45,2.45,2.45,2.45,2.45,2.45,2.45,2.45,2.45,2.45,2.45,2.45,2.45,2.45,2.45,2.45,2.45,2.4482,2.4447,2.4411,2.4411,2.4411,2.4411,2.4411,2.4411,2.4411,2.4411,2.4411,2.4411,2.443,2.4447,2.4447,2.4465,2.45,2.45,2.4482,2.4447,2.4447,2.4412,2.4358,2.4358,2.4321,2.4266,2.4266,2.4229,2.4209,2.4247,2.4228,2.4209,2.4247,2.4247,2.4174,2.3805,2.3953,2.4137,2.3908,2.4215,2.4572,2.4776,2.4588,2.4266,2.3962,2.3611,2.3218,2.2815,2.3141,2.3295,2.2815,2.3554,2.412,2.4063,2.4476,2.4909,2.5264,2.5726,2.6025,2.6062,2.7634,2.8772,2.9129,3.0807,3.1361,3.0466,3.1269,3.1945,3.2481,3.2858,3.3882,3.5553,3.6018,3.6654,3.7405,3.7868,3.804,3.8046,3.8911,3.9027,3.8623,3.8988,3.9681,4.0489,4.0489,4.0777,4.1258,4.1662,4.2104,4.2431,2.417,2.419,2.4209,2.4228,2.4394,2.45,2.45,2.45,2.45,2.45,2.45,2.45,2.45,2.45,2.45,2.45,2.45,2.45,2.45,2.4594,2.4612,2.4482,2.4594,2.4649,2.4649,2.4649,2.4559,2.4375,2.4339,2.4284,2.4284,2.4284,2.4284,2.4284,2.4284,2.4321,2.4321,2.4321,2.4339,2.4394,2.4412,2.4447,2.4482,2.4482,2.4447,2.4375,2.4375,2.4339,2.4284,2.4284,2.4247,2.4192,2.4192,2.4209,2.419,2.419,2.419,2.419,2.4209,2.4209,2.4044,2.3345,2.3695,2.4026,2.3327,2.3786,2.4356,2.4491,2.4666,2.4606,2.3986,2.4018,2.3932,2.3331,2.312,2.3149,2.3448,2.342,2.3679,2.4485,2.4745,2.512,2.5813,2.5995,2.611,2.6264,2.764,2.8813,2.9621,3.1198,3.2093,3.2153,3.2694,3.3103,3.3352,3.4156,3.534,3.6868,3.6868,3.734,3.82,3.82,3.8257,3.8411,3.9161,3.9469,3.9527,4.0219,4.0489,4.0489,4.0489,4.0489,4.0604,4.1489,4.1893,4.2104,2.4034,2.419,2.4247,2.443,2.4482,2.45,2.45,2.45,2.45,2.45,2.45,2.45,2.45,2.45,2.45,2.45,2.45,2.45,2.45,2.5078,2.5116,2.4449,2.5005,2.5337,2.5337,2.5337,2.5023,2.4321,2.4321,2.4284,2.4284,2.4284,2.4284,2.4284,2.4284,2.4339,2.4375,2.4375,2.4394,2.4412,2.4465,2.4411,2.4339,2.4375,2.4358,2.4321,2.4321,2.4266,2.421,2.421,2.421,2.4209,2.4209,2.419,2.419,2.419,2.419,2.4209,2.4191,2.4247,2.4248,2.4044,2.41,2.4174,2.4045,2.4246,2.4459,2.4508,2.4666,2.4766,2.4662,2.4639,2.4915,2.5628,2.512,2.5225,2.6858,2.6465,2.632,2.7187,2.789,2.8371,2.8506,2.9179,2.991,3.066,3.0968,3.1468,3.2275,3.3256,3.3827,3.3833,3.3224,3.3275,3.4051,3.4886,3.5797,3.6727,3.6727,3.756,3.9104,3.9104,3.9469,4.0123,4.0258,4.0296,4.0315,4.045,4.0489,4.0489,4.0489,4.0489,4.0604,4.1489,4.2277,4.2912,2.4112,2.419,2.4228,2.4321,2.434,2.4376,2.4482,2.45,2.45,2.45,2.45,2.4465,2.4358,2.434,2.434,2.434,2.434,2.5078,2.6812,2.6224,2.5763,2.5652,2.5965,2.6148,2.6148,2.6147,2.5961,2.5592,2.5573,2.5535,2.5535,2.5535,2.5295,2.4892,2.4892,2.4671,2.4284,2.4284,2.4284,2.4284,2.4321,2.4321,2.4303,2.4339,2.4303,2.4247,2.4247,2.4229,2.4209,2.4209,2.4209,2.419,2.419,2.419,2.419,2.419,2.419,2.419,2.419,2.4228,2.4228,2.4209,2.4209,2.4209,2.4209,2.4266,2.4339,2.4338,2.4476,2.4588,2.4588,2.467,2.5073,2.6075,2.5551,2.5501,2.6937,2.6817,2.6916,2.7753,2.8602,2.9467,3.041,3.0871,3.1448,3.2275,3.2352,3.2718,3.3564,3.3968,3.4603,3.5526,3.5161,3.5372,3.6238,3.6642,3.7276,3.8104,3.8104,3.8738,3.995,3.995,4.0142,4.0489,4.0489,4.0489,4.0489,4.0489,4.0777,4.12,4.12,4.1489,4.1989,4.2835,4.3124,4.3239,2.3852,2.3852,2.3915,2.4151,2.419,2.4247,2.4412,2.443,2.443,2.443,2.443,2.4376,2.4209,2.419,2.419,2.419,2.419,2.5566,2.8773,2.7543,2.6702,2.67,2.679,2.6864,2.6864,2.6914,2.6878,2.6694,2.6633,2.6612,2.6612,2.6612,2.6264,2.5676,2.5676,2.5348,2.4778,2.4778,2.4779,2.4762,2.4781,2.48,2.4856,2.4856,2.4708,2.4486,2.4486,2.4375,2.419,2.419,2.419,2.419,2.419,2.419,2.419,2.419,2.4318,2.4428,2.4245,2.419,2.419,2.419,2.4337,2.4483,2.4483,2.4483,2.452,2.4722,2.4543,2.4411,2.4615,2.4757,2.5132,2.5955,2.575,2.5853,2.6899,2.7259,2.7758,2.8587,2.9444,3.0513,3.1852,3.1987,3.2314,3.3141,3.3199,3.366,3.4718,3.4776,3.5565,3.7257,3.7123,3.7315,3.7988,3.8007,3.843,3.9296,3.9296,3.9719,4.0489,4.0489,4.0604,4.0777,4.0585,4.0719,4.1085,4.0893,4.1316,4.2104,4.2104,4.2508,4.3201,4.3989,4.3912,4.3585,2.2799,2.2799,2.3109,2.4034,2.419,2.419,2.4209,2.4209,2.4209,2.4209,2.4209,2.4227,2.419,2.419,2.419,2.419,2.419,2.5566,2.8773,2.887,2.8162,2.6755,2.7114,2.7346,2.7346,2.7585,2.7346,2.6612,2.6612,2.6612,2.6612,2.6612,2.6576,2.6521,2.6521,2.6505,2.651,2.651,2.651,2.653,2.6514,2.6493,2.6429,2.651,2.6031,2.5311,2.5311,2.4833,2.419,2.419,2.419,2.419,2.419,2.419,2.419,2.419,2.4722,2.5164,2.4392,2.419,2.419,2.419,2.4759,2.5311,2.5311,2.5311,2.5511,2.6264,2.5256,2.4429,2.5202,2.5331,2.5429,2.5702,2.642,2.7339,2.8484,2.9383,3.0286,3.1207,3.209,3.266,3.2795,3.2814,3.316,3.4026,3.4103,3.4814,3.643,3.6526,3.7315,3.9046,3.8334,3.793,3.8007,3.8007,3.843,3.9296,3.9296,3.9719,4.0489,4.0489,4.0931,4.1662,4.0854,4.1412,4.2854,4.2047,4.222,4.3008,4.3008,4.3047,4.3201,4.3989,4.4259,4.4335,2.2712,2.3206,2.375,2.4132,2.419,2.419,2.419,2.419,2.419,2.419,2.419,2.419,2.419,2.419,2.419,2.419,2.6025,2.7714,2.892,2.8994,2.8741,2.8162,2.8301,2.8388,2.8388,2.8503,2.8393,2.8077,2.8077,2.8077,2.8077,2.8077,2.7824,2.7346,2.7346,2.7071,2.6633,2.6633,2.6633,2.6633,2.6636,2.6615,2.6612,2.6633,2.6431,2.608,2.5586,2.5201,2.4869,2.4373,2.419,2.419,2.419,2.419,2.43,2.4795,2.5511,2.608,2.5768,2.5695,2.5695,2.5695,2.5529,2.5403,2.5403,2.5017,2.474,2.5052,2.463,2.4447,2.5256,2.5403,2.5795,2.699,2.7065,2.7563,2.9251,2.9817,3.0438,3.1424,3.23,3.3254,3.4304,3.44,3.4976,3.6396,3.6488,3.6772,3.7406,3.7993,3.8623,3.9277,3.945,3.9546,3.9546,3.9546,3.9719,4.0027,4.0027,4.02,4.0489,4.0489,4.0681,4.1008,4.1219,4.1681,4.2316,4.2527,4.3104,4.3835,4.3835,4.4162,4.4682,4.4989,4.5105,4.5143,2.3109,2.3468,2.3831,2.4151,2.3935,2.3728,2.3728,2.3728,2.3728,2.3728,2.3728,2.3852,2.417,2.419,2.419,2.419,2.7145,2.8994,2.8994,2.8994,2.8994,2.8994,2.8994,2.8994,2.8994,2.8994,2.8994,2.8994,2.8994,2.8994,2.8994,2.8994,2.8723,2.8172,2.8172,2.7879,2.7365,2.7365,2.7365,2.7365,2.7365,2.7365,2.7365,2.7365,2.72,2.6906,2.6337,2.5988,2.5676,2.5144,2.4942,2.4942,2.4942,2.4942,2.5016,2.5311,2.597,2.6539,2.6282,2.6594,2.6869,2.6355,2.5988,2.5768,2.5768,2.5548,2.5401,2.5658,2.5309,2.5199,2.6027,2.6156,2.6565,2.7798,2.8029,2.8521,2.9905,3.0633,3.1284,3.1984,3.2902,3.4037,3.5468,3.5668,3.6332,3.7789,3.7897,3.8043,3.8328,3.9185,3.9681,3.9681,4.02,4.0489,4.0489,4.0489,4.0489,4.0489,4.0489,4.0642,4.0893,4.0623,4.0931,4.17,4.1777,4.2258,4.3028,4.3335,4.3951,4.4701,4.4701,4.5066,4.5586,4.5586,4.5586,4.5586,2.3994,2.3376,2.301,2.4051,2.3407,2.2746,2.2746,2.2729,2.2712,2.2712,2.2712,2.3084,2.4074,2.4226,2.4245,2.4245,2.7163,2.8994,2.8994,2.8994,2.8994,2.8994,2.8994,2.8994,2.8994,2.8994,2.8994,2.8994,2.8994,2.8994,2.8994,2.8994,2.8994,2.8994,2.8994,2.8994,2.8994,2.8994,2.8994,2.8994,2.8994,2.8994,2.8994,2.8994,2.8503,2.7805,2.7787,2.7291,2.6612,2.6612,2.6612,2.6612,2.6612,2.6612,2.6447,2.5621,2.597,2.6429,2.5621,2.6576,2.7402,2.5825,2.6007,2.6612,2.6612,2.7218,2.8026,2.8833,2.7732,2.6851,2.764,2.7805,2.7824,2.7824,2.9329,3.0516,3.0535,3.2147,3.3306,3.333,3.4264,3.5286,3.6233,3.6504,3.6983,3.7865,3.7916,3.8328,3.9258,4.0065,4.0489,4.0489,4.0489,4.0489,4.0489,4.0489,4.0489,4.0489,4.0489,4.095,4.1777,4.0893,4.1893,4.4201,4.2547,4.3258,4.5509,4.4662,4.4816,4.5586,4.5586,4.5586,4.5586,4.5586,4.5586,4.5586,2.3084,2.2902,2.3492,2.5953,2.6109,2.5919,2.5919,2.4091,2.2712,2.2712,2.3307,2.3873,2.417,2.6227,2.7585,2.7585,2.8466,2.8994,2.8994,2.8994,2.8994,2.8994,2.8994,2.8994,2.8994,2.8994,2.8994,2.8994,2.8994,2.8994,2.8994,2.8994,2.8994,2.8994,2.8791,2.8718,2.87,2.8482,2.8386,2.8386,2.8386,2.8386,2.8386,2.8626,2.8573,2.8306,2.7944,2.764,2.7365,2.6796,2.6612,2.6612,2.6612,2.6612,2.6557,2.6319,2.641,2.6667,2.6998,2.7016,2.6979,2.7053,2.7255,2.7438,2.7438,2.7181,2.7034,2.7273,2.7383,2.7512,2.775,2.8723,2.9475,2.9475,3.041,3.1389,3.215,3.3227,3.4267,3.517,3.6063,3.7015,3.8098,3.8265,3.8644,3.9521,3.9665,3.9845,4.0123,4.0354,4.0489,4.0489,4.0489,4.0489,4.0489,4.0489,4.0489,4.0489,4.0489,4.095,4.1797,4.1527,4.2162,4.3451,4.3528,4.3989,4.472,4.5066,4.5355,4.5586,4.5586,4.5586,4.5586,4.5586,4.5586,4.5586,2.4281,2.4522,2.5109,2.6971,2.7299,2.7299,2.7299,2.5712,2.4522,2.4522,2.5041,2.5434,2.5434,2.7143,2.8317,2.8317,2.8317,2.8525,2.897,2.8994,2.881,2.8344,2.8601,2.8839,2.8994,2.8839,2.8839,2.8994,2.8839,2.8767,2.8767,2.8767,2.8725,2.8651,2.8482,2.8404,2.8386,2.8183,2.8102,2.8102,2.8237,2.821,2.8156,2.8601,2.8601,2.8384,2.8315,2.8196,2.8077,2.7669,2.7567,2.7493,2.7181,2.7291,2.7438,2.6796,2.6833,2.7108,2.7273,2.72,2.7181,2.7677,2.7787,2.7879,2.8209,2.8136,2.8117,2.8429,2.8888,2.9219,2.9219,3.0008,3.0779,3.1109,3.1568,3.2316,3.3592,3.4208,3.4927,3.6045,3.6686,3.7464,3.8627,3.8803,3.9242,4.0212,4.0396,4.0482,4.0511,4.0508,4.0489,4.0489,4.0489,4.0662,4.1008,4.1008,4.1008,4.1008,4.1354,4.197,4.2777,4.247,4.297,4.4105,4.4239,4.4489,4.4855,4.5374,4.5586,4.5586,4.5586,4.5586,4.5568,4.5568,4.5531,4.5513,2.6747,2.7299,2.7299,2.7299,2.7299,2.7299,2.7299,2.7299,2.7299,2.7299,2.7299,2.7299,2.7299,2.7299,2.7299,2.7299,2.7299,2.7748,2.8767,2.8858,2.8396,2.7362,2.7971,2.8533,2.8905,2.8558,2.8533,2.8905,2.8533,2.836,2.836,2.836,2.8281,2.8102,2.8057,2.8075,2.8075,2.8047,2.802,2.8047,2.8352,2.8281,2.8075,2.8676,2.8533,2.8129,2.87,2.8767,2.8601,2.8881,2.8915,2.8732,2.8026,2.8246,2.8498,2.7126,2.7236,2.7658,2.709,2.7402,2.7934,2.8081,2.8062,2.8209,2.892,2.9732,3.0522,3.1237,3.1458,3.1494,3.1494,3.1623,3.1953,3.2706,3.2889,3.3458,3.4899,3.5174,3.5532,3.6332,3.6675,3.7254,3.83,3.8565,3.9123,4.0194,4.0325,4.0396,4.0485,4.0495,4.0489,4.0508,4.0508,4.0912,4.1797,4.1893,4.1931,4.1931,4.272,4.3528,4.4278,4.3547,4.4085,4.5547,4.4759,4.4855,4.5586,4.5586,4.5586,4.5586,4.5586,4.5531,4.5495,4.5495,4.5438,4.54,2.7161,2.7299,2.7299,2.7299,2.7299,2.7299,2.7299,2.7299,2.7299,2.7299,2.7299,2.7299,2.7299,2.7299,2.7299,2.7299,2.7299,2.739,2.7647,2.7677,2.7574,2.733,2.7683,2.8047,2.829,2.821,2.8129,2.8065,2.8129,2.8156,2.8156,2.8156,2.8129,2.8102,2.7869,2.78,2.7771,2.7569,2.7465,2.7465,2.7557,2.7526,2.7496,2.7847,2.7915,2.7829,2.8156,2.8264,2.8255,2.8576,2.8276,2.7755,2.7775,2.7493,2.7181,2.7457,2.7658,2.8044,2.9127,2.909,2.9053,3.0301,3.0155,2.9732,2.9898,3.0558,3.1182,3.1347,3.1898,3.2339,3.2339,3.3385,3.4275,3.444,3.5055,3.5624,3.5973,3.656,3.7088,3.7507,3.8164,3.8745,3.9196,3.9279,3.9498,3.9943,4.0042,4.0177,4.0415,4.0413,4.0466,4.0499,4.0499,4.0918,4.1797,4.2489,4.2816,4.2816,4.3008,4.3528,4.4297,4.4124,4.4587,4.5513,4.5321,4.5322,4.5438,4.5438,4.5438,4.5438,4.5438,4.5438,4.5419,4.5419,4.5419,4.54,2.7299,2.7299,2.7299,2.7299,2.7299,2.7299,2.7299,2.7299,2.7299,2.7299,2.7299,2.7299,2.7299,2.7299,2.7299,2.7299,2.7299,2.7299,2.7299,2.7299,2.7299,2.7299,2.7465,2.7612,2.773,2.8064,2.8153,2.7936,2.78,2.773,2.773,2.773,2.773,2.7713,2.7569,2.7496,2.7496,2.7376,2.7299,2.7313,2.7452,2.7421,2.7345,2.7742,2.7713,2.7569,2.8147,2.8412,2.8612,2.9162,2.9083,2.8761,2.8897,2.8925,2.8815,2.8466,2.865,2.9127,2.9971,2.9898,2.9879,3.1091,3.1366,3.1347,3.1347,3.1678,3.2192,3.2963,3.3458,3.3853,3.4302,3.5055,3.5624,3.5624,3.6009,3.6431,3.6817,3.7221,3.7684,3.8227,3.8633,3.9017,3.9272,3.9414,3.9614,3.9876,3.9941,4.0002,4.0158,4.0177,4.0233,4.027,4.0672,4.1284,4.2125,4.2967,4.3521,4.3821,4.4115,4.4474,4.4858,4.4841,4.5053,4.5457,4.5322,4.5243,4.5201,4.5201,4.5201,4.5222,4.5342,4.54,4.54,4.54,4.54,4.54,2.7299,2.7299,2.7299,2.7299,2.7299,2.7299,2.7299,2.7299,2.7299,2.7299,2.7299,2.7299,2.7299,2.7299,2.7299,2.7299,2.7299,2.7299,2.7299,2.7299,2.7299,2.7299,2.7299,2.7299,2.7299,2.8075,2.8383,2.8202,2.7857,2.7627,2.7558,2.7558,2.7454,2.7299,2.7299,2.7299,2.7299,2.7299,2.7299,2.7313,2.7539,2.7565,2.7535,2.7994,2.7935,2.7788,2.8492,2.8897,2.9203,2.9908,3.0111,3.0051,3.0094,3.0626,3.0962,2.9769,2.9989,3.065,3.0779,3.0815,3.1017,3.1806,3.2522,3.3054,3.3201,3.3128,3.3413,3.4917,3.521,3.5495,3.634,3.6505,3.6541,3.6688,3.6707,3.6927,3.7606,3.7698,3.7936,3.8615,3.8707,3.8835,3.9192,3.9293,3.9458,3.9739,3.9769,3.9772,3.9816,3.988,3.9901,3.9922,4.0758,4.1594,4.2408,4.3225,4.3947,4.4624,4.5096,4.5342,4.5342,4.5283,4.5263,4.5243,4.5007,4.4896,4.4896,4.4896,4.4896,4.4919,4.514,4.522,4.5216,4.5277,4.5277,4.5256,2.7218,2.7299,2.7299,2.7299,2.7299,2.7299,2.7299,2.7299,2.7299,2.7299,2.7299,2.7299,2.7299,2.7299,2.7299,2.7299,2.7299,2.7299,2.7299,2.7299,2.7299,2.7299,2.7299,2.7299,2.7299,2.8247,2.8712,2.8707,2.904,2.8989,2.8592,2.8592,2.8127,2.7299,2.7299,2.7299,2.7299,2.7299,2.7299,2.7282,2.7345,2.7693,2.8247,2.8328,2.8693,2.9213,2.9363,2.9412,2.9478,2.9871,2.9769,2.9456,2.9682,3.005,3.0467,3.0944,3.1641,3.243,3.3128,3.3311,3.3513,3.4321,3.4587,3.4862,3.5624,3.522,3.4935,3.5917,3.6119,3.6376,3.7184,3.7331,3.7551,3.8267,3.8377,3.8414,3.8524,3.8542,3.8579,3.8689,3.8707,3.9013,3.9724,3.9185,3.8921,3.9192,3.9219,3.9305,3.9532,3.9556,3.9561,3.9571,4.0363,4.1216,4.2157,4.2944,4.3775,4.458,4.4606,4.4676,4.4707,4.4707,4.4676,4.4606,4.458,4.4546,4.4465,4.4465,4.4465,4.4493,4.4519,4.4546,4.4546,4.4795,4.4726,4.4591,2.7545,2.8644,2.9282,2.7592,2.7299,2.7299,2.7299,2.7299,2.7299,2.7299,2.7299,2.7299,2.7299,2.7105,2.6957,2.6957,2.6957,2.6957,2.6957,2.6957,2.6957,2.6957,2.757,2.8048,2.8339,2.9283,2.99,3.024,3.004,2.9834,2.9627,2.9058,2.8696,2.8523,2.8247,2.8282,2.8523,2.8523,2.8523,2.8523,2.8523,2.873,2.9023,2.9023,2.923,2.954,2.9709,2.9889,3.0085,3.0684,3.0873,3.0952,3.1544,3.1937,3.2192,3.21,3.232,3.2797,3.3587,3.3807,3.4119,3.5404,3.5734,3.5936,3.678,3.667,3.6505,3.689,3.6964,3.7202,3.801,3.8175,3.8285,3.8652,3.8707,3.8707,3.8707,3.8707,3.8872,3.9313,3.9772,4.0194,4.0543,4.0249,4.0154,4.0428,4.003,3.9826,3.9944,3.9514,3.9485,3.9914,4.0745,4.1567,4.2436,4.3278,4.3789,4.3992,4.3962,4.4154,4.4546,4.4519,4.4465,4.4438,4.4308,4.4192,4.4181,4.4181,4.4181,4.4192,4.4346,4.4383,4.4411,4.4519,4.4519,4.4465]},{"header":{"parameterUnit":"m.s-1","parameterCategory":1,"la1":30.6,"la2":28.766,"lo1":-90.7593,"lo2":-88.6598,"dy":0.0162,"dx":0.0183,"nx":116,"ny":114,"refTime":"2023-10-06T12:00:00:Z","depth":0,"parameterNumber":3,"parameterNumberName":"V-component_of_WINDS"},"data":[0.0,0.0,0.0,0.0,0.0,0.0,0.0,0.0,0.0,0.0,0.0,0.0,0.0,0.0,0.0,0.0,0.0,0.0,0.0,0.0,0.0,0.0,0.0,0.0,0.0,0.0,0.0,0.0,0.0,0.0,0.0,0.0,0.0,0.0,0.0,0.0,0.0,0.0,0.0,0.0,0.0,0.0,0.0,0.0,0.0,0.0,0.0,0.0,0.0,0.0,0.0,0.0,0.0,0.0,0.0,0.0,0.0,0.0,0.0,0.0,0.0,0.0,0.0,0.0,0.0,0.0,0.0,0.0,0.0,0.0,0.0,0.0,0.0,0.0,0.0,0.0,0.0,0.0,0.0,0.0,0.0,0.0,0.0,0.0,0.0,0.0,0.0,0.0,0.0,0.0,0.0,0.0,0.0,0.0,0.0,0.0,0.0,0.0,0.0,0.0,0.0,0.0,0.0,0.0,0.0,0.0,0.0,0.0,0.0,0.0,0.0,0.0,0.0,0.0,0.0,0.0,0.0,0.0,0.0,0.0,0.0,0.0,0.0,0.0,0.0,0.0,0.0,0.0,0.0,0.0,0.0,0.0,0.0,0.0,0.0,0.0,0.0,0.0,0.0,0.0,0.0,0.0,0.0,0.0,0.0,0.0,0.0,0.0,0.0,0.0,0.0,0.0,0.0,0.0,0.0,0.0,0.0,0.0,0.0,0.0,0.0,0.0,0.0,0.0,0.0,0.0,0.0,0.0,0.0,0.0,0.0,0.0,0.0,0.0,0.0,0.0,0.0,0.0,0.0,0.0,0.0,0.0,0.0,0.0,0.0,0.0,0.0,0.0,0.0,0.0,0.0,0.0,0.0,0.0,0.0,0.0,0.0,0.0,0.0,0.0,0.0,0.0,0.0,0.0,0.0,0.0,0.0,0.0,0.0,0.0,0.0,0.0,0.0,0.0,0.0,0.0,0.0,0.0,0.0,0.0,0.0,0.0,0.0,0.0,0.0,0.0,0.0,0.0,0.0,0.0,0.0,0.0,0.0,0.0,0.0,0.0,0.0,0.0,0.0,0.0,0.0,0.0,0.0,0.0,0.0,0.0,0.0,0.0,0.0,0.0,0.0,0.0,0.0,0.0,0.0,0.0,0.0,0.0,0.0,0.0,0.0,0.0,0.0,0.0,0.0,0.0,0.0,0.0,0.0,0.0,0.0,0.0,0.0,0.0,0.0,0.0,0.0,0.0,0.0,0.0,0.0,0.0,0.0,0.0,0.0,0.0,0.0,0.0,0.0,0.0,0.0,0.0,0.0,0.0,0.0,0.0,0.0,0.0,0.0,0.0,0.0,0.0,0.0,0.0,0.0,0.0,0.0,0.0,0.0,0.0,0.0,0.0,0.0,0.0,0.0,0.0,0.0,0.0,0.0,0.0,0.0,0.0,0.0,0.0,0.0,0.0,0.0,0.0,0.0,0.0,0.0,0.0,0.0,0.0,0.0,0.0,0.0,0.0,0.0,0.0,0.0,0.0,0.0,0.0,0.0,0.0,0.0,0.0,0.0,0.0,0.0,0.0,0.0,0.0,0.0,0.0,0.0,0.0,0.0,0.0,0.0,0.0,0.0,0.0,0.0,0.0,0.0,0.0,0.0,0.0,0.0,0.0,0.0,0.0,0.0,0.0,0.0,0.0,0.0,0.0,0.0,0.0,0.0,0.0,0.0,0.0,0.0,0.0,0.0,0.0,0.0,0.0,0.0,0.0,0.0,0.0,0.0,0.0,0.0,0.0,0.0,0.0,0.0,0.0,0.0,0.0,0.0,0.0,0.0,0.0,0.0,0.0,0.0,0.0,0.0,0.0,0.0,0.0,0.0,0.0,0.0,0.0,0.0,0.0,0.0,0.0,0.0,0.0,0.0,0.0,0.0,0.0,0.0,0.0,0.0,0.0,0.0,0.0,0.0,0.0,0.0,0.0,0.0,0.0,0.0,0.0,0.0,0.0,0.0,0.0,0.0,0.0,0.0,0.0,0.0,0.0,0.0,0.0,0.0,0.0,0.0,0.0,0.0,0.0,0.0,0.0,0.0,0.0,0.0,0.0,0.0,0.0,0.0,0.0,0.0,0.0,0.0,0.0,0.0,0.0,0.0,0.0,0.0,0.0,0.0,0.0,0.0,0.0,0.0,0.0,0.0,0.0,0.0,0.0,0.0,0.0,0.0,0.0,0.0,0.0,0.0,0.0,0.0,0.0,0.0,0.0,0.0,0.0,0.0,0.0,0.0,0.0,0.0,0.0,0.0,0.0,0.0,0.0,0.0,0.0,0.0,0.0,0.0,0.0,0.0,0.0,0.0,0.0,0.0,0.0,0.0,0.0,0.0,0.0,0.0,0.0,0.0,0.0,0.0,0.0,0.0,0.0,0.0,0.0,0.0,0.0,0.0,0.0,0.0,0.0,0.0,0.0,0.0,0.0,0.0,0.0,0.0,0.0,0.0,0.0,0.0,0.0,0.0,0.0,0.0,0.0,0.0,0.0,0.0,0.0,0.0,0.0,0.0,0.0,0.0,0.0,0.0,0.0,0.0,0.0,0.0,0.0,0.0,0.0,0.0,0.0,0.0,0.0,0.0,0.0,0.0,0.0,0.0,0.0,0.0,0.0,0.0,0.0,0.0,0.0,0.0,0.0,0.0,0.0,0.0,0.0,0.0,0.0,0.0,0.0,0.0,0.0,0.0,0.0,0.0,0.0,0.0,0.0,0.0,0.0,0.0,0.0,0.0,0.0,0.0,0.0,0.0,0.0,0.0,0.0,0.0,0.0,0.0,0.0,0.0,0.0,0.0,0.0,0.0,0.0,0.0,0.0,0.0,0.0,0.0,0.0,0.0,0.0,0.0,0.0,0.0,0.0,0.0,0.0,0.0,0.0,0.0,0.0,0.0,0.0,0.0,0.0,0.0,0.0,0.0,0.0,0.0,0.0,0.0,0.0,0.0,0.0,0.0,0.0,0.0,0.0,0.0,0.0,0.0,0.0,0.0,0.0,0.0,0.0,0.0,0.0,0.0,0.0,0.0,0.0,0.0,0.0,0.0,0.0,0.0,0.0,0.0,0.0,0.0,0.0,0.0,0.0,0.0,0.0,0.0,0.0,0.0,0.0,0.0,0.0,0.0,0.0,0.0,0.0,0.0,0.0,0.0,0.0,0.0,0.0,0.0,0.0,0.0,0.0,0.0,0.0,0.0,0.0,0.0,0.0,0.0,0.0,0.0,0.0,0.0,0.0,0.0,0.0,0.0,0.0,0.0,0.0,0.0,0.0,0.0,0.0,0.0,0.0,0.0,0.0,0.0,0.0,0.0,0.0,0.0,0.0,0.0,0.0,0.0,0.0,0.0,0.0,0.0,0.0,0.0,0.0,0.0,0.0,0.0,0.0,0.0,0.0,0.0,0.0,0.0,0.0,0.0,0.0,0.0,0.0,0.0,0.0,0.0,0.0,0.0,0.0,0.0,0.0,0.0,0.0,0.0,0.0,0.0,0.0,0.0,0.0,0.0,0.0,0.0,0.0,0.0,0.0,0.0,0.0,0.0,0.0,0.0,0.0,0.0,0.0,0.0,0.0,0.0,0.0,0.0,0.0,0.0,0.0,0.0,0.0,0.0,0.0,0.0,0.0,0.0,0.0,0.0,0.0,0.0,0.0,0.0,0.0,0.0,0.0,0.0,0.0,0.0,0.0,0.0,0.0,0.0,0.0,0.0,0.0,0.0,0.0,0.0,0.0,0.0,0.0,0.0,0.0,0.0,0.0,0.0,0.0,0.0,0.0,0.0,0.0,0.0,0.0,0.0,0.0,0.0,0.0,0.0,0.0,0.0,0.0,0.0,0.0,0.0,0.0,0.0,0.0,0.0,0.0,0.0,0.0,0.0,0.0,0.0,0.0,0.0,0.0,0.0,0.0,0.0,0.0,0.0,0.0,0.0,0.0,0.0,0.0,0.0,0.0,0.0,0.0,0.0,0.0,0.0,0.0,0.0,0.0,0.0,0.0,0.0,0.0,0.0,0.0,0.0,0.0,0.0,0.0,0.0,0.0,0.0,0.0,0.0,0.0,0.0,0.0,0.0,0.0,0.0,0.0,0.0,0.0,0.0,0.0,0.0,0.0,0.0,0.0,0.0,0.0,0.0,0.0,0.0,0.0,0.0,0.0,0.0,0.0,0.0,0.0,0.0,0.0,0.0,0.0,0.0,0.0,0.0,0.0,0.0,0.0,0.0,0.0,0.0,0.0,0.0,0.0,0.0,0.0,0.0,0.0,0.0,0.0,0.0,0.0,0.0,0.0,0.0,0.0,0.0,0.0,0.0,0.0,0.0,0.0,0.0,0.0,0.0,0.0,0.0,0.0,0.0,0.0,0.0,0.0,0.0,0.0,0.0,0.0,0.0,0.0,0.0,0.0,0.0,0.0,0.0,0.0,0.0,0.0,0.0,0.0,0.0,0.0,0.0,0.0,0.0,0.0,0.0,0.0,0.0,0.0,0.0,0.0,0.0,0.0,0.0,0.0,0.0,0.0,0.0,0.0,0.0,0.0,0.0,0.0,0.0,0.0,0.0,0.0,0.0,0.0,0.0,0.0,0.0,0.0,0.0,0.0,0.0,0.0,0.0,0.0,0.0,0.0,0.0,0.0,0.0,0.0,0.0,0.0,0.0,0.0,0.0,0.0,0.0,0.0,0.0,0.0,0.0,0.0,0.0,0.0,0.0,0.0,0.0,0.0,0.0,0.0,0.0,0.0,0.0,0.0,0.0,0.0,0.0,0.0,0.0,0.0,0.0,0.0,0.0,0.0,0.0,0.0,0.0,0.0,0.0,0.0,0.0,0.0,0.0,0.0,0.0,0.0,0.0,0.0,0.0,0.0,0.0,0.0,0.0,0.0,0.0,0.0,0.0,0.0,0.0,0.0,0.0,0.0,0.0,0.0,0.0,0.0,0.0,0.0,0.0,0.0,0.0,0.0,0.0,0.0,0.0,0.0,0.0,0.0,0.0,0.0,0.0,0.0,0.0,0.0,0.0,0.0,0.0,0.0,0.0,0.0,0.0,0.0,0.0,0.0,0.0,0.0,0.0,0.0,0.0,0.0,0.0,0.0,0.0,0.0,0.0,0.0,0.0,0.0,0.0,0.0,0.0,0.0,0.0,0.0,0.0,0.0,0.0,0.0,0.0,0.0,0.0,0.0,0.0,0.0,0.0,0.0,0.0,0.0,0.0,0.0,0.0,0.0,0.0,0.0,0.0,0.0,0.0,0.0,0.0,0.0,0.0,0.0,0.0,0.0,0.0,0.0,0.0,0.0,0.0,0.0,0.0,0.0,0.0,0.0,0.0,0.0,0.0,0.0,0.0,0.0,0.0,0.0,0.0,0.0,0.0,0.0,0.0,0.0,0.0,0.0,0.0,0.0,0.0,0.0,0.0,0.0,0.0,0.0,0.0,0.0,0.0,0.0,0.0,0.0,0.0,0.0,0.0,0.0,0.0,0.0,0.0,0.0,0.0,0.0,0.0,0.0,0.0,0.0,0.0,0.0,0.0,0.0,0.0,0.0,0.0,0.0,0.0,0.0,0.0,0.0,0.0,0.0,0.0,0.0,0.0,0.0,0.0,0.0,0.0,0.0,0.0,0.0,0.0,0.0,0.0,0.0,0.0,0.0,0.0,0.0,0.0,0.0,0.0,0.0,0.0,0.0,0.0,0.0,0.0,0.0,0.0,0.0,0.0,0.0,0.0,0.0,0.0,0.0,0.0,0.0,0.0,0.0,0.0,0.0,0.0,0.0,0.0,0.0,0.0,0.0,0.0,0.0,0.0,0.0,0.0,0.0,0.0,0.0,0.0,0.0,0.0,0.0,0.0,0.0,0.0,0.0,0.0,0.0,0.0,0.0,0.0,0.0,0.0,0.0,0.0,0.0,0.0,0.0,0.0,0.0,0.0,0.0,0.0,0.0,0.0,0.0,0.0,0.0,0.0,0.0,0.0,0.0,0.0,0.0,0.0,0.0,0.0,0.0,0.0,0.0,0.0,0.0,0.0,0.0,0.0,0.0,0.0,0.0,0.0,0.0,0.0,0.0,0.0,0.0,0.0,0.0,-0.5149,0.0,0.0,0.0,0.0,0.0,0.0,0.0,0.0,0.0,0.0,0.0,0.0,0.0,0.0,0.0,0.0,0.0,0.0,0.0,0.0,0.0,0.0,0.0,0.0,0.0,0.0,0.0,0.0,0.0,0.0,0.0,0.0,0.0,0.0,0.0,0.0,0.0,0.0,0.0,-1.3711,-1.4226,-1.4841,-1.3927,-1.3352,-1.3026,0.0,0.0,0.0,0.0,0.0,0.0,0.0,0.0,0.0,0.0,0.0,0.0,0.0,0.0,0.0,0.0,0.0,0.0,0.0,0.0,0.0,0.0,0.0,0.0,0.0,0.0,0.0,0.0,0.0,0.0,0.0,0.0,0.0,0.0,0.0,0.0,0.0,0.0,0.0,0.0,0.0,0.0,0.0,0.0,0.0,0.0,0.0,0.0,0.0,0.0,0.0,0.0,0.0,0.0,0.0,0.0,0.0,0.0,0.0,0.0,0.0,0.0,0.0,0.0,0.0,0.0,0.0,0.0,0.0,0.0,0.0,-0.5847,0.0,0.0,0.0,0.0,0.0,0.0,0.0,0.0,0.0,0.0,0.0,0.0,0.0,0.0,0.0,0.0,0.0,0.0,0.0,0.0,0.0,0.0,0.0,-1.7402,-1.7392,-1.6901,-1.7052,-1.701,0.0,0.0,0.0,0.0,0.0,0.0,0.0,-1.4369,-1.398,-1.3868,-1.4721,-1.5577,-1.6413,-1.5699,-1.5313,-1.5157,-1.3193,0.0,0.0,0.0,0.0,0.0,0.0,0.0,0.0,0.0,0.0,0.0,0.0,0.0,0.0,0.0,0.0,0.0,0.0,0.0,0.0,0.0,0.0,0.0,0.0,0.0,0.0,0.0,0.0,0.0,0.0,0.0,0.0,0.0,0.0,0.0,0.0,0.0,0.0,0.0,0.0,0.0,0.0,0.0,0.0,0.0,0.0,0.0,0.0,0.0,0.0,0.0,0.0,0.0,0.0,0.0,0.0,0.0,0.0,0.0,0.0,0.0,0.0,0.0,-0.8953,-0.9201,-0.7892,-0.8897,-0.9285,-0.8991,-0.7641,-0.6905,-0.6493,-0.4365,0.0,0.0,0.0,0.0,0.0,0.0,0.0,0.0,0.0,0.0,0.0,0.0,0.0,0.0,0.0,0.0,0.0,0.0,0.0,0.0,0.0,-1.759,-1.78,-1.7502,-1.7455,-1.7415,-1.7368,0.0,0.0,0.0,0.0,0.0,-1.5074,-1.489,-1.4828,-1.4907,-1.6268,-1.734,-1.8077,-1.7462,-1.7658,-1.8435,-1.5694,-1.4371,-1.4105,0.0,0.0,0.0,0.0,0.0,0.0,0.0,0.0,0.0,0.0,0.0,0.0,0.0,0.0,0.0,0.0,0.0,0.0,0.0,0.0,0.0,0.0,0.0,0.0,0.0,0.0,0.0,0.0,0.0,0.0,0.0,0.0,0.0,0.0,0.0,0.0,0.0,0.0,0.0,0.0,0.0,-0.7482,-0.9058,0.0,0.0,0.0,0.0,0.0,0.0,0.0,0.0,0.0,0.0,0.0,0.0,0.0,-0.8074,-0.8978,-0.9247,-0.9628,-1.003,-1.0558,-1.0843,-1.079,-1.0309,-1.0097,-1.0074,-0.9868,0.0,-0.7626,-0.6424,0.0,0.0,0.0,0.0,0.0,0.0,0.0,0.0,0.0,0.0,0.0,0.0,0.0,0.0,0.0,0.0,0.0,0.0,0.0,0.0,0.0,-1.857,-1.8763,-1.8001,-1.8888,-1.8987,-1.7905,-1.7937,0.0,0.0,0.0,-1.5907,-1.5667,-1.5535,-1.6248,-1.7837,-1.8547,-1.9524,-2.0737,-2.0334,-2.0157,-2.0168,-1.9049,-1.7447,-1.555,-1.4805,0.0,0.0,0.0,0.0,0.0,0.0,0.0,0.0,0.0,0.0,0.0,0.0,0.0,0.0,0.0,0.0,0.0,0.0,0.0,0.0,0.0,0.0,0.0,0.0,0.0,0.0,0.0,0.0,0.0,0.0,0.0,0.0,0.0,0.0,0.0,0.0,0.0,0.0,0.0,-0.7709,-0.9216,-0.8977,-0.951,-0.9345,0.0,0.0,0.0,0.0,0.0,0.0,0.0,0.0,0.0,-0.9599,-0.9628,-0.9732,-0.9993,-1.0461,-1.091,-1.1209,-1.1396,-1.1757,-1.2245,-1.1404,-1.1045,-1.0984,-1.0688,-1.0128,-0.9292,-0.7779,-0.6418,-0.5184,0.0,0.0,0.0,0.0,-0.4174,-0.4251,0.0,0.0,0.0,0.0,0.0,0.0,0.0,0.0,0.0,0.0,0.0,0.0,-1.8896,-1.9613,-1.9752,-1.9092,-2.0078,-2.0147,-1.8638,-1.8789,-1.841,0.0,-1.6818,-1.648,-1.6301,-1.662,-1.7966,-2.037,-2.0684,-2.1649,-2.3259,-2.3004,-2.2783,-2.2561,-2.2362,-2.0527,-1.7444,-1.6761,-1.5305,-1.3423,0.0,0.0,0.0,0.0,0.0,0.0,0.0,0.0,0.0,0.0,0.0,0.0,0.0,0.0,0.0,0.0,0.0,0.0,0.0,0.0,0.0,0.0,0.0,0.0,0.0,0.0,0.0,0.0,0.0,0.0,0.0,0.0,0.0,0.0,0.0,0.0,0.0,-0.9262,-1.0496,-0.9667,-1.0505,-1.0711,0.0,0.0,0.0,0.0,0.0,0.0,-1.1659,-1.1102,-1.1033,-1.1608,-1.1458,-1.1263,-1.1189,-1.1554,-1.1886,-1.2025,-1.2104,-1.2401,-1.2746,-1.2209,-1.1847,-1.162,-1.1192,-1.0912,-1.0569,-0.8922,-0.7752,-0.6951,-0.6112,-0.5403,-0.4779,-0.4787,-0.4883,-0.5111,0.0,0.0,0.0,0.0,0.0,0.0,0.0,0.0,0.0,0.0,0.0,-1.9697,-2.0425,-2.0429,-2.0606,-2.1186,-2.057,-2.0025,-1.9734,-1.8746,-1.8014,-1.7687,-1.728,-1.6986,-1.6876,-1.8361,-1.9857,-2.1313,-2.2299,-2.3535,-2.5045,-2.486,-2.5535,-2.6842,-2.5384,-2.3036,-2.0104,-1.8619,-1.7543,-1.6607,-1.3974,0.0,0.0,0.0,0.0,0.0,0.0,0.0,0.0,0.0,0.0,0.0,0.0,0.0,0.0,0.0,0.0,0.0,0.0,0.0,0.0,0.0,0.0,0.0,0.0,0.0,0.0,0.0,0.0,0.0,0.0,0.0,0.0,0.0,0.0,0.0,0.0,0.0,0.0,-1.2765,-1.2686,0.0,0.0,0.0,0.0,-1.3576,-1.3126,-1.3235,-1.4162,-1.317,-1.2983,-1.3813,-1.2777,-1.2365,-1.2708,-1.2804,-1.2805,-1.2824,-1.293,-1.2775,-1.2559,-1.2644,-1.2444,-1.2123,-1.1945,-1.1564,-1.1003,-0.9886,-0.8663,-0.7517,-0.709,-0.6075,-0.4993,-0.5783,-0.6092,-0.627,0.0,0.0,0.0,0.0,0.0,0.0,0.0,0.0,-1.7809,-1.9101,-1.9884,-2.0633,-2.1421,-2.1884,-2.2223,-2.2464,-2.2208,-2.1533,-2.0335,-1.9219,-1.8686,-1.8853,-1.8092,-1.8326,-1.9765,-2.0873,-2.2235,-2.383,-2.5176,-2.6226,-2.7063,-2.7435,-2.7746,-2.8031,-2.742,-2.6257,-2.4619,-2.2362,-2.0165,-1.814,-1.6775,-1.4653,0.0,0.0,0.0,0.0,0.0,0.0,0.0,0.0,0.0,0.0,0.0,0.0,0.0,0.0,0.0,0.0,0.0,0.0,0.0,0.0,0.0,0.0,0.0,0.0,0.0,0.0,0.0,0.0,0.0,0.0,0.0,0.0,0.0,0.0,0.0,0.0,0.0,-1.3918,-1.4768,0.0,-1.2908,-1.3186,-1.343,-1.3459,-1.3553,-1.4186,-1.5548,-1.4396,-1.4157,-1.5094,-1.4045,-1.3407,-1.3327,-1.3539,-1.3602,-1.3437,-1.3451,-1.3278,-1.3105,-1.295,-1.2859,-1.2754,-1.2334,-1.1968,-1.1588,-1.1045,-0.9991,-0.8685,-0.8372,-0.7746,-0.7053,-0.7186,-0.75,-0.7824,0.0,0.0,0.0,0.0,0.0,0.0,0.0,0.0,-1.7979,-1.9593,-2.0425,-2.119,-2.207,-2.2843,-2.3377,-2.3619,-2.3124,-2.2136,-2.059,-1.9534,-1.8914,-1.8827,-1.8903,-1.99,-2.1933,-2.3267,-2.4649,-2.6061,-2.7513,-2.8501,-2.9042,-2.9506,-2.9708,-2.9712,-2.9671,-2.9347,-2.8718,-2.6504,-2.3576,-2.0295,-1.9455,-1.7398,-1.4644,0.0,0.0,0.0,0.0,0.0,0.0,0.0,0.0,0.0,0.0,0.0,0.0,0.0,0.0,0.0,0.0,0.0,0.0,0.0,0.0,0.0,0.0,0.0,0.0,0.0,0.0,0.0,0.0,0.0,0.0,0.0,0.0,0.0,0.0,0.0,-1.5239,-1.4879,-1.6468,-1.6576,-1.3894,-1.4529,-1.499,-1.4755,-1.5223,-1.5905,-1.6821,-1.5716,-1.5233,-1.5614,-1.4613,-1.3988,-1.3794,-1.382,-1.3737,-1.3568,-1.3476,-1.3307,-1.3137,-1.3052,-1.2966,-1.2954,-1.2608,-1.2294,-1.2041,-1.1706,-1.0789,-0.9664,-0.9281,-0.8795,-0.8387,-0.827,-0.8491,-0.8822,0.0,0.0,0.0,0.0,0.0,0.0,0.0,-1.7443,-1.8032,-1.9777,-2.062,-2.1431,-2.2426,-2.3202,-2.3941,-2.4685,-2.3164,-2.1712,-2.0643,-1.9579,-1.8565,-1.7595,-1.9714,-2.1643,-2.3193,-2.5473,-2.7038,-2.7888,-2.919,-3.0209,-3.0924,-3.0941,-3.1377,-3.2143,-3.2179,-3.2196,-3.2126,-3.0932,-2.7816,-2.3476,-2.1874,-2.0193,-1.8252,0.0,0.0,0.0,0.0,0.0,0.0,0.0,0.0,0.0,0.0,0.0,0.0,0.0,0.0,0.0,0.0,0.0,0.0,0.0,0.0,0.0,0.0,0.0,0.0,0.0,0.0,0.0,0.0,0.0,0.0,0.0,0.0,0.0,-1.3513,-1.5515,-1.6818,-1.5948,-1.783,-1.8178,-1.5403,-1.6911,-1.8024,-1.7729,-1.8322,-1.8464,-1.8043,-1.7172,-1.6281,-1.5394,-1.458,-1.4088,-1.4088,-1.3652,-1.3398,-1.3392,-1.296,-1.2705,-1.2705,-1.2705,-1.2705,-1.2705,-1.2705,-1.2554,-1.223,-1.181,-1.1172,-1.0509,-0.9807,-0.9175,-0.8765,-0.9034,-0.9133,-0.9054,0.0,0.0,0.0,0.0,0.0,0.0,0.0,-1.7627,-1.8209,-1.9868,-2.1291,-2.2514,-2.3414,-2.4263,-2.5043,-2.573,-2.3139,-2.1576,-2.1778,-1.8623,-1.7237,-1.8466,-2.1893,-2.4444,-2.5903,-2.704,-2.8275,-2.9602,-3.0372,-3.0868,-3.1128,-3.1855,-3.2626,-3.3402,-3.3651,-3.4053,-3.4505,-3.3844,-3.2354,-3.0041,-2.5743,-2.2887,-2.0991,0.0,0.0,0.0,0.0,0.0,0.0,0.0,0.0,0.0,0.0,0.0,0.0,0.0,0.0,0.0,0.0,0.0,0.0,0.0,0.0,0.0,0.0,0.0,0.0,0.0,0.0,0.0,0.0,0.0,0.0,0.0,0.0,-1.8159,-1.7179,-1.8416,-1.9315,-1.8973,-1.9613,-1.9466,-1.7827,-1.8046,-1.8238,-1.8027,-1.8155,-1.8069,-1.7578,-1.6724,-1.5959,-1.5387,-1.458,-1.4088,-1.4088,-1.3737,-1.3561,-1.3398,-1.3137,-1.2875,-1.2705,-1.2705,-1.2705,-1.2705,-1.2705,-1.2554,-1.223,-1.181,-1.1172,-1.0525,-0.9823,-0.9513,-0.9379,-0.9299,-0.937,-0.9419,0.0,0.0,0.0,0.0,0.0,0.0,0.0,-1.8045,-1.8712,-2.0012,-2.16,-2.2824,-2.3413,-2.4207,-2.4867,-2.5279,-2.2543,-2.0773,-2.0783,-1.834,-1.8024,-2.055,-2.3906,-2.6372,-2.7752,-2.9044,-3.0071,-3.0876,-3.1718,-3.2126,-3.2195,-3.3257,-3.3995,-3.4456,-3.5141,-3.5865,-3.6558,-3.6247,-3.5598,-3.4531,-3.0659,-2.7614,-2.5095,-2.2316,-2.0695,-1.9777,-1.8273,-1.7492,-1.7026,-1.6308,0.0,0.0,0.0,0.0,0.0,0.0,0.0,0.0,0.0,0.0,0.0,0.0,0.0,0.0,0.0,0.0,0.0,0.0,0.0,0.0,0.0,0.0,0.0,0.0,-1.8635,-2.0401,-2.0621,-2.0803,-2.1051,-2.1256,-2.0968,-2.0227,-1.891,-1.9051,-1.8954,-1.8394,-1.8522,-1.8166,-1.7188,-1.6637,-1.5932,-1.4901,-1.445,-1.4208,-1.4088,-1.3854,-1.3592,-1.3398,-1.3052,-1.2875,-1.2705,-1.2705,-1.2705,-1.2705,-1.2705,-1.251,-1.2219,-1.1792,-1.1343,0.0,0.0,0.0,0.0,0.0,-0.9592,-0.9762,0.0,0.0,0.0,0.0,0.0,0.0,0.0,-1.8465,-1.9219,-2.02,-2.1604,-2.2589,-2.2755,-2.3357,-2.3809,-2.3951,-2.1493,-1.9547,-1.864,-1.8851,-2.027,-2.3054,-2.5709,-2.774,-2.9072,-3.1056,-3.2031,-3.1974,-3.3101,-3.3653,-3.3741,-3.4813,-3.5426,-3.5623,-3.6689,-3.7653,-3.8492,-3.8303,-3.799,-3.7471,-3.5709,-3.2995,-2.9625,-2.6151,-2.4747,-2.4245,-2.1282,-1.9771,-1.9011,-1.809,0.0,0.0,0.0,0.0,0.0,0.0,0.0,0.0,0.0,0.0,0.0,0.0,0.0,0.0,0.0,0.0,0.0,0.0,0.0,0.0,0.0,0.0,0.0,0.0,-2.1272,-2.1836,-2.3468,-2.2671,-2.2112,-2.2631,-2.1787,-2.0636,-1.9347,-1.9808,-1.9848,-1.8971,-1.9237,-1.87,-1.7064,0.0,0.0,0.0,0.0,-1.4409,-1.4188,-1.3931,-1.3652,-1.3442,-1.2979,-1.2723,-1.2753,-1.2753,-1.2753,-1.2753,-1.2697,-1.2569,-1.2226,-1.1809,-1.1387,-1.1101,-1.0239,-0.9751,-0.9417,-0.9527,-0.9709,-0.9927,0.0,0.0,0.0,0.0,0.0,0.0,0.0,-1.8012,-1.8672,-2.0254,-2.1327,-2.1971,-2.2018,-2.2138,-2.2458,-2.2999,-2.0121,-1.8133,-1.7834,-2.0977,-2.3058,-2.3556,-2.71,-2.9438,-3.0251,-3.1722,-3.293,-3.3813,-3.4194,-3.4555,-3.4886,-3.5665,-3.6723,-3.8034,-3.8483,-3.9505,-4.091,-4.0498,-4.0073,-3.9553,-3.7715,-3.4903,-3.1665,-2.998,-2.8545,-2.7271,-2.6214,-2.5228,-2.4177,-2.2512,-2.1711,-2.102,-1.8878,-1.7737,0.0,0.0,0.0,0.0,0.0,0.0,0.0,0.0,0.0,0.0,0.0,0.0,0.0,0.0,0.0,0.0,0.0,0.0,0.0,-2.1217,-2.2596,-2.3738,-2.4486,-2.3231,-2.211,-2.1829,-2.1481,-2.1015,-2.0484,-2.0477,-2.0338,-2.0182,-2.0237,-1.9847,-1.8744,-1.7977,-1.7023,-1.598,-1.5039,-1.4609,-1.479,-1.3937,-1.3557,-1.3722,0.0,0.0,-1.3043,-1.3043,-1.3043,-1.2967,-1.2814,-1.254,-1.2243,-1.1621,-1.0985,-1.0495,-1.0332,-1.0071,-0.9833,-0.926,-0.9474,-0.9941,0.0,0.0,0.0,0.0,0.0,0.0,0.0,-1.8008,-1.8886,-1.9785,-2.101,-2.1798,-2.18,-2.1411,-2.1274,-2.1623,-1.9292,-1.7945,-1.828,-2.1442,-2.4032,-2.5635,-2.877,-3.097,-3.1974,-3.2933,-3.3836,-3.4641,-3.5041,-3.555,-3.619,-3.7076,-3.8195,-3.9405,-3.9677,-4.0719,-4.2225,-4.193,-4.1449,-4.0785,-3.9417,-3.7353,-3.4833,-3.285,-3.1356,-3.0182,-2.8851,-2.7386,-2.5782,-2.4197,-2.3053,-2.2102,-2.0674,-1.9514,-1.8385,0.0,0.0,0.0,0.0,0.0,0.0,0.0,0.0,0.0,0.0,0.0,0.0,0.0,0.0,-1.6999,0.0,0.0,-2.1724,-2.3346,-2.3699,-2.3881,-2.4242,-2.3183,-2.2477,-2.2659,-2.1971,-2.1391,-2.1146,-2.0716,-2.0521,-2.0521,-2.0338,-1.9883,-1.9213,-1.8087,-1.7125,-1.6419,-1.5182,-1.4502,-1.4566,-1.4057,-1.3654,-1.3429,-1.3089,-1.2988,-1.3127,-1.3127,-1.2945,-1.278,-1.2666,-1.227,-1.1625,-1.1126,-1.0508,-0.9857,-0.9763,-0.9544,-0.928,-0.8931,-0.9017,-0.9366,0.0,0.0,0.0,0.0,0.0,0.0,0.0,-1.7843,-1.8785,-1.9028,-2.0215,-2.1069,-2.1054,-2.0437,-1.9946,-1.9782,-1.8889,-1.859,-1.922,-2.1764,-2.4677,-2.7901,-3.0369,-3.2325,-3.3696,-3.435,-3.496,-3.5533,-3.6064,-3.6795,-3.7699,-3.8696,-3.9682,-4.0685,-4.0896,-4.1792,-4.3152,-4.3052,-4.2512,-4.1658,-4.0612,-3.93,-3.7659,-3.4932,-3.3431,-3.2496,-3.0303,-2.8167,-2.6126,-2.4651,-2.3305,-2.2152,-2.1771,-2.0789,-1.9699,-1.9154,-1.8002,0.0,0.0,0.0,0.0,0.0,0.0,0.0,0.0,0.0,-1.7132,-1.8056,-1.9338,-2.0767,-2.2278,-2.2773,-2.3575,-2.5447,-2.4535,-2.3635,-2.3816,-2.296,-2.2659,-2.3335,-2.2463,-2.1692,-2.1525,-2.1029,-2.0759,-2.0759,-2.0466,-2.0075,-1.9687,-1.83,-1.7282,-1.6772,-1.5297,-1.4482,-1.433,-1.4174,-1.3856,-1.3219,-1.313,-1.3127,-1.3127,-1.3127,-1.2857,-1.242,-1.2344,-1.1802,-1.088,-1.0461,-0.9956,-0.9376,-0.8919,-0.8656,-0.8462,-0.8321,-0.8333,-0.8593,0.0,0.0,0.0,0.0,0.0,0.0,0.0,0.0,-1.7263,-1.8047,-1.8308,-1.8432,-1.8437,-1.834,-1.7966,-1.7199,-1.9016,-2.0212,-2.0244,-2.336,-2.6396,-2.9093,-3.1465,-3.3423,-3.4885,-3.5627,-3.6456,-3.7396,-3.7776,-3.8542,-3.9674,-4.0179,-4.1204,-4.2687,-4.2725,-4.3218,-4.4046,-4.4042,-4.3517,-4.2521,-4.0882,-3.9658,-3.8591,-3.5989,-3.4497,-3.3397,-3.0854,-2.8594,-2.6547,-2.4702,-2.3309,-2.2148,-2.1333,-2.0963,-2.0512,-1.8797,0.0,-1.6681,-1.6427,-1.6124,0.0,-1.8333,-1.855,-1.8993,0.0,0.0,-2.1592,-2.2127,-2.2729,-2.3456,-2.4366,-2.4717,-2.5137,-2.6165,-2.4914,-2.3876,-2.4074,-2.2975,-2.216,-2.2064,-2.2048,-2.1989,-2.1667,-2.1621,-2.1603,-2.1603,-2.1557,-2.1469,-2.1416,-1.9415,-1.816,-1.8111,-1.5753,-1.4592,-1.4917,-1.4174,-1.3869,-1.3789,-1.3312,-1.3127,-1.3127,-1.3127,-1.2857,-1.2326,-1.1547,-1.0935,-1.0619,-0.9726,-0.9302,-0.91,-0.7663,-0.7407,-0.7707,-0.7232,-0.7369,-0.7807,0.0,0.0,0.0,0.0,0.0,0.0,0.0,0.0,0.0,-1.7123,-1.7638,-1.7966,-1.8002,-1.8006,-1.7851,-1.7489,-1.8869,-2.0168,-2.1146,-2.3949,-2.6946,-3.0083,-3.2084,-3.4052,-3.6047,-3.6349,-3.7071,-3.823,-3.8365,-3.8893,-3.9776,-3.9937,-4.0645,-4.1742,-4.2136,-4.2744,-4.3543,-4.3937,-4.3336,-4.205,-4.0843,-3.8993,-3.67,-3.4324,-3.2248,-3.0554,-2.9369,-2.6992,0.0,-2.2921,-2.1854,-2.1013,-2.0599,-2.0162,-1.9612,-1.8798,-1.8293,0.0,-1.8482,0.0,0.0,0.0,-2.1108,-2.1996,-2.2629,-2.3381,-2.394,-2.4206,-2.5207,-2.6009,-2.6134,-2.6294,-2.621,0.0,-2.4703,-2.3846,-2.3444,-2.2378,-2.1455,-2.0968,-2.0791,-2.0848,-2.1247,-2.0679,-2.0613,-2.1319,-2.0943,-2.0721,-2.0872,-1.8977,-1.7885,-1.7743,-1.5694,-1.4611,-1.4823,-1.4166,-1.3603,-1.3218,-1.2934,-1.288,-1.288,-1.2614,-1.2258,-1.1796,-1.081,-1.038,-1.0381,-0.9901,-0.919,-0.8286,-0.7683,-0.7267,-0.7215,-0.7187,-0.7436,-0.7786,0.0,0.0,0.0,0.0,0.0,0.0,0.0,0.0,0.0,0.0,-1.6785,-1.7287,-1.7582,-1.7835,-1.7964,-1.7969,-1.8944,-2.0095,-2.1356,-2.3833,-2.67,-2.994,-3.1937,-3.4166,-3.6726,-3.6957,-3.7713,-3.9048,-3.9048,-3.9402,-4.0094,-4.0104,-4.0489,-4.123,-4.1946,-4.2539,-4.3048,-4.352,-4.2811,-4.127,-4.0004,-3.765,-3.4637,-3.2074,-2.9458,-2.7091,-2.684,-2.471,-2.1839,-2.0814,-1.9974,-1.9351,-1.947,-1.9095,-1.8627,-1.8623,-1.863,-1.8874,-1.9827,0.0,0.0,-2.2309,-2.3782,-2.4848,-2.4203,-2.5199,-2.6198,-2.6033,-2.6824,-2.7394,-2.6991,-2.6611,-2.5902,-2.4966,-2.4132,-2.3458,-2.2708,-2.1805,-2.086,-2.022,-1.9593,-1.9481,-2.004,-1.9602,-1.9714,-2.0704,-2.0356,-2.009,-2.0142,-1.8701,-1.7683,-1.7172,-1.5484,-1.4559,-1.4409,-1.4038,-1.3434,-1.2705,-1.2705,-1.2705,-1.2705,-1.21,-1.1641,-1.1202,-1.0372,-0.9953,-0.9901,-0.9569,-0.8627,-0.7482,-0.7309,-0.7044,-0.6854,-0.7187,-0.7408,-0.7494,0.0,0.0,0.0,0.0,0.0,0.0,0.0,0.0,0.0,0.0,0.0,0.0,0.0,-1.7404,-1.7907,-1.7899,-1.9462,-2.0486,-2.0537,-2.2994,-2.5586,-2.8179,-3.0757,-3.3565,-3.6637,-3.7528,-3.8678,-4.0157,-4.0157,-4.0559,-4.136,-4.1352,-4.1661,-4.229,-4.3108,-4.3282,-4.2988,-4.3015,-4.2063,-4.0311,-3.7957,-3.554,-3.3032,-2.9814,-2.6671,-2.3852,-2.3284,-2.1983,-2.0332,-1.8873,-1.7808,-1.7212,-1.7787,-1.7951,0.0,-1.8074,-1.7983,-1.8111,0.0,0.0,-2.1744,-2.5574,-2.6944,-2.7379,-2.7566,-2.849,-2.8949,-2.7863,-2.7359,-2.6991,-2.6574,-2.5068,-2.3886,-2.3836,-2.3092,-2.2444,-2.2283,-2.1549,-2.0684,-1.985,-1.8648,-1.8015,0.0,-1.8871,-1.9485,-1.9934,-2.0301,-2.0251,-1.9789,-1.8799,-1.7897,-1.6926,-1.5451,-1.4371,-1.3837,-1.3649,-1.3237,-1.2705,-1.2705,-1.2705,-1.2705,-1.1752,-1.1205,-1.0985,-1.0309,-0.9602,-0.8899,-0.8189,-0.7482,-0.6779,-0.6083,-0.6169,-0.6779,-0.6773,-0.6861,-0.6684,0.0,0.0,0.0,0.0,0.0,0.0,0.0,0.0,0.0,0.0,0.0,0.0,0.0,0.0,0.0,0.0,-1.928,-2.0133,-2.1294,-2.273,-2.4433,-2.6445,-2.8455,-3.0782,-3.3526,-3.4431,-3.5599,-3.7089,-3.761,-3.795,-3.8091,-3.8631,-3.8995,-3.92,-3.9887,-4.0101,-3.9974,-4.0371,-3.9407,-3.7525,-3.6042,-3.344,-3.0205,-2.7382,-2.4653,-2.2134,0.0,-1.9313,-1.8127,-1.7354,-1.673,-1.6275,-1.6293,-1.6262,-1.6325,-1.7026,-1.8121,-1.9608,-2.1787,0.0,-2.5797,-2.7926,-2.8932,-2.9214,-2.8905,-2.8859,-2.8462,-2.694,-2.563,-2.4418,-2.3333,-2.2234,-2.1634,-2.1954,-2.1945,-2.1935,-2.214,-2.1436,-2.0448,-1.9051,-1.862,0.0,0.0,0.0,0.0,-1.9439,-1.8975,-1.8684,-1.8685,-1.7733,-1.6828,-1.5929,-1.5101,-1.4455,-1.4085,-1.3554,-1.3063,-1.2699,-1.2187,-1.1769,-1.1528,-1.1255,-1.0828,-1.0328,-1.0224,-0.9725,-0.889,-0.9157,-0.8277,-0.6779,-0.7044,-0.6956,-0.6779,-0.6257,-0.6343,-0.6779,0.0,0.0,0.0,0.0,0.0,0.0,0.0,0.0,0.0,0.0,0.0,0.0,0.0,0.0,0.0,0.0,0.0,-1.9656,-2.0792,-2.2008,-2.3306,-2.4711,-2.6403,-2.8359,-3.0597,-3.1471,-3.253,-3.3781,-3.4584,-3.4919,-3.482,-3.5638,-3.5967,-3.5897,-3.6577,-3.6798,-3.6713,-3.7057,-3.6168,-3.4402,-3.2775,-3.0225,-2.7126,-2.4523,-2.2289,0.0,-1.8831,-1.7691,-1.6876,-1.6581,-1.6191,-1.5901,-1.598,-1.6139,-1.6496,-1.7274,-1.9103,-2.1413,-2.4057,-2.627,-2.8326,-2.9997,-3.0187,-2.9974,-2.9503,-2.8583,-2.7322,-2.5852,-2.3955,-2.2161,-2.1074,-1.991,-1.9363,-1.994,-2.0072,-2.0407,-2.1205,-2.0457,-1.959,-1.9056,-1.869,-1.821,0.0,0.0,0.0,-1.836,-1.8351,-1.8052,-1.7524,-1.7152,-1.6458,-1.5458,-1.5078,-1.4562,-1.3989,-1.3377,-1.2934,-1.2566,-1.1977,-1.1567,-1.115,-1.0942,-1.0563,-1.0069,-0.986,-0.9451,-0.889,-0.9157,-0.8364,-0.7217,-0.7394,-0.7217,-0.6691,-0.5997,-0.5994,-0.6432,0.0,0.0,0.0,0.0,0.0,0.0,0.0,0.0,0.0,0.0,0.0,0.0,0.0,0.0,0.0,0.0,0.0,0.0,-1.9194,-2.0855,-2.2172,-2.2933,-2.4594,-2.6266,-2.7902,-2.8723,-2.9567,-3.0447,-3.1246,-3.1639,-3.1659,-3.257,-3.2868,-3.2641,-3.3393,-3.3582,-3.3352,-3.3223,-3.2418,-3.1065,-2.8393,-2.6098,-2.3989,-2.1422,-1.9778,-1.8704,-1.7823,-1.7126,-1.6623,-1.651,-1.6286,-1.6156,-1.6879,-1.7662,-1.8382,-1.895,-2.0937,-2.3537,-2.6184,-2.7882,-2.9411,-3.1685,-3.0881,-2.956,-2.9439,-2.7746,-2.5822,-2.4514,-2.217,-2.0198,0.0,0.0,-1.7061,-1.797,-1.7922,-1.8142,-1.9547,-1.8789,-1.8564,0.0,0.0,0.0,0.0,0.0,0.0,-1.7013,0.0,-1.8181,-1.6374,-1.689,-1.6662,-1.552,-1.5235,-1.4551,-1.3548,-1.3191,-1.2843,-1.2337,-1.2076,-1.1793,-1.1577,-1.0932,-1.0514,-1.0249,-0.9345,-0.8995,-0.889,-0.8185,-0.7834,-0.7658,-0.7129,-0.6779,-0.6691,-0.5997,-0.5733,-0.5733,0.0,0.0,0.0,0.0,0.0,0.0,0.0,0.0,0.0,0.0,0.0,0.0,0.0,0.0,0.0,0.0,0.0,0.0,-1.9085,-2.0207,-2.096,-2.1155,-2.2264,-2.3348,-2.4372,-2.5233,-2.6071,-2.6895,-2.7757,-2.8145,-2.8129,-2.9605,-3.0257,-3.0211,-3.0917,-3.0758,-2.9937,-2.9805,-2.8652,-2.6788,-2.539,-2.3963,-2.2481,-2.0436,-1.9447,-1.8956,-1.7933,-1.7408,0.0,0.0,0.0,0.0,0.0,-1.9691,-2.007,-2.2483,-2.4746,-2.6946,-2.9024,-3.0809,-3.227,-3.2776,-3.1182,-2.9318,-2.8563,-2.6346,-2.373,-2.1354,-1.8666,-1.6511,0.0,0.0,0.0,-1.6835,-1.8234,0.0,-2.0482,-2.0634,0.0,-1.9989,0.0,-2.0072,-1.9366,-2.0026,0.0,0.0,-1.7754,-1.7243,-1.6592,-1.6364,-1.5819,-1.5132,-1.4739,-1.4153,-1.3548,-1.3083,-1.2741,-1.2608,-1.1815,-1.144,-1.1342,-1.0831,-1.0452,-1.0045,-1.012,-0.9692,-0.889,-0.9331,-0.854,-0.7129,-0.7394,-0.6871,-0.5997,-0.5733,-0.5733,-0.5733,0.0,0.0,0.0,0.0,0.0,0.0,0.0,0.0,0.0,0.0,0.0,0.0,0.0,0.0,0.0,0.0,0.0,0.0,0.0,-1.9173,-1.9938,-1.9938,-2.0837,-2.1549,-2.1998,-2.2457,-2.2929,-2.3416,-2.4255,-2.4637,-2.4632,-2.5932,-2.6547,-2.6544,-2.6911,-2.6691,-2.6066,-2.6236,-2.5567,0.0,0.0,-2.2193,-2.1125,-1.9495,-1.8726,-1.8398,-1.7652,0.0,0.0,0.0,0.0,-2.0883,-2.1873,-2.284,-2.38,-2.4942,0.0,-3.013,-3.1612,-3.2838,-3.359,-3.293,-3.0831,-2.8479,-2.7024,-2.423,-2.1249,-1.8874,-1.6472,0.0,0.0,0.0,0.0,0.0,0.0,0.0,-1.9761,-2.0209,-2.0493,0.0,-2.0796,0.0,-2.0145,-2.0549,-2.0391,0.0,-1.8696,-1.7921,-1.6813,-1.6493,-1.5866,-1.4929,-1.4498,-1.3954,-1.3291,-1.293,-1.2705,-1.2705,-1.1757,-1.1327,-1.1251,-1.0736,-1.0263,-0.9975,-1.0113,-0.9876,-0.934,-0.9252,-0.8613,-0.7658,-0.7482,-0.6868,-0.6169,-0.5822,-0.5733,-0.5733,0.0,0.0,0.0,0.0,0.0,0.0,0.0,0.0,0.0,0.0,0.0,0.0,0.0,0.0,0.0,0.0,0.0,0.0,0.0,0.0,0.0,-1.9344,-2.0155,-2.0593,-2.0593,-2.0547,-2.0547,-2.0594,-2.1299,-2.1626,-2.1623,-2.2444,-2.2824,-2.2824,-2.2866,-2.2747,-2.2537,-2.2996,-2.2977,-2.2544,-2.1473,-2.064,-1.9881,0.0,-1.7961,0.0,0.0,0.0,0.0,0.0,-2.3226,-2.3826,-2.4657,-2.651,-2.8139,-2.7334,-2.9705,-3.2793,-3.3759,-3.417,-3.3951,-3.2659,-3.0119,-2.7391,-2.5384,-2.2019,-1.8783,-1.6975,0.0,-1.3501,-1.341,-1.3016,-1.3095,-1.4387,0.0,-1.6147,-1.8467,-1.888,-1.9622,-2.1438,-2.1071,-2.0814,-2.1163,-2.0833,-2.0305,-1.9763,-1.9949,-1.9159,-1.7017,-1.6757,-1.6026,-1.46,-1.4291,-1.3756,-1.3073,-1.2825,-1.2723,-1.2673,-1.1774,-1.1257,-1.1207,-1.0627,-1.0154,-0.997,-0.9717,-0.9763,-0.9878,-0.8804,-0.8508,-0.8627,-0.7305,-0.6779,-0.6605,-0.5908,-0.5733,-0.5733,0.0,0.0,0.0,0.0,0.0,0.0,0.0,0.0,0.0,0.0,-1.4806,-1.4511,0.0,0.0,0.0,0.0,0.0,0.0,0.0,0.0,0.0,0.0,-2.0447,-2.0593,-2.0593,-2.0597,-2.056,-2.0522,-2.0664,-2.0707,-2.0657,-2.1515,-2.1907,-2.1861,-2.2574,-2.2352,-2.1469,-2.1498,-2.0792,-1.9625,-1.9362,-1.8977,-1.8541,-1.8284,0.0,0.0,0.0,0.0,0.0,0.0,-2.4454,-2.5116,-2.8331,-2.9621,-3.0335,-3.2142,-3.3361,-3.4266,-3.4936,-3.4691,-3.3965,-3.2687,-2.9862,-2.6736,-2.4333,-2.0734,0.0,0.0,-1.332,-1.2054,-1.2292,-1.2438,0.0,-1.4739,0.0,0.0,0.0,0.0,-2.0457,0.0,0.0,0.0,0.0,0.0,0.0,0.0,-1.9548,-1.8633,-1.6987,-1.612,-1.521,-1.406,-1.3554,-1.3103,-1.2783,-1.2729,-1.2561,-1.2334,-1.1684,-1.1173,-1.1013,-1.0522,-1.0154,-1.0052,-1.0126,0.0,-0.9951,-0.9104,-0.8476,-0.7921,-0.7129,-0.6432,-0.5908,-0.5733,-0.5733,-0.5733,0.0,0.0,0.0,0.0,0.0,0.0,0.0,-1.4659,-1.4955,-1.5768,-1.5609,-1.5288,-1.4913,-1.4636,-1.4515,0.0,0.0,0.0,0.0,0.0,0.0,0.0,0.0,0.0,0.0,-2.0551,-2.0521,-2.0504,0.0,-2.0522,-2.046,-2.0884,-2.1024,-2.0946,-2.1369,-2.1174,-2.0511,-2.0417,-1.982,-1.8912,-1.8604,-1.8383,0.0,0.0,0.0,0.0,0.0,0.0,0.0,0.0,-2.2897,-2.3726,-2.8111,-3.0366,-3.1774,-3.3995,-3.4527,-3.4574,-3.5105,-3.478,-3.3792,-3.1654,-2.8716,-2.5537,-2.2372,0.0,0.0,0.0,-1.2745,-1.1916,-1.2089,0.0,0.0,0.0,0.0,0.0,0.0,0.0,0.0,0.0,0.0,0.0,0.0,0.0,0.0,0.0,-1.8709,-1.7671,-1.6594,-1.508,-1.4052,-1.3499,-1.2916,-1.2705,-1.2705,-1.2705,-1.2514,-1.211,-1.1554,-1.1126,-1.0808,-1.0488,-1.0154,-1.0062,-1.0409,-1.0353,-0.9975,-0.9116,-0.8394,-0.7785,-0.6712,-0.6088,-0.5814,-0.5754,-0.5733,-0.5733,0.0,0.0,0.0,0.0,0.0,0.0,0.0,-1.4889,-1.5237,-1.5933,-1.602,-1.5809,-1.5245,-1.486,-1.4569,0.0,0.0,0.0,0.0,0.0,0.0,0.0,0.0,0.0,0.0,0.0,0.0,-2.0505,-2.0566,0.0,0.0,0.0,0.0,0.0,-2.0301,-2.0156,-1.9903,-1.9755,-1.9444,0.0,0.0,-1.8298,0.0,0.0,0.0,0.0,0.0,0.0,0.0,0.0,-2.0602,-2.1435,-2.5468,-2.8754,-3.1522,-3.3254,-3.3913,-3.4166,-3.4752,-3.4361,-3.3164,-3.0425,-2.7444,-2.4192,-2.0433,-1.7219,0.0,0.0,-1.2406,-1.1923,-1.2098,0.0,0.0,0.0,0.0,0.0,0.0,0.0,0.0,0.0,0.0,0.0,0.0,0.0,0.0,0.0,-1.7369,-1.6239,-1.5852,-1.4017,-1.301,-1.3025,-1.2566,-1.2409,-1.262,-1.2674,-1.2478,-1.1922,-1.1521,-1.1029,-1.0607,-1.0341,-1.0159,-1.0107,-1.0518,-1.0461,-1.0028,-0.8885,-0.8337,-0.7953,-0.6459,-0.5904,-0.5888,-0.5776,-0.5733,-0.5733,0.0,0.0,0.0,0.0,0.0,0.0,0.0,-1.4522,-1.503,-1.5116,-1.5116,-1.5119,-1.5107,-1.5276,-1.5127,0.0,0.0,0.0,0.0,0.0,0.0,0.0,0.0,0.0,0.0,0.0,0.0,-2.0508,-2.0566,0.0,0.0,0.0,0.0,0.0,0.0,-2.0172,-1.9973,-1.9778,0.0,0.0,0.0,0.0,0.0,0.0,0.0,0.0,0.0,0.0,0.0,0.0,0.0,-1.9026,-2.0104,-2.384,-2.8042,-2.9154,0.0,0.0,-3.4143,-3.3507,-3.1935,-2.9734,-2.643,-2.2786,-1.9413,0.0,0.0,-1.2841,-1.1818,-1.1242,-1.1987,-1.1519,-1.1369,-1.2303,-1.2757,-1.3442,0.0,0.0,0.0,0.0,0.0,0.0,0.0,0.0,0.0,0.0,-1.5177,-1.4031,-1.4746,-1.3509,-1.2726,-1.2735,-1.2463,-1.2324,-1.2349,-1.2584,-1.2308,-1.1655,-1.1429,-1.1025,-1.0596,-1.0233,-1.0178,-1.0499,-1.0178,-1.022,0.0,-0.8718,-0.811,-0.8113,-0.6495,-0.5904,-0.5888,-0.5776,-0.5733,-0.5733,0.0,0.0,0.0,0.0,0.0,0.0,-1.4309,-1.4721,-1.5087,-1.5488,-1.5593,-1.5471,-1.5141,-1.5337,-1.5188,-1.4399,0.0,0.0,0.0,0.0,0.0,0.0,0.0,0.0,0.0,0.0,0.0,-2.049,-2.0526,0.0,0.0,0.0,0.0,0.0,0.0,-2.0192,-1.9992,-1.9797,0.0,0.0,0.0,0.0,0.0,0.0,0.0,0.0,0.0,0.0,0.0,0.0,0.0,0.0,-1.6676,-1.8794,0.0,0.0,-2.7698,-2.994,-3.1206,-3.1725,-3.095,-2.7341,-2.4747,-2.1939,-1.7955,0.0,-1.3006,-1.2735,-1.1921,-1.1407,-1.1975,-1.1191,-1.0729,-1.173,-1.1152,0.0,0.0,0.0,0.0,0.0,0.0,0.0,0.0,0.0,0.0,-1.5791,-1.4062,-1.3366,-1.3868,-1.2816,-1.228,-1.2457,-1.2216,-1.2155,-1.2312,-1.2572,-1.2238,-1.138,-1.137,-1.0907,-1.0192,-1.0114,-1.0112,-1.0386,-1.0216,-1.031,0.0,-0.8925,-0.832,-0.8281,-0.6709,-0.6078,-0.6007,-0.5961,-0.5855,-0.5744,0.0,0.0,0.0,0.0,0.0,-1.3682,-1.4364,-1.4724,-1.4985,-1.5228,-1.5506,-1.5401,-1.4744,-1.4889,-1.4802,-1.4286,-1.4768,0.0,0.0,0.0,0.0,0.0,0.0,0.0,0.0,0.0,0.0,-2.0465,-2.0518,-2.0527,0.0,0.0,-2.0392,-2.0299,0.0,0.0,0.0,0.0,0.0,0.0,0.0,0.0,0.0,0.0,0.0,0.0,0.0,0.0,0.0,0.0,0.0,0.0,0.0,0.0,0.0,0.0,-2.4336,-2.6438,-2.791,-2.8783,-2.8408,-2.461,-2.2493,-2.0307,0.0,0.0,-1.2426,-1.2205,-1.164,-1.1241,-1.1598,-1.0681,-1.0084,-1.0793,-0.994,-0.9933,-1.1882,0.0,0.0,0.0,0.0,0.0,0.0,0.0,0.0,-1.4576,-1.3457,-1.2864,-1.2971,-1.2215,-1.1962,-1.23,-1.2059,-1.2047,-1.2312,-1.2403,-1.21,-1.1327,-1.1154,-1.0758,-1.0133,-1.0067,-1.0135,-1.0447,-1.0258,-1.04,0.0,-0.9064,-0.8461,-0.8445,-0.686,-0.6217,-0.6135,-0.61,-0.5958,-0.5801,0.0,0.0,0.0,0.0,0.0,0.0,-1.37,-1.4392,-1.4618,-1.382,-1.4427,-1.4585,-1.3708,-1.3806,-1.3966,-1.4082,-1.5429,0.0,0.0,0.0,0.0,0.0,0.0,0.0,0.0,0.0,0.0,-2.0405,-2.0525,-2.0605,-2.0605,-2.0605,-2.0486,-2.0312,0.0,0.0,0.0,0.0,0.0,0.0,0.0,0.0,0.0,0.0,0.0,0.0,0.0,0.0,0.0,0.0,0.0,0.0,0.0,0.0,0.0,0.0,-2.0781,-2.2496,-2.4409,-2.4583,-2.3716,-2.1759,-1.9697,-1.7431,0.0,0.0,-1.1221,-1.096,-1.0606,-1.0388,-1.0651,-1.0108,-0.9539,-0.9266,-0.9564,-0.9875,-1.0022,0.0,0.0,0.0,0.0,0.0,0.0,0.0,0.0,-1.4472,-1.3113,0.0,-1.1932,-1.1679,-1.1775,-1.2294,-1.2059,-1.2047,-1.2312,-1.2149,-1.1757,-1.1322,-1.0804,-1.0494,-1.0263,-1.005,-1.0296,-1.0853,-1.0225,-1.0423,0.0,-0.9037,-0.8431,-0.8609,-0.6997,-0.6268,-0.6252,-0.613,-0.6007,-0.5918,0.0,0.0,0.0,0.0,0.0,0.0,0.0,-1.4003,-1.4088,-1.3748,-1.3998,-1.4068,-1.3655,-1.3667,-1.4677,-1.7095,-1.6986,0.0,0.0,0.0,0.0,0.0,0.0,0.0,0.0,0.0,-1.9825,-1.8622,-1.9871,-2.0506,-2.0605,-2.0457,-2.0366,-2.0312,-2.0312,0.0,0.0,0.0,0.0,0.0,0.0,0.0,0.0,0.0,0.0,0.0,0.0,0.0,0.0,0.0,0.0,0.0,0.0,0.0,0.0,-1.5504,0.0,0.0,-2.0114,-2.0843,-2.0823,-1.878,-1.7457,-1.5986,-1.3431,-1.1897,-1.0961,-1.0906,-1.0588,-1.0297,-1.0343,-0.9922,-0.9452,-0.9224,-0.9295,-0.9634,0.0,0.0,0.0,0.0,0.0,0.0,0.0,0.0,-1.4076,-1.3413,-1.2696,-1.2246,-1.208,-1.1751,-1.1691,-1.2035,-1.1962,-1.2047,-1.2312,-1.2059,-1.1757,-1.1322,-1.0809,-1.0415,-1.005,-1.0071,-1.0145,-1.0452,-1.0102,-1.0263,-1.0655,-0.8806,-0.8262,-0.8452,-0.6863,-0.6268,-0.6265,-0.6225,-0.6081,-0.5909,0.0,0.0,0.0,0.0,0.0,0.0,0.0,-1.3649,-1.3873,-1.3793,-1.3865,-1.3848,-1.362,-1.3667,-1.4623,-1.6828,-1.7621,0.0,0.0,0.0,0.0,0.0,0.0,0.0,0.0,-1.8441,-1.8575,-1.8783,-1.992,-2.0519,-2.0603,-2.0469,-2.036,-2.0312,-2.0312,0.0,0.0,0.0,0.0,0.0,0.0,0.0,-1.7687,0.0,0.0,0.0,0.0,0.0,0.0,0.0,0.0,0.0,0.0,0.0,0.0,0.0,-1.4342,-1.5429,0.0,-1.742,-1.7639,-1.6098,-1.5195,0.0,0.0,-1.1193,-1.0517,-1.0446,-1.0257,-1.0034,-0.9934,-0.9703,-0.9479,-0.9257,-0.9337,-0.9674,0.0,0.0,0.0,0.0,0.0,0.0,0.0,-1.4497,-1.3467,-1.2823,-1.2406,-1.2166,-1.208,-1.1848,-1.1799,-1.2065,-1.2071,-1.211,-1.2206,-1.1849,-1.1494,-1.1068,-1.0549,-1.0207,-1.0038,-1.0038,-1.0069,-1.0263,-1.0133,-1.014,0.0,-0.8706,-0.8276,-0.847,-0.6917,-0.6724,-0.7214,-0.692,-0.675,-0.6808,0.0,0.0,0.0,0.0,0.0,0.0,0.0,-1.3394,-1.3903,-1.3903,-1.3959,-1.3912,-1.3652,-1.3803,-1.3949,-1.41,0.0,0.0,0.0,0.0,0.0,0.0,0.0,0.0,0.0,-1.5201,-1.6992,-2.0417,-2.0547,-2.0604,-2.0593,-2.0588,-2.048,-2.0304,-2.026,0.0,0.0,0.0,0.0,0.0,0.0,0.0,0.0,0.0,0.0,0.0,0.0,0.0,0.0,0.0,0.0,0.0,0.0,0.0,0.0,0.0,0.0,0.0,0.0,-1.4367,0.0,0.0,0.0,0.0,0.0,-1.0596,0.0,-0.9753,-0.9683,-0.9641,-0.9495,-0.9509,-0.954,-0.9343,-0.9664,0.0,0.0,0.0,0.0,0.0,0.0,0.0,0.0,-1.3599,-1.2622,-1.2603,-1.2178,-1.192,-1.192,-1.192,-1.2041,-1.23,-1.233,-1.2206,-1.2009,-1.1494,-1.1068,-1.0636,-1.0207,-1.0038,-1.0038,-1.0038,-1.006,0.0,-1.0036,-0.9836,-0.9581,-0.8566,-0.8416,-0.8609,-0.7108,-0.7412,-0.8722,-0.7905,-0.7918,-0.8262,0.0,0.0,0.0,0.0,0.0,0.0,0.0,0.0,0.0,0.0,-1.3955,-1.3894,-1.3841,-1.3955,-1.4068,0.0,0.0,0.0,0.0,0.0,0.0,0.0,0.0,0.0,0.0,-1.5201,-1.6995,-2.0472,-2.0565,-2.0597,-2.0593,-2.0444,-2.0339,-2.0277,-1.9922,0.0,0.0,0.0,0.0,0.0,0.0,0.0,0.0,0.0,0.0,0.0,-1.5678,-1.5659,0.0,0.0,0.0,0.0,0.0,0.0,0.0,0.0,-1.2113,-1.1804,-1.2114,0.0,-1.2132,-1.1719,-1.1365,-1.0956,0.0,-1.0086,-0.9793,-0.9723,0.0,0.0,-0.996,-0.975,-0.9665,-1.0075,-1.0447,0.0,0.0,0.0,0.0,0.0,0.0,0.0,0.0,-1.3952,-1.3029,-1.2738,-1.2202,-1.192,-1.192,-1.192,-1.2041,-1.23,-1.2169,-1.2043,-1.2015,-1.1149,-1.0722,-1.0636,-1.0207,-1.0038,-1.0038,-1.0038,-1.0067,-1.0109,-1.0062,-0.9678,-0.9209,-0.8341,-0.8239,-0.8423,-0.735,-0.7731,-0.8795,-0.8257,-0.8117,-0.7941,0.0,0.0,0.0,0.0,0.0,0.0,0.0,0.0,0.0,0.0,0.0,-1.3923,-1.3778,-1.3955,0.0,0.0,0.0,0.0,0.0,0.0,0.0,0.0,0.0,0.0,-1.514,-1.6813,-1.8617,-2.05,-2.0469,-2.0506,-2.0632,-2.2092,-2.1736,-1.9832,-1.9582,0.0,0.0,0.0,0.0,0.0,-1.5765,0.0,0.0,0.0,0.0,0.0,-1.4971,-1.5119,0.0,-1.5272,-1.5058,-1.4592,0.0,0.0,0.0,0.0,-1.2186,-1.1737,-1.149,-1.1341,-1.1191,-1.0878,-1.0572,-1.0273,-0.9971,0.0,0.0,0.0,0.0,0.0,0.0,0.0,0.0,0.0,-1.128,0.0,0.0,0.0,0.0,0.0,0.0,0.0,0.0,-1.4276,-1.3115,-1.2756,-1.2349,-1.2047,-1.1926,-1.192,-1.1879,-1.1969,-1.1691,-1.156,-1.1671,-1.0982,-1.0549,-1.0294,-0.9772,-0.9685,-0.9951,-0.9685,-0.9685,-1.0038,-1.0038,-0.9447,-0.8544,-0.8257,-0.825,-0.8468,-0.7241,-0.8021,-0.9776,-0.8638,-0.8638,-0.8989,0.0,0.0,0.0,0.0,0.0,0.0,0.0,0.0,0.0,0.0,0.0,0.0,0.0,0.0,0.0,0.0,0.0,0.0,0.0,0.0,0.0,0.0,0.0,-1.5343,-1.6086,-1.8993,-2.0506,-2.0519,-2.0391,-2.0413,-2.0586,-2.352,-2.2724,-1.8877,-1.8996,-1.8343,0.0,0.0,0.0,0.0,-1.4709,0.0,0.0,0.0,0.0,0.0,0.0,0.0,0.0,-1.4979,-1.4836,-1.4452,-1.3927,0.0,0.0,0.0,0.0,0.0,-1.1468,-1.1196,-1.0905,-1.0611,-1.0351,-1.0088,-0.9753,0.0,0.0,0.0,0.0,0.0,0.0,0.0,0.0,0.0,0.0,0.0,0.0,0.0,0.0,0.0,0.0,0.0,-1.5683,-1.4144,-1.2884,-1.2612,-1.234,-1.2137,-1.1878,-1.1866,-1.1721,-1.1524,-1.1106,-1.099,-1.1187,-1.0702,-1.0294,-0.9859,-0.9157,-0.9244,-0.9772,-0.9157,-0.9331,-1.0038,-1.0038,0.0,-0.8004,-0.8144,-0.8313,-0.8279,-0.6897,-0.8247,-1.0672,-0.8995,-0.9136,-1.0196,0.0,0.0,0.0,0.0,0.0,0.0,0.0,0.0,0.0,0.0,0.0,0.0,0.0,0.0,0.0,0.0,0.0,0.0,0.0,0.0,0.0,0.0,-1.6515,-1.6484,-1.9627,-2.0221,-2.0531,-2.0583,-2.0566,-2.0424,-2.0184,-2.0827,-1.963,-1.6964,-1.7595,-1.7315,-1.646,-1.7665,-1.7027,-1.5194,-1.52,0.0,0.0,0.0,0.0,0.0,0.0,0.0,0.0,-1.4141,-1.4223,-1.4254,-1.3728,0.0,0.0,0.0,0.0,0.0,-1.1774,-1.1356,-1.0867,-1.0302,-1.0351,-1.039,-0.9832,0.0,0.0,0.0,0.0,0.0,0.0,0.0,0.0,0.0,0.0,0.0,0.0,0.0,0.0,0.0,0.0,-1.3987,-1.3064,-1.2849,-1.2599,-1.2085,-1.198,-1.1866,-1.1606,-1.1588,-1.1372,-1.1004,-1.0931,-1.0742,-1.0447,-1.0206,-0.9772,-0.9065,-0.8978,-0.8978,-0.9065,-0.8978,-0.9331,-1.0038,0.0,-0.9265,-0.7993,-0.8018,-0.7927,-0.7584,-0.706,-0.7865,-0.9182,-0.9052,-0.9033,-0.9044,0.0,0.0,0.0,0.0,0.0,0.0,0.0,0.0,0.0,0.0,0.0,0.0,0.0,0.0,0.0,0.0,0.0,0.0,0.0,0.0,0.0,-1.9936,-1.8701,-1.7907,-1.775,-1.9581,-2.0566,-2.0593,-2.0441,-2.0315,-2.0199,-1.9705,-1.8573,-1.6956,-1.7692,-1.7541,-1.6782,-1.7389,-1.6678,-1.5148,0.0,0.0,0.0,0.0,0.0,0.0,0.0,0.0,0.0,0.0,-1.3767,-1.36,-1.3524,0.0,0.0,0.0,0.0,0.0,-1.1616,-1.1404,-1.1115,-1.0505,-1.0505,-1.0467,-1.001,0.0,0.0,0.0,0.0,0.0,0.0,0.0,0.0,0.0,0.0,0.0,0.0,0.0,0.0,0.0,0.0,-1.302,-1.3071,-1.2593,-1.2073,-1.1733,-1.1709,-1.1588,-1.1317,-1.1304,-1.1059,-1.0567,-1.0556,-1.0248,-0.98,-0.9766,-0.9493,-0.889,-0.8536,-0.8273,-0.8273,-0.7921,-0.836,-0.9428,0.0,-0.8555,-0.8,-0.7629,-0.7513,-0.7395,-0.6816,-0.7228,-0.8305,-0.7959,-0.8097,-0.8186,0.0,0.0,0.0,0.0,0.0,0.0,0.0,0.0,0.0,0.0,0.0,0.0,0.0,0.0,0.0,0.0,0.0,0.0,0.0,0.0,-2.0028,-2.0116,-2.0371,-1.928,-1.6665,-1.9237,-2.0584,-2.0539,-2.0177,-1.9972,-1.9933,-1.9231,-1.8216,-1.7046,-1.7864,-1.7671,-1.6689,-1.6747,-1.6126,-1.5064,0.0,0.0,0.0,0.0,0.0,0.0,0.0,0.0,0.0,0.0,0.0,0.0,0.0,0.0,0.0,-1.2294,-1.2083,-1.1845,-1.1509,-1.1452,-1.1362,-1.0812,0.0,-1.0603,-1.0322,0.0,0.0,0.0,0.0,0.0,0.0,0.0,0.0,0.0,0.0,0.0,0.0,0.0,-1.3399,-1.3621,-1.258,-1.2106,-1.2926,-1.2255,-1.1721,-1.1455,-1.1492,-1.133,-1.0974,-1.0962,-1.0674,-1.002,-1.0,-0.98,-0.9252,-0.9299,-0.9074,-0.8566,-0.812,-0.7782,-0.757,-0.7078,-0.7627,-0.8966,-0.8297,-0.8015,-0.8059,-0.7313,-0.7168,-0.7112,-0.6384,-0.6664,-0.748,-0.691,-0.7159,-0.757,0.0,0.0,0.0,0.0,0.0,0.0,0.0,0.0,0.0,0.0,0.0,0.0,0.0,0.0,0.0,0.0,0.0,0.0,0.0,0.0,-2.0133,-2.0453,-2.0494,-2.0414,-2.0227,-2.0477,-2.0506,-2.0323,-1.9695,-1.9209,-1.8912,-1.9093,-1.8092,-1.6223,-1.7288,-1.6786,-1.5216,-1.6,-1.5444,-1.3994,-1.3552,0.0,0.0,0.0,0.0,0.0,0.0,0.0,0.0,0.0,0.0,0.0,0.0,0.0,-1.161,-1.164,-1.1525,-1.1411,-1.1687,-1.1649,-1.14,-1.1057,-1.0981,0.0,-1.068,-1.097,0.0,-1.1408,0.0,0.0,0.0,0.0,0.0,0.0,0.0,0.0,0.0,0.0,-1.3726,-1.3564,-1.2319,-1.149,-1.1265,-1.1407,-1.1443,-1.1166,-1.1383,-1.1254,-1.0605,-1.0519,-1.0154,-0.9418,-0.9539,-0.9419,-0.9044,-0.8675,-0.8201,-0.7617,-0.783,-0.7624,-0.6871,-0.6918,-0.7797,-0.9161,-0.8351,-0.8081,-0.8214,-0.7339,-0.6801,-0.6341,-0.6007,-0.6153,-0.6379,-0.6393,-0.6731,-0.7123,0.0,0.0,0.0,0.0,0.0,0.0,0.0,0.0,0.0,0.0,0.0,0.0,0.0,0.0,0.0,0.0,0.0,0.0,0.0,0.0,-2.015,-2.049,-2.0539,-2.0566,-2.0594,-2.0593,-2.0499,-2.0312,-1.9632,-1.9316,-1.9339,-1.8481,-1.7974,-1.7757,-1.7434,-1.688,-1.6272,-1.6684,-1.581,-1.4177,-1.4395,-1.333,0.0,0.0,0.0,0.0,0.0,0.0,0.0,0.0,-1.1152,-1.1168,-1.1509,-1.1399,-1.1128,-1.1092,-1.0811,-1.062,-1.1151,-1.1041,-1.0902,-1.1239,-1.1142,0.0,0.0,-1.0994,-1.1344,-1.1453,-1.1994,0.0,0.0,0.0,0.0,0.0,0.0,0.0,-1.4891,-1.3646,-1.2728,-1.2885,-1.1611,-1.0743,-1.0635,-1.087,-1.0985,-1.0876,-1.0751,-1.0611,-1.0513,-1.0142,-0.976,-0.9316,-0.9402,-0.9212,-0.8822,-0.8396,-0.7882,-0.7215,-0.7098,-0.6618,-0.5961,-0.6011,-0.6742,-0.7822,-0.7089,-0.7117,-0.7627,-0.6908,-0.6514,-0.6363,-0.5881,-0.5761,-0.5691,-0.5101,-0.5436,-0.6134,0.0,0.0,0.0,0.0,0.0,0.0,0.0,0.0,0.0,0.0,0.0,0.0,0.0,0.0,0.0,0.0,0.0,0.0,0.0,-1.8165,-2.0177,-2.0529,-2.0585,-2.0562,-2.0503,-2.0453,-2.0374,-2.0244,-1.9606,-1.9331,-1.9382,-1.8344,-1.8027,-1.8316,-1.7422,-1.6866,-1.6628,-1.6524,-1.5465,-1.3913,-1.4038,-1.2856,0.0,0.0,0.0,0.0,0.0,0.0,0.0,0.0,-1.0443,-1.0213,-1.064,-1.0487,-1.0175,-1.0343,-1.0091,-0.9918,-1.0762,-1.0767,-1.0641,0.0,0.0,0.0,-1.0979,-1.135,-1.176,-1.1997,-1.2386,0.0,0.0,0.0,0.0,0.0,-1.3605,-1.3975,-1.3945,-1.2788,-1.1991,-1.206,-1.1001,-1.0327,-1.0327,-1.049,-1.0527,-1.0385,-1.0176,-1.0035,-0.9906,-0.954,-0.9161,-0.8956,-0.8886,-0.8807,-0.8505,-0.7893,-0.7293,-0.688,-0.6195,-0.5712,-0.5494,-0.5532,-0.5985,-0.6866,-0.6285,-0.6438,-0.7263,-0.6497,-0.6279,-0.6286,-0.5822,-0.5494,-0.5149,-0.4314,-0.4533,-0.5331,0.0,0.0,0.0,0.0,0.0,0.0,0.0,0.0,0.0,0.0,0.0,0.0,0.0,0.0,0.0,0.0,0.0,0.0,0.0,-1.8215,-2.0224,-2.0579,-2.0593,-2.0503,-2.0292,-2.0153,-2.0079,-2.0088,-1.9553,-1.9115,-1.877,-1.877,-1.8275,-1.7361,-1.7093,-1.6565,-1.5838,-1.517,-1.416,-1.2908,-1.2043,-1.1234,-1.0496,0.0,0.0,0.0,0.0,0.0,0.0,0.0,-0.9633,-0.9108,-0.9182,-0.886,-0.861,-0.9296,-0.9361,-0.9434,-1.0677,-1.0876,-1.0758,0.0,0.0,0.0,-1.1445,-1.2014,-1.2629,-1.3175,0.0,-1.2462,-1.2398,0.0,0.0,-1.2022,-1.2915,-1.3316,-1.2425,-1.2107,-1.1765,-1.1286,-1.066,-1.0321,-1.0251,-1.0321,-1.0124,-0.9852,-0.9782,-0.9502,-0.873,-0.8725,-0.8508,-0.808,-0.808,-0.808,-0.808,-0.6944,-0.6458,-0.6552,-0.5358,-0.5021,-0.5371,-0.5491,-0.5972,-0.6659,-0.6028,-0.6318,-0.7214,-0.6464,-0.6159,-0.6279,-0.5795,-0.5236,-0.4734,-0.4234,-0.4334,-0.4822,0.0,0.0,0.0,0.0,0.0,0.0,0.0,0.0,0.0,0.0,0.0,0.0,0.0,0.0,0.0,0.0,0.0,0.0,0.0,-1.6249,-1.7924,-2.0497,-2.0467,-2.032,-2.0162,-1.9251,-1.9008,-1.9545,-1.886,-1.7988,-1.6962,-1.662,-1.6045,-1.5301,-1.5563,-1.5227,-1.4509,-1.459,-1.4018,-1.2979,-1.1763,-1.1298,-1.1263,0.0,0.0,0.0,0.0,0.0,0.0,0.0,0.0,0.0,-0.8761,-0.8523,-0.8348,-0.8652,-0.8418,-0.8358,-0.9615,-0.9727,0.0,0.0,0.0,0.0,0.0,-1.222,0.0,0.0,0.0,-1.2642,-1.252,0.0,0.0,-1.2062,-1.2469,-1.2703,-1.2132,-1.1457,-1.0878,-1.0438,-0.9799,-0.9354,-0.9111,-0.9429,-0.9502,-0.9173,-0.8964,-0.8764,-0.872,-0.83,-0.8072,-0.8075,-0.808,-0.7938,-0.7513,-0.6801,-0.6255,-0.5867,-0.5161,-0.4977,-0.5241,-0.5276,-0.5471,-0.5806,-0.5675,-0.5827,-0.634,-0.6239,-0.6236,-0.6279,-0.5795,-0.5293,-0.4747,-0.4612,-0.4634,-0.4822,0.0,0.0,0.0,0.0,0.0,0.0,0.0,0.0,0.0,0.0,0.0,0.0,0.0,0.0,0.0,0.0,0.0,0.0,0.0,0.0,-1.6266,-1.8358,-1.9638,-2.0144,-1.9797,-1.8331,-1.7484,-1.731,-1.7698,-1.7264,-1.6011,-1.574,-1.5091,-1.416,-1.4463,-1.4248,-1.3729,-1.3916,-1.3525,-1.269,-1.1743,-1.1298,-1.1149,0.0,0.0,0.0,0.0,0.0,0.0,0.0,0.0,0.0,-0.8287,-0.8052,-0.793,-0.8098,-0.7946,-0.8009,-0.9332,-0.9457,0.0,0.0,0.0,0.0,0.0,0.0,0.0,0.0,0.0,-1.2802,-1.2572,-1.2249,0.0,-1.1996,-1.1972,-1.1827,-1.1456,-1.0657,-0.9993,-0.9509,-0.9089,-0.8727,-0.8491,-0.873,-0.8772,-0.8456,-0.8337,-0.824,-0.8245,-0.7856,-0.7707,-0.7829,-0.7834,-0.7628,-0.7078,-0.646,-0.5933,-0.5499,-0.4939,-0.479,-0.498,-0.5121,-0.5265,-0.5415,-0.5561,-0.573,-0.5918,-0.6116,-0.6225,-0.6274,-0.5551,-0.5066,-0.4759,-0.4516,-0.4634,-0.4822,0.0,0.0,0.0,0.0,0.0,0.0,0.0,0.0,0.0,0.0,0.0,0.0,0.0,0.0,0.0,0.0,0.0,0.0,0.0,0.0,-1.5212,-1.5183,-1.8402,-1.9839,-1.9077,-1.7194,-1.5568,-1.4222,-1.6165,-1.6628,-1.5668,-1.5639,-1.4951,-1.3782,-1.3744,-1.3601,-1.3319,-1.3274,-1.2881,-1.2246,-1.1895,-1.1279,-1.0482,-0.9673,0.0,0.0,0.0,0.0,0.0,0.0,0.0,0.0,-0.7724,-0.751,-0.7396,-0.7598,-0.7762,-0.8138,-0.9457,0.0,0.0,0.0,0.0,0.0,0.0,0.0,0.0,-1.3336,0.0,-1.2804,-1.2447,-1.1881,-1.1598,-1.1916,-1.1364,-1.0805,-1.0538,-0.991,-0.9208,-0.8667,-0.8387,-0.8223,-0.817,-0.8155,-0.8,-0.7633,-0.7815,-0.7737,-0.7493,-0.7414,-0.7418,-0.7456,-0.7372,-0.7111,-0.6544,-0.6086,-0.5628,-0.5218,-0.4743,-0.4599,-0.472,-0.4996,-0.5167,-0.5205,-0.5561,-0.5782,-0.5896,-0.6018,-0.6143,-0.6155,-0.5087,-0.4749,-0.4824,-0.423,-0.4435,-0.4922,0.0,0.0,0.0,0.0,0.0,0.0,0.0,0.0,0.0,0.0,0.0,0.0,0.0,0.0,0.0,0.0,0.0,0.0,0.0,0.0,-1.5287,-1.5127,-1.793,-1.8766,-1.7221,-1.4684,-1.3465,-1.3648,-1.4537,-1.4892,-1.469,-1.4369,-1.4013,-1.3643,-1.3367,-1.3091,-1.2838,-1.2842,-1.2574,-1.2154,-1.2047,-1.1741,-1.1182,-1.0212,-0.9852,0.0,0.0,0.0,0.0,0.0,0.0,0.0,-0.6859,-0.6807,-0.6893,-0.6673,-0.7038,-0.7646,-0.827,-0.881,0.0,0.0,0.0,0.0,0.0,0.0,0.0,-1.2258,-1.221,-1.2124,-1.1777,-1.1599,-1.1511,-1.159,-1.1202,-1.0642,-1.0009,-0.9303,-0.8621,-0.7868,-0.7678,-0.7567,-0.7292,-0.7441,-0.7396,-0.7043,-0.7021,-0.7116,-0.7278,-0.6754,-0.6625,-0.6863,-0.6338,-0.5879,-0.5418,-0.5352,-0.504,-0.454,-0.4497,-0.4485,-0.4518,-0.4787,-0.5012,-0.5203,-0.5472,-0.5659,-0.5779,-0.5893,-0.6013,-0.6037,-0.5061,-0.5005,-0.5333,-0.481,-0.4935,-0.5522,0.0,0.0,0.0,0.0,0.0,0.0,0.0,0.0,0.0,0.0,0.0,0.0,0.0,0.0,0.0,0.0,0.0,0.0,0.0,0.0,0.0,-1.3897,-1.5266,-1.5154,-1.3246,-1.2813,-1.2694,-1.2889,-1.3467,0.0,0.0,0.0,0.0,-1.3542,0.0,-1.2685,-1.2461,-1.2142,-1.1966,-1.1754,-1.0943,-1.0497,-1.0173,-0.9023,-0.8511,-0.8259,-0.744,0.0,0.0,0.0,0.0,0.0,0.0,0.0,-0.6513,-0.6337,-0.6653,-0.7198,0.0,0.0,0.0,0.0,0.0,0.0,0.0,0.0,0.0,-1.1176,-1.1564,-1.1839,-1.1336,-1.1083,-1.0965,-1.0965,-1.0331,-0.9687,-0.9453,-0.8667,-0.7985,-0.7532,-0.7247,-0.7046,-0.6885,-0.6912,-0.6812,-0.6402,-0.6433,-0.6466,-0.638,-0.605,-0.5961,-0.6144,-0.5814,-0.5373,-0.4887,-0.4951,-0.4727,-0.4216,-0.4333,-0.4417,-0.448,-0.4784,-0.505,-0.5284,-0.5469,-0.5619,-0.5738,-0.5798,-0.589,-0.5911,-0.4933,-0.4914,-0.5398,-0.4952,-0.5094,-0.5627,0.0,0.0,0.0,0.0,0.0,0.0,0.0,0.0,0.0,0.0,0.0,0.0,0.0,0.0,0.0,0.0,0.0,0.0,0.0,0.0,0.0,0.0,-1.2185,-1.1376,-1.0081,-1.1462,-1.2227,-1.2284,0.0,0.0,0.0,0.0,0.0,-1.3216,0.0,-1.2239,-1.2031,-1.1467,-1.1142,-1.0927,-0.9466,-0.8818,-0.8643,-0.7512,-0.7014,-0.6881,-0.6932,-0.6779,-0.6494,-0.6238,0.0,0.0,0.0,0.0,-0.6176,-0.6183,-0.634,-0.6714,0.0,0.0,0.0,0.0,0.0,0.0,0.0,0.0,0.0,-1.014,-1.0852,-1.1445,-1.0786,-1.0409,-1.0186,-1.0186,-0.9259,-0.8598,-0.8893,-0.8021,-0.7354,-0.7354,-0.6923,-0.6598,-0.6598,-0.6486,-0.6303,-0.5901,-0.5994,-0.5918,-0.5468,-0.5318,-0.5329,-0.5389,-0.5242,-0.5001,-0.4546,-0.4656,-0.4523,-0.4088,-0.4211,-0.4317,-0.442,-0.4765,-0.5064,-0.5317,-0.5458,-0.5589,-0.5703,-0.5725,-0.5787,-0.5786,-0.4887,-0.4996,-0.5531,-0.4964,-0.5223,-0.5807,0.0,0.0,0.0,0.0,0.0,0.0,0.0,0.0,0.0,0.0,0.0,0.0,0.0,0.0,0.0,0.0,0.0,0.0,-1.2738,0.0,0.0,-1.2499,-1.0828,-1.0656,-1.2251,-1.0945,-1.1047,-1.2634,0.0,0.0,0.0,0.0,0.0,-1.2282,0.0,0.0,-1.1542,-1.1063,-1.0242,-0.9182,-0.861,-0.8163,-0.7735,-0.7269,-0.7469,-0.7884,-0.6959,-0.6512,-0.6263,-0.5723,-0.5693,0.0,0.0,0.0,-0.5604,-0.5665,-0.5867,-0.6176,0.0,0.0,0.0,0.0,0.0,0.0,0.0,0.0,0.0,0.0,-0.9804,-0.9933,-0.9544,-0.9379,-0.9379,-0.9379,-0.8692,-0.8196,-0.8234,-0.7413,-0.681,-0.681,-0.6495,-0.6282,-0.6282,-0.6256,-0.605,-0.5656,-0.5682,-0.5542,-0.5235,-0.4702,-0.4521,-0.4783,-0.4308,-0.4005,-0.3994,-0.4011,-0.4019,-0.3899,-0.4083,-0.4151,-0.4172,-0.4428,-0.4732,-0.5075,-0.5298,-0.5464,-0.5497,-0.5689,-0.5741,-0.5676,-0.5225,-0.5368,-0.5779,-0.5407,-0.5607,-0.6179,0.0,0.0,0.0,0.0,0.0,0.0,0.0,0.0,0.0,0.0,0.0,0.0,0.0,0.0,0.0,-1.1308,-1.1586,-1.1443,-1.0579,-1.0861,-1.0847,-1.0436,-0.9177,-0.9215,-1.0709,-1.0309,-1.0561,0.0,0.0,0.0,0.0,-1.1579,-1.1579,0.0,0.0,0.0,0.0,0.0,-0.9883,-0.8864,-0.7988,-0.7466,0.0,0.0,0.0,-0.675,-0.6702,-0.6421,-0.5991,-0.5896,-0.5691,-0.5518,-0.5497,0.0,0.0,0.0,-0.4951,0.0,-0.5801,0.0,0.0,0.0,0.0,0.0,0.0,0.0,-0.8868,-0.8545,-0.8602,-0.8791,-0.9148,-0.9001,-0.8837,-0.8837,-0.8249,-0.7771,-0.7771,-0.7019,-0.6511,-0.6691,-0.6279,-0.5989,-0.5887,-0.5845,-0.5563,-0.4842,-0.4842,-0.4657,-0.4336,-0.3999,-0.3907,-0.4082,-0.38,-0.3683,-0.3738,-0.3803,-0.3868,-0.3875,-0.4058,-0.4118,-0.4124,-0.4298,-0.4572,-0.4923,-0.5097,-0.5152,-0.5122,-0.5434,-0.5315,-0.4931,-0.4973,-0.5206,-0.545,-0.5315,-0.5685,-0.6159,0.0,0.0,0.0,0.0,0.0,0.0,0.0,0.0,0.0,0.0,0.0,0.0,0.0,0.0,0.0,0.0,-0.9742,-0.9417,-0.8828,-0.9209,-0.905,-0.8086,-0.7656,-0.7969,-0.9067,-0.9607,0.0,0.0,0.0,0.0,-1.1121,-1.0514,-1.0475,0.0,-1.0971,0.0,0.0,0.0,0.0,-0.8417,-0.731,0.0,0.0,0.0,0.0,0.0,0.0,0.0,0.0,0.0,-0.5535,-0.5147,-0.5214,-0.4995,0.0,0.0,0.0,0.0,0.0,0.0,0.0,0.0,0.0,0.0,0.0,0.0,-0.8022,0.0,-0.7674,-0.7856,-0.8535,-0.8461,-0.8204,-0.8146,-0.7687,-0.7264,-0.7211,-0.6686,-0.6365,-0.6524,-0.6192,-0.5811,-0.5586,-0.5507,-0.5099,-0.418,-0.4162,-0.3969,-0.3591,-0.3566,-0.3585,-0.3585,-0.3585,-0.3585,-0.3585,-0.3727,-0.3757,-0.3846,-0.3969,-0.4042,-0.4075,-0.4197,-0.4433,-0.4749,-0.4904,-0.4916,-0.4952,-0.515,-0.5053,-0.4619,-0.4882,-0.5124,-0.5314,-0.5314,-0.566,-0.6034,0.0,0.0,0.0,0.0,0.0,0.0,0.0,0.0,0.0,0.0,0.0,0.0,0.0,-0.9082,-0.8813,-0.8798,-0.8414,-0.822,-0.8244,-0.8272,-0.7579,-0.6021,-0.6457,0.0,-0.871,-0.8951,0.0,0.0,0.0,0.0,-1.0157,-0.9293,-0.9142,-0.9597,-0.9597,-0.9549,-0.9421,0.0,0.0,0.0,0.0,0.0,0.0,0.0,0.0,0.0,0.0,0.0,0.0,0.0,0.0,0.0,0.0,0.0,0.0,0.0,0.0,0.0,0.0,0.0,0.0,0.0,0.0,0.0,0.0,0.0,0.0,-0.7315,-0.7257,-0.7254,-0.7285,-0.7291,-0.7194,-0.6947,-0.6806,-0.6648,-0.6391,-0.625,-0.6218,-0.6228,-0.6039,-0.5756,-0.5453,-0.5246,-0.4791,-0.3989,-0.402,-0.3887,-0.3411,-0.352,-0.3585,-0.3585,-0.3585,-0.3585,-0.3585,-0.3591,-0.3596,-0.3604,-0.3776,-0.3833,-0.3888,-0.4072,-0.4259,-0.4501,-0.4741,-0.4982,-0.5133,-0.4834,-0.5027,-0.5386,-0.5033,-0.519,-0.5654,-0.5654,-0.5814,-0.5896,0.0,0.0,0.0,0.0,0.0,0.0,0.0,0.0,0.0,0.0,0.0,0.0,0.0,-0.707,-0.7088,-0.7396,-0.7007,-0.6895,-0.7209,-0.6973,-0.6614,-0.6206,-0.6106,-0.663,-0.7853,-0.8133,0.0,0.0,0.0,-0.8946,-0.7939,-0.8604,-0.882,-0.8618,-0.8869,-0.8869,-0.8618,-0.839,0.0,0.0,0.0,0.0,0.0,0.0,0.0,0.0,0.0,0.0,0.0,0.0,0.0,0.0,0.0,0.0,0.0,0.0,0.0,0.0,0.0,0.0,0.0,0.0,0.0,0.0,0.0,-0.6283,-0.6724,-0.6724,-0.6717,-0.6696,-0.6696,-0.683,-0.6906,-0.6809,-0.6493,-0.6201,-0.6101,-0.593,-0.5835,-0.5835,-0.5558,-0.5211,-0.4801,-0.4496,-0.4065,-0.3518,-0.3591,-0.3559,-0.34,-0.3517,-0.3585,-0.3585,-0.3585,-0.3585,-0.3585,-0.3585,-0.3585,-0.3585,-0.3757,-0.3816,-0.3878,-0.4061,-0.4246,-0.448,-0.4645,-0.4701,-0.4604,-0.4637,-0.4617,-0.4595,-0.4851,-0.5005,-0.528,-0.5552,-0.576,-0.5787,0.0,0.0,0.0,0.0,0.0,0.0,0.0,0.0,0.0,0.0,0.0,0.0,0.0,0.0,-0.5845,-0.5991,-0.5722,-0.566,-0.596,-0.5529,-0.538,-0.5705,-0.5652,-0.6043,-0.695,-0.7548,0.0,0.0,0.0,0.0,0.0,-0.7465,-0.7866,-0.808,-0.7819,-0.7787,0.0,0.0,0.0,-0.7112,0.0,0.0,-0.6221,0.0,0.0,0.0,0.0,0.0,0.0,0.0,0.0,0.0,0.0,0.0,0.0,0.0,0.0,0.0,0.0,0.0,0.0,0.0,0.0,0.0,0.0,0.0,-0.6147,-0.6367,-0.6416,-0.6373,-0.6282,-0.6338,-0.6422,-0.6422,-0.6107,-0.5821,-0.5773,-0.5654,-0.5632,-0.5703,-0.5291,-0.484,-0.4458,-0.4025,-0.3534,-0.315,-0.3213,-0.33,-0.3338,-0.3455,-0.3542,-0.3583,-0.3585,-0.3585,-0.3585,-0.3585,-0.3585,-0.3585,-0.3718,-0.3781,-0.3875,-0.3895,-0.4056,-0.442,-0.4328,-0.436,-0.4493,-0.4525,-0.451,-0.4493,-0.4749,-0.4898,-0.5167,-0.5523,-0.5638,-0.567,0.0,0.0,0.0,0.0,0.0,0.0,0.0,0.0,0.0,0.0,0.0,0.0,0.0,0.0,0.0,-0.4596,-0.457,-0.457,-0.457,-0.4026,-0.3901,-0.4361,-0.5066,-0.5659,-0.6052,-0.7111,-0.7551,0.0,0.0,0.0,0.0,0.0,-0.6216,-0.7903,-0.6375,-0.6277,-0.7223,0.0,-0.6683,-0.6598,0.0,-0.5793,-0.5701,0.0,0.0,0.0,-0.3554,-0.307,0.0,-0.2495,0.0,0.0,0.0,0.0,0.0,0.0,0.0,0.0,0.0,0.0,0.0,0.0,0.0,0.0,-0.4661,0.0,-0.5615,-0.6233,-0.6367,-0.6282,-0.6019,-0.5804,-0.568,-0.568,-0.5595,-0.5504,-0.5324,-0.5462,-0.567,-0.5859,-0.5238,-0.4704,-0.4492,-0.3791,-0.3268,-0.2918,-0.2982,-0.3051,-0.3213,-0.3338,-0.346,-0.358,-0.3585,-0.3585,-0.3585,-0.3585,-0.3585,-0.3585,-0.3583,-0.3705,-0.387,-0.3567,-0.3687,-0.4236,-0.3664,-0.3889,-0.4758,-0.4488,-0.4678,-0.5181,-0.4784,-0.4936,-0.5368,-0.5368,-0.5445,-0.5464,0.0,0.0,0.0,0.0,0.0,0.0,-0.4359,-0.4258,0.0,0.0,0.0,0.0,0.0,0.0,-0.4021,-0.363,-0.3761,-0.3891,-0.3891,-0.3663,-0.3794,-0.4319,-0.4512,-0.4837,-0.5311,-0.5849,-0.5463,0.0,0.0,0.0,0.0,0.0,0.0,0.0,-0.5612,-0.5884,-0.6173,-0.6435,0.0,0.0,-0.5486,-0.5048,0.0,0.0,0.0,0.0,0.0,-0.1876,-0.139,0.0,-0.1345,-0.13,0.0,0.0,0.0,0.0,0.0,0.0,-0.2693,0.0,0.0,0.0,0.0,0.0,0.0,0.0,0.0,-0.5187,-0.5183,-0.5096,-0.5135,-0.4879,-0.467,-0.467,-0.4939,-0.5159,-0.507,-0.5245,-0.5246,-0.4877,-0.4566,-0.4225,-0.3894,-0.3364,-0.3038,0.0,-0.2981,-0.3051,-0.3213,-0.3417,-0.355,-0.3583,-0.3585,-0.3585,-0.3585,-0.3585,-0.3585,-0.3585,-0.3357,-0.3318,-0.3451,-0.3155,-0.3202,-0.3459,-0.336,-0.3675,-0.4161,-0.3973,-0.4337,-0.4993,-0.4756,-0.4936,-0.5368,-0.5368,-0.5445,-0.5464,0.0,0.0,0.0,0.0,0.0,-0.3183,-0.3093,-0.321,-0.3088,0.0,0.0,0.0,0.0,0.0,0.0,-0.3165,-0.3011,-0.3137,-0.3619,-0.3488,-0.3565,-0.403,-0.4343,-0.4646,-0.4927,-0.5157,-0.4798,-0.3766,-0.4409,-0.4661,-0.4443,-0.4243,0.0,0.0,0.0,0.0,0.0,0.0,0.0,0.0,-0.4744,0.0,0.0,-0.3334,-0.2627,0.0,0.0,0.0,-0.09,-0.0855,-0.0764,0.0,0.0,0.0,0.0,0.0,0.0,0.0,0.0,0.0,0.0,0.0,0.0,0.0,-0.2768,-0.341,-0.4,0.0,-0.4328,-0.4228,-0.4525,-0.4295,-0.4053,-0.4109,-0.4368,-0.4543,-0.4543,-0.4638,-0.4599,-0.4341,-0.4047,-0.3813,-0.3641,-0.3206,-0.2917,-0.2992,-0.3002,-0.3072,-0.3286,-0.3479,-0.3585,-0.3585,-0.3585,-0.3585,-0.3585,-0.3585,-0.3527,-0.3413,-0.3188,-0.3131,-0.3114,-0.2801,-0.2831,-0.3095,-0.3053,-0.3389,-0.3866,-0.386,-0.4302,-0.4876,-0.4836,-0.4919,-0.5222,-0.5222,-0.533,-0.5389,0.0,0.0,-0.113,-0.1194,-0.1498,-0.1707,-0.1504,-0.2105,-0.2419,0.0,0.0,0.0,0.0,0.0,0.0,0.0,-0.2419,-0.2471,-0.3492,-0.3285,-0.3256,-0.3569,-0.4178,-0.4532,-0.4555,-0.4739,-0.4787,-0.4787,-0.4092,-0.3961,-0.4343,-0.3147,-0.3367,-0.4674,0.0,0.0,0.0,0.0,0.0,-0.4638,-0.3854,-0.3429,0.0,0.0,-0.223,-0.1698,-0.1567,-0.1211,-0.0764,-0.0584,-0.0494,0.0,0.0,0.0,0.0,0.0,-0.0552,0.0,0.0,0.0,0.0,0.0,0.0,0.0,-0.1921,-0.246,-0.3246,0.0,-0.369,-0.3579,-0.4051,-0.3846,-0.3643,-0.3767,-0.3792,-0.3796,-0.388,-0.388,-0.3932,-0.4072,-0.3698,-0.3449,-0.3588,-0.316,-0.2925,-0.3011,-0.3032,-0.3131,-0.339,-0.3517,-0.3585,-0.3585,-0.3585,-0.3585,-0.3585,-0.3583,-0.3413,-0.3074,-0.3019,-0.2954,-0.2807,-0.247,-0.2549,-0.2951,-0.2699,-0.3004,-0.3708,-0.3904,-0.434,-0.4828,-0.4963,-0.4937,-0.4937,-0.4937,-0.5076,-0.5183,0.0,0.0,-0.113,-0.1194,-0.1363,-0.1432,-0.1354,-0.1698,0.0,0.0,0.0,0.0,0.0,0.0,0.0,0.0,-0.2389,-0.2479,-0.2733,-0.258,-0.2584,-0.2809,-0.2859,-0.2929,-0.3116,-0.3413,-0.3473,-0.3293,-0.33,-0.3031,-0.2448,-0.2517,-0.2692,-0.2973,0.0,0.0,0.0,0.0,0.0,-0.2943,-0.3169,0.0,-0.2095,-0.1878,-0.1523,-0.1077,-0.0944,-0.0583,-0.009,0.0403,0.0672,0.0716,0.0,0.0,0.0,0.0,0.0,0.0,0.0,0.0,0.0,0.0,0.0,0.0,-0.2333,-0.2418,-0.2352,0.0,-0.3118,-0.307,-0.3224,-0.3153,-0.3086,-0.3075,-0.3087,-0.3265,-0.384,-0.388,-0.3806,-0.3567,-0.3458,-0.3317,-0.3175,-0.2984,-0.2955,-0.3169,-0.3278,-0.3352,-0.3398,-0.3517,-0.3585,-0.3585,-0.3585,-0.3585,-0.3585,-0.3357,-0.3188,-0.3074,-0.2629,-0.2359,-0.2317,-0.2052,-0.2008,-0.2239,-0.2189,-0.2515,-0.3105,-0.3205,-0.3868,-0.4711,-0.4931,-0.4779,-0.454,-0.454,-0.4388,-0.417,0.0,0.0,-0.1042,-0.1145,-0.1275,-0.1359,-0.137,-0.1512,0.0,0.0,0.0,0.0,0.0,0.0,0.0,0.0,0.0,0.0,0.0,-0.2347,-0.229,-0.2511,-0.2522,-0.2575,-0.2581,-0.2677,-0.2724,-0.2588,-0.2635,-0.241,-0.201,-0.2007,-0.2187,-0.2546,0.0,0.0,0.0,0.0,-0.2221,-0.1935,-0.2328,0.0,-0.1601,-0.1367,-0.1078,-0.0764,-0.0404,0.009,0.0626,0.1117,0.1207,0.0,0.0,0.1746,0.1705,0.0,0.0583,0.0,0.0,0.0,0.0,0.0,0.0,0.0,0.0,-0.1837,-0.2337,-0.2058,-0.2264,-0.2598,-0.2884,-0.276,-0.2658,-0.2882,-0.2912,-0.3001,-0.3353,-0.3398,-0.3353,-0.3176,-0.3132,-0.3114,-0.2952,-0.2903,-0.2966,-0.3199,-0.339,-0.3493,-0.3493,-0.355,-0.3585,-0.3585,-0.3585,-0.3527,-0.3357,-0.3188,-0.2963,-0.2629,-0.235,-0.2128,-0.1964,-0.1656,-0.1535,-0.1602,-0.1565,-0.1745,-0.2022,-0.2354,-0.2769,-0.3283,-0.3789,-0.3613,-0.3153,-0.3191,-0.3097,-0.3002,-0.0399,0.0,-0.0794,-0.0931,-0.1171,-0.1307,-0.1283,-0.1344,0.0,0.0,0.0,0.0,0.0,0.0,0.0,0.0,0.0,0.0,0.0,0.0,-0.1993,-0.2207,-0.2295,-0.2303,-0.2219,-0.2172,-0.2082,-0.1992,-0.1975,-0.1923,-0.1835,-0.1484,-0.1666,0.0,0.0,0.0,0.0,0.0,0.0,-0.1269,0.0,-0.1415,-0.13,-0.0875,-0.0629,-0.0449,0.0268,0.0849,0.1341,0.1741,0.1698,0.1611,0.2462,0.2781,0.0,0.0,0.0,0.0,0.0,0.0,0.0,0.0,0.0,0.0087,0.0,0.0,0.0,-0.1333,-0.1621,0.0,0.0,0.0,0.0,0.0,0.0,0.0,0.0,-0.2674,0.0,-0.2868,-0.2912,-0.2912,-0.2912,-0.2887,-0.2944,-0.3202,-0.3369,-0.3503,-0.3583,-0.3585,-0.3585,-0.3585,-0.3585,-0.3413,-0.313,-0.3074,-0.2742,-0.2184,-0.2128,-0.2018,-0.1798,-0.1385,-0.1191,-0.1171,-0.1075,-0.0977,-0.0942,-0.1306,-0.1339,-0.123,-0.2311,-0.2344,-0.1751,-0.1786,-0.1821,-0.1772,0.0371,-0.0038,0.0,-0.0456,-0.0949,-0.1169,-0.0843,-0.1119,0.0,0.0,0.0,0.0,0.0,0.0,0.0,0.0,0.0,0.0,-0.0755,0.0,0.0,-0.1511,-0.1249,-0.1141,-0.1157,-0.1428,-0.1373,-0.0949,-0.1324,-0.1256,-0.0854,-0.0813,-0.0858,0.0,-0.0858,0.0,0.0,0.0,-0.0817,0.0,-0.0347,-0.0445,0.0,-0.0268,-0.0,0.0224,0.125,0.1741,0.1966,0.0,0.2642,0.2598,0.0,0.2415,0.2915,0.2879,0.0,0.0,0.0,0.0,0.0,0.0,0.0359,0.0,0.0,0.0,-0.092,-0.1491,0.0,0.0,0.0,0.0,0.0,0.0,0.0,0.0,-0.1957,-0.1837,-0.2107,-0.2823,-0.2912,-0.2912,-0.2912,-0.2779,-0.2838,-0.3158,-0.3133,-0.3248,-0.3577,-0.3585,-0.3585,-0.3585,-0.3585,-0.3413,-0.313,-0.2856,-0.2577,-0.2184,-0.1964,-0.1853,-0.1797,-0.1296,-0.1166,-0.117,-0.0743,-0.0384,-0.0134,-0.0202,0.0206,0.0565,-0.1258,-0.1758,-0.1405,-0.133,-0.11,-0.0788,0.0653,0.0592,0.0,0.0,-0.0217,0.0,-0.0045,-0.0716,0.0,0.0,0.0,0.0,0.0,0.0,0.0,0.0,0.0,0.0,0.0,0.0,0.0,-0.0313,-0.0698,-0.0763,-0.0432,-0.0861,-0.1013,-0.0789,-0.0949,-0.0941,-0.077,-0.0739,-0.0732,-0.0706,-0.0364,0.0,0.0467,0.0,-0.021,0.0,0.0,0.0,0.0,0.0537,0.0804,0.1295,0.1741,0.2188,0.2551,0.0,0.2868,0.0,0.0,0.0,0.0,0.0,0.0,0.0,0.0,0.0,0.0,0.0,0.0,0.0,0.0269,0.0,0.009,0.0,0.0,0.0,0.0,0.0,0.0,0.0,-0.186,0.0,0.0,0.0,-0.1478,0.0,0.0,0.0,-0.2324,-0.2555,-0.2825,-0.3067,-0.3034,-0.3154,-0.3477,-0.3547,-0.3527,-0.3302,-0.3302,-0.3077,-0.2573,-0.2464,-0.2242,-0.1964,-0.1572,-0.1403,-0.1347,-0.0673,-0.0349,-0.0308,0.0185,0.0447,0.0605,0.0605,0.082,0.1054,0.0219,0.0,0.0154,0.0156,0.0314,0.0471,0.0,0.0,0.0,0.0,0.0313,0.0537,0.0045,-0.0363,-0.032,0.0501,0.0411,0.0,0.0091,0.0407,0.0,0.0,0.0716,0.076,0.0,0.0,0.0134,0.0,0.0,0.0,0.0287,-0.0097,-0.0393,-0.0504,-0.0442,-0.0541,-0.0807,-0.0726,-0.0667,-0.0588,0.0,0.0746,0.1343,0.0,0.0515,0.0672,0.0679,0.113,0.1701,0.1341,0.1609,0.219,0.2235,0.2549,0.2918,0.2906,0.2962,0.0,0.3089,0.0,0.0,0.0,0.0,0.0,0.3272,0.0,0.0,0.0,0.0,0.0,0.0,0.0,0.0,0.0,0.0,0.0,0.0,0.0,0.0,0.0,0.0,-0.0624,0.0,-0.0623,0.0,0.0,0.0,0.0,0.0,-0.1976,-0.2303,-0.2711,-0.2727,-0.289,-0.3292,-0.3406,-0.3302,-0.3021,-0.2965,-0.2742,-0.2184,-0.2184,-0.2074,-0.1797,-0.1347,-0.1122,-0.1066,-0.0224,0.0233,0.0309,0.0803,0.1022,0.1076,0.1076,0.1098,0.1136,0.1157,0.119,0.1227,0.1249,0.1335,0.1335,0.0711,0.1041,0.0,0.0,0.0,0.0,-0.094,-0.0094,0.0577,0.0333,0.0768,0.0,0.0,0.0,0.0,0.0,0.0,0.1569,0.1299,0.0,0.0805,0.0,0.0,0.0765,0.0,0.0993,0.0705,0.0151,0.0503,0.0151,-0.0806,-0.0555,-0.0404,-0.0352,0.0636,0.1154,0.1334,0.1678,0.1544,0.1123,0.1728,0.2223,0.2595,0.0,0.2279,0.2687,0.2821,0.0,0.0,0.2957,0.3133,0.3272,0.0,0.0,0.0,0.0,0.0,0.0,0.0,0.0,0.0,0.281,0.0,0.0,0.0,0.0,0.0494,0.0,0.0,0.0,0.0,0.0,0.0,0.0,0.0,0.0,0.0,0.0,0.0224,0.0,0.0,0.0,0.0,-0.0896,-0.1139,-0.2084,-0.207,-0.2303,-0.2966,-0.3073,-0.2965,-0.2747,-0.2691,-0.2521,-0.2184,-0.2184,-0.2074,-0.1797,-0.1347,-0.1122,-0.1066,-0.0224,0.0233,0.0309,0.0803,0.1022,0.1076,0.1076,0.1111,0.1165,0.1166,0.1203,0.1334,0.1335,0.1335,0.1335,0.0,0.0,0.0,0.0,0.0,0.0,0.0,0.0521,0.0,0.0,0.0,0.0,0.0,0.1353,0.1609,0.0,0.0,0.2059,0.1884,0.1524,0.0,0.0,0.0,0.1153,0.0,0.0,0.1082,0.0918,0.0979,0.0773,0.0324,0.0432,0.0648,0.1077,0.0,0.246,0.0,0.0,0.0,0.0,0.0,0.2675,0.2821,0.0,0.2733,0.2895,0.2941,0.3083,0.3254,0.3245,0.3409,0.3556,0.3599,0.3602,0.3605,0.3749,0.3714,0.3637,0.3834,0.0,0.3387,0.2759,0.0,0.0,0.0,0.0,0.0,0.0,0.0,0.0,0.0,0.0,0.0,0.0,0.0,0.0,0.0,0.0,0.0,0.0,0.0,0.0,0.0,0.0,-0.1215,-0.1735,-0.1854,-0.2113,-0.2556,-0.2706,-0.2625,-0.235,-0.2352,-0.2242,-0.1964,-0.1626,-0.1402,-0.1347,-0.0617,-0.0224,-0.0224,0.0402,0.0712,0.0742,0.0946,0.104,0.1076,0.1076,0.1099,0.1138,0.1158,0.1191,0.123,0.125,0.1335,0.1335,0.1748,0.0,0.0,0.0,0.0,0.0,0.0,0.0,0.0,0.0,0.1532,0.0,0.1719,0.0,0.2236,0.0,0.2433,0.2549,0.2377,0.2312,0.0,0.2798,0.2266,0.0,0.0,0.0,0.0,0.1869,0.2018,0.198,0.1846,0.1846,0.2071,0.2456,0.0,0.3163,0.3292,0.0,0.2785,0.0,0.0,0.3039,0.0,0.0,0.2944,0.3008,0.0,0.3257,0.3427,0.3524,0.3694,0.385,0.3843,0.3897,0.3904,0.405,0.3959,0.388,0.4036,0.4013,0.3807,0.3066,0.2709,0.0,0.1333,0.0,0.1118,0.0,0.0,0.0,0.0,0.0,0.0,0.0,0.0,0.0,0.0,0.0719,0.0,0.0,0.0,0.0,0.0,-0.0308,-0.0752,-0.1372,-0.1518,-0.1745,-0.2211,-0.2401,-0.2325,-0.2071,-0.2074,-0.1964,-0.1797,-0.1347,-0.1122,-0.1066,-0.0224,0.0226,0.0228,0.07,0.0965,0.1005,0.1025,0.105,0.1076,0.1087,0.111,0.114,0.117,0.1201,0.123,0.125,0.1335,0.1335,0.0,0.0,0.0,0.0,0.1117,0.0,0.0,0.0,0.1856,0.0,0.2803,0.3276,0.3807,0.3683,0.3529,0.3478,0.3358,0.3102,0.2747,0.3441,0.0,0.0,0.3553,0.3677,0.3683,0.0,0.0,0.0,0.3359,0.3583,0.3599,0.3599,0.3599,0.3593,0.342,0.0,0.3316,0.3361,0.3338,0.3227,0.3221,0.3321,0.3345,0.3058,0.2955,0.308,0.3276,0.3424,0.3459,0.3733,0.3934,0.4098,0.4042,0.4098,0.4207,0.4207,0.4103,0.4073,0.4167,0.41,0.4009,0.3812,0.3245,0.2668,0.0,0.0,0.1735,0.0,0.0,0.0,0.0,0.0,0.0,0.0,0.0,0.0,0.0,0.0,0.0,0.0,0.0,0.0,0.0,0.0554,0.0172,-0.0991,-0.0935,-0.1212,0.0,-0.2089,-0.2,-0.1794,-0.1741,-0.1741,-0.1741,-0.129,-0.101,-0.101,-0.0168,0.0285,0.0354,0.0708,0.0916,0.0969,0.1035,0.1052,0.108,0.1109,0.114,0.1172,0.12,0.123,0.1335,0.1335,0.1337,0.1338,0.2094,0.1604,0.1291,0.0,0.1282,0.0953,0.0,0.0,0.0,0.0,0.3279,0.3929,0.3777,0.3953,0.3909,0.3372,0.3921,0.0,0.0,0.0,0.0,0.3249,0.3281,0.3445,0.3596,0.343,0.0,0.3429,0.0,0.3496,0.3588,0.3588,0.3588,0.3588,0.0,0.0,0.3539,0.3536,0.352,0.3505,0.3565,0.3524,0.3404,0.0,0.3323,0.3397,0.3194,0.3467,0.3983,0.396,0.4133,0.4406,0.4351,0.4406,0.4406,0.4406,0.4379,0.4358,0.4395,0.4379,0.423,0.3761,0.347,0.3123,0.2496,0.2363,0.0,0.0,0.0,0.0,0.0,0.0,0.0,0.0,0.0,0.0,0.0,0.0,0.0,0.0756,0.0,0.0,0.0,0.0123,-0.0283,-0.056,-0.0697,-0.1029,-0.1663,-0.1462,-0.1298,-0.1289,-0.129,-0.1122,-0.0785,-0.0336,-0.0112,-0.0112,0.0449,0.0742,0.0767,0.0906,0.0997,0.1035,0.1056,0.1082,0.111,0.1118,0.1153,0.1201,0.1209,0.123,0.1335,0.1335,0.1271,0.1291,0.2656,0.0,0.0,0.2043,0.0,0.0,0.2174,0.2686,0.0,0.325,0.406,0.0,0.4323,0.4766,0.4871,0.4517,0.4898,0.0,0.3963,0.0,0.0,0.4386,0.4453,0.4584,0.4732,0.4483,0.0,0.3968,0.0,0.0,0.3585,0.3635,0.3691,0.3691,0.0,0.3749,0.3749,0.3749,0.3762,0.3797,0.3776,0.3745,0.0,0.3482,0.3625,0.3931,0.3462,0.3685,0.4193,0.419,0.4353,0.4519,0.4519,0.4519,0.4519,0.4519,0.4519,0.4519,0.4519,0.4519,0.4391,0.3944,0.3821,0.3626,0.289,0.281,0.2852,0.2578,0.2487,0.2486,0.2487,0.0,0.0,0.0,0.0,0.0,0.0,0.0,0.0,0.0,0.0824,0.0,0.0723,0.0204,-0.0157,-0.0295,-0.04,-0.0613,0.0,-0.0836,-0.0757,-0.0784,-0.0808,-0.0693,-0.0393,0.0,0.0231,0.0224,0.0683,0.0933,0.0964,0.0994,0.1024,0.1053,0.1069,0.1093,0.1122,0.1136,0.1169,0.1215,0.1241,0.1262,0.1279,0.1292,0.1299,0.1304,0.0,0.0,0.0,0.0,0.0,0.0,0.0,0.3778,0.0,0.457,0.0,0.5289,0.5234,0.5686,0.6006,0.5954,0.0,0.567,0.5222,0.5947,0.6209,0.5845,0.6007,0.6095,0.6095,0.571,0.5218,0.0,0.0,0.4346,0.3638,0.3744,0.3852,0.3852,0.0,0.0,0.0,0.4024,0.4024,0.4024,0.3907,0.4021,0.4165,0.3673,0.3893,0.4371,0.3926,0.3955,0.4249,0.4408,0.4463,0.4519,0.4519,0.4519,0.4519,0.4519,0.4519,0.4519,0.4519,0.4519,0.4433,0.4307,0.4224,0.4079,0.3422,0.3355,0.3408,0.3274,0.3026,0.3003,0.3633,0.0,0.0,0.0,0.0,0.0,0.0,0.0,0.0,0.0,0.0,0.0,0.073,0.0508,0.0242,-0.012,-0.0084,0.0,0.0,0.0,-0.0326,-0.0336,-0.0296,-0.0298,-0.0227,0.0179,0.036,0.0286,0.0704,0.0965,0.0995,0.1021,0.1049,0.1076,0.1076,0.1095,0.1129,0.1155,0.1187,0.1224,0.128,0.1303,0.1307,0.1341,0.1337,0.1318,0.0,0.0,0.0,0.0,0.0,0.4453,0.4371,0.5039,0.5492,0.5437,0.5991,0.6322,0.6046,0.6126,0.6103,0.5833,0.6231,0.0,0.0,0.0,0.0,0.545,0.5529,0.5597,0.5597,0.571,0.5386,0.0,0.0,0.0,0.3744,0.391,0.3965,0.0,0.0,0.0,0.4024,0.4135,0.0,0.4193,0.4298,0.4301,0.4161,0.3981,0.4053,0.421,0.4025,0.416,0.4408,0.4301,0.4356,0.4519,0.4519,0.4519,0.4519,0.4519,0.4519,0.4519,0.4519,0.4519,0.4512,0.4433,0.4426,0.4385,0.4082,0.4138,0.4207,0.3915,0.3862,0.3832,0.3548,0.2883,0.0,0.0,0.0,0.0,0.0,0.0,0.0,0.0,0.0,0.1198,0.0,0.0,0.0,0.0,0.0,0.0,0.0,0.0,0.0111,0.0112,0.0113,0.0291,0.0729,0.0778,0.0789,0.0883,0.0928,0.0997,0.1026,0.1031,0.1049,0.1076,0.1076,0.1107,0.1159,0.1164,0.1199,0.1253,0.1288,0.1303,0.1309,0.1363,0.1379,0.1375,0.0,0.0,0.0,0.0,0.0,0.0,0.0,0.6041,0.6529,0.6367,0.6367,0.6258,0.6095,0.6426,0.6593,0.648,0.6756,0.6701,0.6263,0.6593,0.6652,0.6322,0.648,0.6529,0.6529,0.6691,0.6312,0.5277,0.0,0.0,0.391,0.4024,0.4079,0.4135,0.0,0.4677,0.0,0.0,0.4791,0.4736,0.4463,0.4356,0.434,0.4147,0.4391,0.4772,0.4722,0.498,0.5281,0.4574,0.4629,0.4901,0.4901,0.5117,0.5391,0.5391,0.5391,0.5336,0.5007,0.4901,0.4842,0.457,0.4519,0.4426,0.4227,0.4358,0.4399,0.4182,0.4256,0.4196,0.3599,0.3227,0.2872,0.0,0.0,0.0,0.0,0.0,0.0,0.0,0.0,0.0,0.0,0.0,0.0,0.0,0.0,0.0,0.0,0.0,0.0561,0.0561,0.058,0.0713,0.0965,0.092,0.0997,0.101,0.1012,0.1019,0.0969,0.1048,0.1063,0.1076,0.1076,0.111,0.1169,0.12,0.124,0.1284,0.1314,0.1335,0.1353,0.1397,0.1413,0.1413,0.0,0.3968,0.0,0.0,0.5555,0.5991,0.5873,0.6583,0.7139,0.7085,0.6583,0.6253,0.6253,0.675,0.7085,0.7085,0.7139,0.7139,0.7139,0.7257,0.7365,0.7365,0.7467,0.7515,0.7515,0.7676,0.7182,0.0,0.0,0.0,0.4239,0.4245,0.4249,0.0,0.0,0.0,0.0,0.5277,0.5386,0.5441,0.4849,0.4739,0.4846,0.4684,0.5011,0.55,0.55,0.5769,0.6046,0.5171,0.5117,0.55,0.55,0.5828,0.6209,0.6209,0.6209,0.61,0.5605,0.5391,0.5226,0.4791,0.457,0.4433,0.4321,0.4382,0.4429,0.4317,0.4385,0.4349,0.3904,0.3672,0.3371,0.292,0.0,0.0,0.0,0.0,0.0,0.0,0.0,0.0,0.1524,0.0,0.0,0.0,0.0,0.0,0.0831,0.0,0.0898,0.0898,0.095,0.0973,0.0902,0.0946,0.1028,0.1016,0.1034,0.1043,0.1044,0.1065,0.1079,0.1085,0.1085,0.112,0.1181,0.1235,0.1275,0.1306,0.1336,0.1365,0.1394,0.1424,0.1436,0.1436,0.0,0.0,0.0,0.0,0.0,0.6263,0.5496,0.6529,0.7295,0.7139,0.7025,0.6972,0.6972,0.7085,0.7085,0.7085,0.7198,0.7257,0.7257,0.7413,0.7467,0.7467,0.7622,0.767,0.767,0.7788,0.7515,0.0,0.0,0.5769,0.4999,0.4622,0.4463,0.4463,0.4519,0.4842,0.5277,0.5277,0.5605,0.61,0.6046,0.6046,0.6046,0.6046,0.6046,0.61,0.61,0.6154,0.6209,0.61,0.61,0.61,0.61,0.6154,0.6209,0.6209,0.6209,0.6209,0.6154,0.5719,0.5277,0.5226,0.4846,0.4515,0.4498,0.4508,0.4515,0.4498,0.4508,0.4463,0.4408,0.418,0.3986,0.4013,0.0,0.0,0.0,0.0,0.3195,0.3016,0.0,0.0,0.2307,0.1429,0.0,0.0,0.1161,0.0,0.0,0.0878,0.0898,0.0898,0.093,0.0911,0.096,0.0966,0.1059,0.1108,0.1084,0.1072,0.1072,0.1074,0.1091,0.1117,0.1117,0.1151,0.121,0.1243,0.1275,0.1306,0.1336,0.1365,0.1394,0.1424,0.1436,0.1436,0.0,0.0,0.0,0.0,0.0,0.0,0.0,0.6972,0.73,0.7419,0.7359,0.7295,0.7295,0.73,0.7354,0.7354,0.7359,0.7359,0.7413,0.7526,0.7634,0.7622,0.7729,0.7842,0.7842,0.7901,0.7628,0.0,0.0,0.0,0.5769,0.5605,0.55,0.5555,0.5882,0.6154,0.6372,0.6372,0.6534,0.6701,0.6372,0.6209,0.6209,0.6209,0.6426,0.6756,0.6756,0.6972,0.7246,0.7246,0.7025,0.6756,0.6756,0.6972,0.7246,0.7246,0.7246,0.7079,0.6372,0.6046,0.5664,0.5007,0.468,0.4519,0.4519,0.4519,0.4519,0.4519,0.4519,0.4519,0.4519,0.4365,0.4277,0.42,0.0,0.0,0.0,0.0,0.0,0.3532,0.0,0.3215,0.0,0.2232,0.0,0.0,0.0,0.0,0.0,0.0871,0.0898,0.0898,0.0927,0.0903,0.1006,0.1024,0.1054,0.1094,0.11,0.1103,0.1104,0.1122,0.1137,0.1149,0.1168,0.1189,0.1214,0.1245,0.1286,0.1331,0.1259,0.172,0.2303,0.2323,0.2686,0.313,0.7031,0.0,0.7574,0.6588,0.6588,0.6918,0.7521,0.7467,0.7413,0.7747,0.7628,0.7515,0.7461,0.7461,0.7521,0.7521,0.7515,0.7515,0.758,0.7693,0.7741,0.7783,0.7842,0.0,0.7901,0.7901,0.7741,0.7354,0.7192,0.0,0.648,0.6263,0.6209,0.6209,0.6647,0.6918,0.7085,0.7085,0.7192,0.73,0.6864,0.6696,0.6696,0.6696,0.6972,0.7354,0.7354,0.7574,0.7901,0.7901,0.7628,0.7354,0.7354,0.7574,0.7901,0.7901,0.7901,0.7735,0.6918,0.6588,0.6263,0.5445,0.5007,0.4736,0.4736,0.4625,0.4505,0.4409,0.4399,0.4385,0.4341,0.4331,0.4314,0.4204,0.4197,0.0,0.0,0.4151,0.0,0.3944,0.387,0.3739,0.3447,0.2887,0.0,0.0,0.0,0.0,0.0,0.087,0.0892,0.0911,0.0874,0.0962,0.1001,0.1031,0.1061,0.1089,0.1111,0.1125,0.1136,0.1166,0.1327,0.1549,0.159,0.1766,0.2011,0.2046,0.2118,0.2123,0.2223,0.2706,0.3315,0.3336,0.3776,0.4289,0.7901,0.7901,0.7901,0.7901,0.7901,0.7901,0.7901,0.7901,0.7901,0.7901,0.7901,0.7794,0.7521,0.7521,0.7521,0.7521,0.7622,0.7676,0.7699,0.78,0.7901,0.0,0.0,0.7901,0.7901,0.7901,0.7901,0.7901,0.0,0.0,0.7085,0.648,0.6209,0.6209,0.6209,0.6534,0.7085,0.7085,0.7408,0.7901,0.7901,0.7901,0.7901,0.7901,0.7901,0.7901,0.7901,0.7901,0.7901,0.7901,0.7901,0.7901,0.7901,0.7901,0.7901,0.7901,0.7901,0.7901,0.7901,0.7521,0.7085,0.7085,0.6154,0.5277,0.5277,0.4897,0.4423,0.4227,0.4197,0.4153,0.4053,0.4026,0.4073,0.417,0.4197,0.0,0.0,0.4512,0.0,0.4207,0.3813,0.3705,0.4134,0.3232,0.0,0.0,0.0,0.0,0.0,0.0885,0.088,0.0882,0.0884,0.0911,0.0968,0.1061,0.109,0.112,0.1121,0.1137,0.1167,0.1198,0.1664,0.2498,0.2484,0.3016,0.3968,0.3968,0.4076,0.4159,0.4341,0.4376,0.43,0.4391,0.4367,0.4289,0.7901,0.7901,0.7901,0.7901,0.7901,0.7901,0.7901,0.7901,0.7901,0.7901,0.7901,0.7848,0.7794,0.7788,0.7788,0.0,0.7788,0.7842,0.0,0.7901,0.7901,0.7901,0.7901,0.7901,0.7901,0.7901,0.7901,0.7901,0.7735,0.7628,0.7628,0.7461,0.7354,0.7354,0.7354,0.7461,0.7628,0.7628,0.7741,0.7901,0.7901,0.7901,0.7901,0.7901,0.7901,0.7901,0.7901,0.7901,0.7901,0.7901,0.7901,0.7901,0.7901,0.7901,0.7901,0.7901,0.8008,0.8002,0.7616,0.7348,0.7182,0.6864,0.6317,0.5932,0.6154,0.5773,0.521,0.4566,0.4421,0.4334,0.4185,0.404,0.4036,0.4033,0.4127,0.414,0.4029,0.0,0.4372,0.4121,0.4026,0.4033,0.4194,0.3556,0.0,0.0,0.0,0.0,0.1537,0.1141,0.0923,0.0883,0.0922,0.0951,0.0969,0.1061,0.1091,0.1121,0.1142,0.1473,0.2072,0.22,0.2673,0.3409,0.3493,0.3671,0.3874,0.3874,0.4018,0.4241,0.4272,0.4714,0.5383,0.5418,0.5869,0.6373,0.7901,0.7901,0.7901,0.7901,0.7901,0.7901,0.7901,0.7901,0.7901,0.7901,0.7901,0.7901,0.7901,0.7901,0.7901,0.7901,0.7901,0.7901,0.7901,0.7901,0.7901,0.7901,0.7901,0.7901,0.7901,0.7901,0.7901,0.7901,0.7901,0.7901,0.7901,0.7901,0.7901,0.7901,0.7901,0.7901,0.7901,0.7901,0.7901,0.7901,0.7901,0.7901,0.7901,0.7901,0.7901,0.7901,0.7901,0.7901,0.7901,0.7901,0.7955,0.8008,0.8008,0.8062,0.8055,0.8008,0.8109,0.8215,0.783,0.7723,0.767,0.7343,0.6897,0.6516,0.641,0.6152,0.5697,0.4873,0.4722,0.4566,0.4148,0.4046,0.4002,0.3941,0.4063,0.4043,0.3904,0.4121,0.4226,0.0,0.0,0.411,0.411,0.3801,0.3467,0.0,0.0,0.0,0.246,0.1733,0.1309,0.1339,0.1377,0.1283,0.1049,0.1078,0.1108,0.1138,0.1548,0.2132,0.2978,0.3101,0.3489,0.4226,0.4409,0.46,0.4898,0.4942,0.5111,0.5254,0.5388,0.5822,0.6373,0.6424,0.6907,0.735,0.7901,0.7901,0.7901,0.7901,0.7901,0.7901,0.7901,0.7901,0.7901,0.7901,0.7901,0.7901,0.7901,0.7901,0.7901,0.7901,0.7901,0.7901,0.7901,0.7901,0.7901,0.7901,0.7901,0.7901,0.7901,0.7901,0.7901,0.7901,0.7901,0.7901,0.7901,0.7901,0.7901,0.7901,0.7901,0.7901,0.7901,0.7901,0.7901,0.7901,0.7901,0.7901,0.7901,0.7901,0.7901,0.7901,0.7901,0.7901,0.7901,0.7901,0.8062,0.8221,0.8221,0.8321,0.8374,0.8268,0.8321,0.8421,0.8421,0.8421,0.8421,0.8421,0.7802,0.6996,0.6272,0.6173,0.6044,0.5274,0.5072,0.4809,0.3969,0.3931,0.3972,0.3829,0.3934,0.4033,0.4022,0.4036,0.4046,0.4036,0.4043,0.405,0.405,0.406,0.4016,0.3966,0.0,0.0,0.3663,0.2687,0.2196,0.2181,0.2198,0.1912,0.128,0.1245,0.1279,0.1389,0.2224,0.3057,0.3919,0.3925,0.4321,0.5115,0.5239,0.5843,0.6712,0.6854,0.7004,0.7153,0.7299,0.7275,0.7173,0.7319,0.738,0.7363,0.7901,0.7901,0.7901,0.7901,0.7901,0.7901,0.7901,0.7901,0.7901,0.7901,0.7901,0.7901,0.7901,0.7901,0.7901,0.7901,0.7901,0.7901,0.7901,0.7901,0.7901,0.7901,0.7901,0.7901,0.7901,0.7901,0.7901,0.7901,0.7901,0.7901,0.7901,0.7901,0.7901,0.7901,0.7901,0.7901,0.7901,0.7901,0.7901,0.7901,0.7901,0.7901,0.7901,0.7901,0.7901,0.7901,0.7901,0.8008,0.8115,0.8115,0.8215,0.8374,0.8374,0.8421,0.8527,0.8368,0.8421,0.8521,0.8421,0.8421,0.8421,0.8421,0.8311,0.8044,0.72,0.687,0.646,0.5441,0.4949,0.4528,0.4151,0.4023,0.4009,0.3972,0.4043,0.4103,0.4036,0.4216,0.4317,0.4157,0.429,0.4358,0.4358,0.4463,0.4363,0.3907,0.0,0.3977,0.4041,0.3988,0.3579,0.2955,0.2933,0.2941,0.2837,0.2856,0.2931,0.314,0.3394,0.3949,0.4903,0.4986,0.5522,0.6273,0.6418,0.6605,0.6705,0.6739,0.6905,0.7143,0.718,0.7244,0.7322,0.7356,0.7444,0.7506,0.8328,0.8328,0.8328,0.8328,0.8062,0.7901,0.7901,0.7901,0.7901,0.7901,0.7901,0.7901,0.7901,0.7901,0.7901,0.7901,0.7901,0.7901,0.7901,0.7901,0.7901,0.7901,0.7901,0.7901,0.7901,0.7901,0.7955,0.8062,0.8109,0.8109,0.8109,0.8109,0.8109,0.8109,0.8109,0.8109,0.8109,0.8109,0.8115,0.8062,0.8062,0.8008,0.7901,0.7901,0.7955,0.8062,0.8062,0.8168,0.8268,0.8268,0.8374,0.8474,0.8474,0.858,0.8692,0.8586,0.8639,0.8692,0.8586,0.8586,0.856,0.843,0.8482,0.8429,0.7826,0.7635,0.7337,0.6465,0.5846,0.5324,0.4875,0.4536,0.4303,0.4228,0.4289,0.4317,0.4228,0.4312,0.4362,0.4351,0.4371,0.4392,0.4512,0.4594,0.4472,0.4128,0.4315,0.4493,0.4614,0.4879,0.4617,0.3808,0.3839,0.3781,0.3557,0.3526,0.386,0.4365,0.4423,0.4988,0.5924,0.5998,0.628,0.6709,0.6861,0.6881,0.681,0.6875,0.6997,0.7139,0.7139,0.719,0.7275,0.7346,0.7424,0.7482,0.8857,0.8804,0.8752,0.8699,0.8221,0.7901,0.7901,0.7901,0.7901,0.7901,0.7901,0.7901,0.7901,0.7901,0.7901,0.7901,0.7901,0.7901,0.7901,0.7991,0.7997,0.7955,0.7991,0.8009,0.8009,0.8009,0.8098,0.8215,0.8321,0.8421,0.8421,0.8421,0.8421,0.8421,0.8421,0.8374,0.8374,0.8374,0.8321,0.8221,0.8168,0.8062,0.7955,0.7955,0.8062,0.8215,0.8215,0.8321,0.8421,0.8421,0.8527,0.8626,0.8626,0.8692,0.8804,0.8804,0.8804,0.8804,0.8752,0.8752,0.8692,0.8497,0.8507,0.8508,0.826,0.8248,0.815,0.7605,0.7015,0.6421,0.5759,0.527,0.4923,0.4747,0.4704,0.4657,0.4558,0.4393,0.4389,0.4538,0.4419,0.4429,0.4551,0.4642,0.4663,0.469,0.4874,0.5081,0.5223,0.5501,0.537,0.4734,0.4813,0.4579,0.4021,0.4043,0.4496,0.5428,0.5428,0.5831,0.6736,0.6736,0.6746,0.6773,0.6905,0.6959,0.697,0.7092,0.7139,0.7139,0.7139,0.7139,0.716,0.7316,0.7387,0.7424,0.9166,0.8804,0.8646,0.8115,0.7955,0.7901,0.7901,0.7901,0.7901,0.7901,0.7901,0.7901,0.7901,0.7901,0.7901,0.7901,0.7901,0.7901,0.7901,0.8269,0.8404,0.818,0.8488,0.8663,0.8663,0.8663,0.8555,0.8374,0.8374,0.8421,0.8421,0.8421,0.8421,0.8421,0.8421,0.8321,0.8215,0.8215,0.8221,0.8168,0.8008,0.8109,0.8321,0.8215,0.8268,0.8374,0.8374,0.8474,0.8573,0.8573,0.8633,0.8752,0.8752,0.8804,0.8804,0.8804,0.8804,0.8752,0.8685,0.8527,0.8468,0.8574,0.8593,0.856,0.8515,0.8171,0.7771,0.7551,0.7015,0.6578,0.6436,0.6372,0.6154,0.5682,0.5626,0.5419,0.4917,0.4786,0.4819,0.4855,0.4918,0.5003,0.5026,0.5145,0.5274,0.5406,0.546,0.5549,0.5691,0.5864,0.5889,0.5738,0.5709,0.5643,0.5622,0.5838,0.6071,0.6311,0.6311,0.6538,0.6895,0.6895,0.6959,0.7075,0.7099,0.7105,0.7109,0.7132,0.7139,0.7139,0.7139,0.7139,0.716,0.7316,0.7455,0.7567,0.9015,0.8804,0.8699,0.8434,0.8381,0.8275,0.7955,0.7901,0.7901,0.7901,0.7901,0.8008,0.8328,0.8381,0.8381,0.8381,0.8381,0.8635,0.9298,0.8966,0.8745,0.877,0.894,0.9067,0.9067,0.9131,0.913,0.9,0.9056,0.9105,0.9105,0.9105,0.902,0.8815,0.8815,0.8736,0.854,0.854,0.848,0.8421,0.8315,0.8315,0.8368,0.8321,0.8368,0.8527,0.8527,0.858,0.8692,0.8692,0.8752,0.8804,0.8804,0.8804,0.8804,0.8804,0.8804,0.8804,0.8745,0.8639,0.8639,0.8692,0.8692,0.8692,0.8692,0.8474,0.8262,0.8203,0.7717,0.7283,0.7283,0.7074,0.6718,0.626,0.6016,0.5712,0.5236,0.5031,0.4928,0.5019,0.5043,0.5196,0.5362,0.5443,0.5545,0.5691,0.5705,0.5769,0.5918,0.5989,0.6101,0.6264,0.62,0.6237,0.639,0.6461,0.6573,0.6719,0.6719,0.6831,0.7044,0.7044,0.7078,0.7139,0.7139,0.7139,0.7139,0.7139,0.719,0.7265,0.7265,0.7316,0.7404,0.7553,0.7604,0.7624,0.9577,0.9577,0.942,0.891,0.8804,0.8646,0.8168,0.8115,0.8115,0.8115,0.8115,0.8275,0.8752,0.8804,0.8804,0.8804,0.8804,0.9305,1.0544,0.9753,0.9259,0.9324,0.9421,0.9447,0.9447,0.9597,0.9584,0.9518,0.9628,0.9686,0.9686,0.9686,0.9559,0.9345,0.9345,0.9163,0.8957,0.8957,0.8897,0.8829,0.8775,0.8721,0.868,0.868,0.8689,0.8731,0.8731,0.8751,0.8804,0.8804,0.8804,0.8804,0.8804,0.8804,0.8804,0.8804,0.8851,0.8891,0.8824,0.8804,0.8804,0.8804,0.8858,0.8911,0.8911,0.8911,0.8925,0.8998,0.8511,0.8109,0.8176,0.7865,0.7444,0.6894,0.6599,0.6266,0.5718,0.5422,0.5207,0.5234,0.5324,0.5449,0.5616,0.564,0.5698,0.5844,0.5854,0.5935,0.6122,0.6132,0.6271,0.6569,0.6546,0.658,0.6698,0.6702,0.6776,0.6929,0.6929,0.7004,0.7139,0.7139,0.716,0.719,0.7156,0.718,0.7244,0.721,0.7285,0.7424,0.7424,0.7495,0.7617,0.7756,0.7743,0.7685,1.1868,1.1868,1.1209,0.9166,0.8804,0.8804,0.8752,0.8752,0.8752,0.8752,0.8752,0.8758,0.8804,0.8804,0.8804,0.8804,0.8804,0.9305,1.0544,1.0508,1.0111,0.9343,0.9735,0.9953,0.9953,1.004,0.9953,0.9686,0.9686,0.9686,0.9686,0.9686,0.9673,0.9653,0.9653,0.9582,0.9453,0.9453,0.9453,0.9395,0.9324,0.9382,0.9619,0.9453,0.9282,0.915,0.915,0.8977,0.8804,0.8804,0.8804,0.8804,0.8804,0.8804,0.8804,0.8804,0.8998,0.9097,0.8878,0.8804,0.8804,0.8804,0.9011,0.915,0.915,0.915,0.9285,0.9559,0.913,0.8831,0.9048,0.9095,0.8756,0.7919,0.7701,0.7389,0.6511,0.6245,0.6024,0.5784,0.5948,0.598,0.5783,0.5786,0.5847,0.6,0.6013,0.6139,0.6424,0.6441,0.658,0.6885,0.6759,0.6688,0.6702,0.6702,0.6776,0.6929,0.6929,0.7004,0.7139,0.7139,0.7217,0.7346,0.7204,0.7302,0.7556,0.7414,0.7444,0.7584,0.7584,0.759,0.7617,0.7756,0.7804,0.7818,1.2076,1.1006,0.9777,0.8962,0.8804,0.8804,0.8804,0.8804,0.8804,0.8804,0.8804,0.8804,0.8804,0.8804,0.8804,0.8804,0.9472,1.0087,1.0598,1.0624,1.0461,1.0111,1.0301,1.0403,1.0403,1.0374,1.0334,1.0288,1.0288,1.0288,1.0288,1.0288,1.0127,0.9953,0.9953,0.9853,0.9628,0.9628,0.9628,0.9628,0.9563,0.9621,0.9686,0.9628,0.9555,0.9492,0.925,0.911,0.9051,0.8871,0.8804,0.8804,0.8804,0.8804,0.8844,0.9025,0.9285,0.9492,0.9379,0.9352,0.9352,0.9352,0.9292,0.9183,0.9183,0.9044,0.9005,0.9118,0.8965,0.8898,0.913,0.9183,0.9071,0.8705,0.8469,0.7969,0.709,0.6815,0.6539,0.6108,0.6205,0.6313,0.6435,0.6453,0.6561,0.6828,0.6763,0.6732,0.6848,0.6785,0.681,0.6926,0.6956,0.6973,0.6973,0.6973,0.7004,0.7058,0.7058,0.7088,0.7139,0.7139,0.7173,0.7231,0.7268,0.735,0.7461,0.7499,0.76,0.7729,0.7729,0.7787,0.7879,0.7933,0.7953,0.796,1.1209,1.0387,0.9629,0.891,0.9368,0.9829,0.9829,0.9829,0.9829,0.9829,0.9829,0.9577,0.8857,0.8804,0.8804,0.8804,0.988,1.0624,1.0624,1.0624,1.0624,1.0624,1.0624,1.0624,1.0624,1.0624,1.0624,1.0624,1.0624,1.0624,1.0624,1.0624,1.0454,1.0254,1.0254,1.0147,0.996,0.996,0.996,0.996,0.996,0.996,0.996,0.996,0.99,0.9793,0.9586,0.9459,0.9345,0.9152,0.9078,0.9078,0.9078,0.9078,0.9105,0.915,0.9452,0.9659,0.9566,0.9679,0.978,0.9593,0.9459,0.9379,0.9379,0.9299,0.9245,0.9339,0.9212,0.9172,0.9409,0.9455,0.9472,0.9436,0.9175,0.8788,0.8153,0.7922,0.7655,0.7237,0.7068,0.708,0.7297,0.7095,0.7062,0.7345,0.7195,0.7051,0.7017,0.6997,0.6997,0.6997,0.7088,0.7139,0.7139,0.7139,0.7139,0.7139,0.7139,0.7166,0.721,0.7163,0.7217,0.7353,0.7366,0.7451,0.7587,0.7641,0.775,0.7882,0.7882,0.7946,0.8038,0.8038,0.8038,0.8038,0.9271,1.0592,1.141,0.9232,1.0667,1.2094,1.2094,1.2085,1.2076,1.2076,1.2076,1.1259,0.9061,0.8818,0.8824,0.8824,0.9886,1.0624,1.0624,1.0624,1.0624,1.0624,1.0624,1.0624,1.0624,1.0624,1.0624,1.0624,1.0624,1.0624,1.0624,1.0624,1.0624,1.0624,1.0624,1.0624,1.0624,1.0624,1.0624,1.0624,1.0624,1.0624,1.0624,1.0624,1.0374,1.012,1.0114,0.9933,0.9686,0.9686,0.9686,0.9686,0.9686,0.9686,0.9626,0.9325,0.9452,0.9619,0.9325,0.9673,0.9973,0.9336,0.9466,0.9686,0.9686,0.9907,1.02,1.0494,1.0094,0.9773,1.006,1.012,1.0127,1.0127,1.0027,0.9989,0.9995,0.9752,0.955,0.9322,0.8781,0.839,0.8282,0.7593,0.7189,0.736,0.7199,0.7017,0.6922,0.7065,0.7139,0.7139,0.7139,0.7139,0.7139,0.7139,0.7139,0.7139,0.7139,0.7221,0.7366,0.721,0.7387,0.7794,0.7502,0.7628,0.8024,0.7875,0.7902,0.8038,0.8038,0.8038,0.8038,0.8038,0.8038,0.8038,1.1259,1.1669,1.2229,1.2728,1.3375,1.3782,1.3782,1.281,1.2076,1.2076,1.0744,0.9524,0.8857,0.9546,1.004,1.004,1.0361,1.0624,1.0624,1.0624,1.0624,1.0624,1.0624,1.0624,1.0624,1.0624,1.0624,1.0624,1.0624,1.0624,1.0624,1.0624,1.0624,1.0624,1.1052,1.124,1.1233,1.1725,1.1903,1.1903,1.1903,1.1903,1.1903,1.1421,1.1183,1.1008,1.0309,1.006,0.996,0.9753,0.9686,0.9686,0.9686,0.9686,0.9666,0.9579,0.9613,0.9706,0.9826,0.9833,0.982,0.9846,0.992,0.9987,0.9987,0.9893,0.984,0.9927,0.9967,1.0013,1.01,1.0454,1.0728,1.0728,1.0843,1.0885,1.0524,1.0556,1.0232,0.9177,0.9075,0.8886,0.8359,0.8046,0.795,0.7951,0.762,0.7295,0.7075,0.7115,0.7139,0.7139,0.7139,0.7139,0.7139,0.7139,0.7139,0.7139,0.7139,0.7221,0.737,0.7322,0.7434,0.7662,0.7675,0.7756,0.7885,0.7946,0.7997,0.8038,0.8038,0.8038,0.8038,0.8038,0.8038,0.8038,1.291,1.3039,1.3351,1.4341,1.4515,1.4515,1.4515,1.3671,1.3039,1.3039,1.1877,1.1059,1.1059,1.1732,1.2166,1.2166,1.2166,1.167,1.0688,1.0624,1.1059,1.2104,1.1483,1.0926,1.0624,1.0926,1.0926,1.0624,1.0926,1.1115,1.1115,1.1115,1.117,1.1358,1.1725,1.1911,1.1903,1.2328,1.2512,1.2512,1.2205,1.2266,1.2389,1.1483,1.1483,1.1757,1.0657,1.0472,1.0567,1.0208,1.0033,1.0007,0.9893,0.9933,0.9987,0.9753,0.9766,0.9866,0.9927,0.99,0.9893,1.0074,1.0114,1.0147,1.0267,1.0241,1.0234,1.0347,1.0514,1.0635,1.0635,1.0922,1.1202,1.1323,1.149,1.1603,1.1567,1.1695,1.1517,1.0762,1.0519,1.0126,0.9363,0.9048,0.87,0.8273,0.7852,0.7503,0.7234,0.7143,0.7139,0.7139,0.7139,0.717,0.7231,0.7231,0.7231,0.7231,0.7292,0.74,0.7543,0.7489,0.7577,0.7777,0.7801,0.7845,0.7909,0.8001,0.8038,0.8038,0.8038,0.8038,0.8137,0.8137,0.8233,0.8333,1.4222,1.4515,1.4515,1.4515,1.4515,1.4515,1.4515,1.4515,1.4515,1.4515,1.4515,1.4515,1.4515,1.4515,1.4515,1.4515,1.4515,1.3459,1.1115,1.0933,1.1981,1.4396,1.2895,1.16,1.0807,1.1538,1.16,1.0807,1.16,1.1965,1.1965,1.1965,1.2151,1.2512,1.2565,1.2573,1.2573,1.2634,1.2696,1.2634,1.2035,1.2151,1.2573,1.1296,1.16,1.2451,1.1233,1.1115,1.1483,1.087,1.0667,1.06,1.02,1.0281,1.0443,0.9873,0.9913,1.0067,0.986,0.9973,1.0167,1.0221,1.0214,1.0267,1.0598,1.0822,1.1109,1.1369,1.145,1.1463,1.1463,1.151,1.163,1.1904,1.1971,1.2178,1.2788,1.2889,1.2933,1.3134,1.2449,1.1746,1.0982,1.0243,0.9393,0.836,0.8113,0.7852,0.7595,0.7323,0.7139,0.7143,0.7143,0.7214,0.737,0.7387,0.7394,0.7394,0.7533,0.7675,0.7807,0.7678,0.7773,0.8031,0.7892,0.7909,0.8038,0.8038,0.8038,0.8038,0.8038,0.8233,0.8432,0.8432,0.8627,0.8825,1.4442,1.4515,1.4515,1.4515,1.4515,1.4515,1.4515,1.4515,1.4515,1.4515,1.4515,1.4515,1.4515,1.4515,1.4515,1.4515,1.4515,1.4258,1.3709,1.3649,1.3899,1.4455,1.3502,1.2634,1.2081,1.2266,1.2451,1.2642,1.2451,1.2389,1.2389,1.2389,1.2451,1.2512,1.307,1.326,1.3321,1.3821,1.407,1.407,1.389,1.395,1.401,1.3208,1.3017,1.3199,1.2389,1.2143,1.2212,1.1545,1.1138,1.0863,1.0316,1.0007,0.9893,0.9993,1.0067,1.0207,1.0601,1.0588,1.0575,1.1029,1.0975,1.0822,1.0882,1.1122,1.1349,1.141,1.161,1.177,1.177,1.2151,1.256,1.262,1.2759,1.2966,1.3093,1.3307,1.3225,1.255,1.2492,1.2216,1.1332,1.0893,1.0307,0.9405,0.9061,0.8632,0.7856,0.7764,0.7591,0.7415,0.7415,0.7399,0.737,0.7492,0.755,0.755,0.7584,0.7675,0.7811,0.778,0.7962,0.8333,0.8297,0.84,0.8627,0.8627,0.8627,0.8627,0.8627,0.8627,0.8726,0.8726,0.8726,0.8825,1.4515,1.4515,1.4515,1.4515,1.4515,1.4515,1.4515,1.4515,1.4515,1.4515,1.4515,1.4515,1.4515,1.4515,1.4515,1.4515,1.4515,1.4515,1.4515,1.4515,1.4515,1.4515,1.407,1.3692,1.345,1.3612,1.3428,1.2879,1.326,1.345,1.345,1.345,1.345,1.3442,1.3821,1.401,1.401,1.4327,1.4515,1.4446,1.4139,1.4198,1.4387,1.3381,1.3442,1.3821,1.2458,1.1841,1.156,1.134,1.1164,1.0968,1.0661,1.0528,1.0488,1.0361,1.0428,1.0601,1.0909,1.0882,1.0875,1.1316,1.1416,1.141,1.141,1.153,1.1717,1.1997,1.2178,1.2405,1.2485,1.2759,1.2966,1.2966,1.3106,1.326,1.34,1.3547,1.353,1.3163,1.3302,1.296,1.21,1.1488,1.0707,0.985,0.9497,0.9235,0.8719,0.8632,0.846,0.8285,0.8367,0.8493,0.857,0.8742,0.9151,0.9615,0.8475,0.8042,0.8112,0.821,0.835,0.863,0.9118,0.941,0.9608,0.9608,0.9608,0.9509,0.9019,0.8928,0.9031,0.9031,0.9031,0.9031,1.4515,1.4515,1.4515,1.4515,1.4515,1.4515,1.4515,1.4515,1.4515,1.4515,1.4515,1.4515,1.4515,1.4515,1.4515,1.4515,1.4515,1.4515,1.4515,1.4515,1.4515,1.4515,1.4515,1.4515,1.4515,1.4928,1.4462,1.3001,1.4118,1.4689,1.4653,1.4653,1.4598,1.4515,1.4515,1.4515,1.4515,1.4515,1.4515,1.4446,1.3881,1.4045,1.4487,1.3353,1.37,1.4466,1.2835,1.1896,1.1503,1.1631,1.1483,1.1311,1.1252,1.1223,1.1269,1.0835,1.0915,1.1156,1.1202,1.1216,1.1289,1.1577,1.1837,1.2031,1.2084,1.2058,1.2244,1.2795,1.2903,1.2919,1.3227,1.3287,1.33,1.3353,1.336,1.344,1.3687,1.3721,1.3808,1.4055,1.4088,1.3848,1.3114,1.2295,1.1408,1.0463,1.0193,1.0101,0.9927,0.9666,0.9579,0.9492,0.9691,0.989,1.0181,1.0377,1.0957,1.1853,0.9998,0.9019,0.9019,0.9213,0.9312,0.941,1.0391,1.0779,1.0779,1.0779,1.0779,1.0681,0.9801,0.9612,0.9817,0.9624,0.9624,0.9723,1.4625,1.4515,1.4515,1.4515,1.4515,1.4515,1.4515,1.4515,1.4515,1.4515,1.4515,1.4515,1.4515,1.4515,1.4515,1.4515,1.4515,1.4515,1.4515,1.4515,1.4515,1.4515,1.4515,1.4515,1.4515,1.5019,1.5186,1.4944,1.536,1.5414,1.5203,1.5203,1.4955,1.4515,1.4515,1.4515,1.4515,1.4515,1.4515,1.4506,1.4387,1.4647,1.5019,1.4825,1.5096,1.5533,1.5204,1.5067,1.4939,1.4408,1.3567,1.2732,1.2143,1.1535,1.1089,1.1263,1.1516,1.1804,1.2058,1.2124,1.2198,1.2492,1.2674,1.2775,1.2966,1.2819,1.2802,1.3073,1.3146,1.324,1.3534,1.3587,1.3667,1.3928,1.3968,1.3981,1.4021,1.4028,1.4041,1.4082,1.4088,1.4103,1.4262,1.3972,1.3307,1.2357,1.2272,1.1923,1.1149,1.1063,1.0971,1.0788,1.1004,1.114,1.1099,1.1407,1.1627,1.1945,1.1848,1.1658,1.1458,1.1458,1.1658,1.1848,1.1945,1.2145,1.2436,1.2436,1.2436,1.2339,1.2242,1.2145,1.2145,1.1272,1.1463,1.2052,1.48,1.523,1.557,1.4671,1.4515,1.4515,1.4515,1.4515,1.4515,1.4515,1.4515,1.4515,1.4515,1.4793,1.502,1.502,1.502,1.502,1.502,1.502,1.502,1.502,1.5204,1.5388,1.5467,1.5817,1.6235,1.659,1.6141,1.5863,1.5753,1.545,1.5258,1.5166,1.5019,1.5038,1.5166,1.5166,1.5166,1.5166,1.5166,1.5276,1.5432,1.5432,1.5542,1.5624,1.5301,1.4902,1.4592,1.4472,1.3826,1.3059,1.2905,1.234,1.1717,1.1683,1.1764,1.1937,1.2225,1.2305,1.2418,1.2886,1.3006,1.308,1.3387,1.3347,1.3287,1.3427,1.3454,1.354,1.3834,1.3895,1.3935,1.4068,1.4088,1.4088,1.4088,1.4088,1.4148,1.4309,1.4476,1.4629,1.4756,1.4649,1.4219,1.3233,1.3006,1.2748,1.2307,1.2175,1.2072,1.2203,1.236,1.2609,1.2772,1.3025,1.3492,1.4082,1.4178,1.3499,1.2145,1.2242,1.2436,1.2533,1.3125,1.3511,1.3613,1.3613,1.3613,1.3511,1.2926,1.2727,1.263,1.2242,1.2242,1.2436]}]]